<?xml version="1.0" encoding="UTF-8" standalone="no" ?>
<gpx xmlns="http://www.topografix.com/GPX/1/1" xmlns:xsi="http://www.w3.org/2001/XMLSchema-instance" xsi:schemaLocation="http://www.topografix.com/GPX/1/1 http://www.topografix.com/GPX/1/1/gpx.xsd" version="1.1" creator="VisuGPX - https://www.visugpx.com">
  <metadata>
    <name>83-M-Taradeau</name>
    <desc><![CDATA[83-M-Taradeau : Les Donjons de Giraud-Villanova
2021-09-08]]></desc>
  </metadata>
  <trk>
    <name><![CDATA[2021-09-08-01]]></name>
    <extensions>
      <line xmlns="http://www.topografix.com/GPX/gpx_style/0/2">
        <width>4</width>
      </line>
    </extensions>
    <trkseg>
      <trkpt lat="43.45361" lon="6.43419">
        <ele>162.3</ele>
        <time>2021-09-08T11:42:54.000Z</time>
      </trkpt>
      <trkpt lat="43.45362" lon="6.43419">
        <ele>162.3</ele>
        <time>2021-09-08T11:42:55.000Z</time>
      </trkpt>
      <trkpt lat="43.45359" lon="6.43424">
        <ele>161.4</ele>
        <time>2021-09-08T11:43:30.000Z</time>
      </trkpt>
      <trkpt lat="43.45355" lon="6.43429">
        <ele>161.2</ele>
        <time>2021-09-08T11:43:55.000Z</time>
      </trkpt>
      <trkpt lat="43.45351" lon="6.4343">
        <ele>161.4</ele>
        <time>2021-09-08T11:44:07.000Z</time>
      </trkpt>
      <trkpt lat="43.45347" lon="6.43427">
        <ele>161.5</ele>
        <time>2021-09-08T11:44:23.000Z</time>
      </trkpt>
      <trkpt lat="43.45347" lon="6.4342">
        <ele>161.9</ele>
        <time>2021-09-08T11:44:38.000Z</time>
      </trkpt>
      <trkpt lat="43.45345" lon="6.43426">
        <ele>162</ele>
        <time>2021-09-08T11:45:00.000Z</time>
      </trkpt>
      <trkpt lat="43.45344" lon="6.43432">
        <ele>162.2</ele>
        <time>2021-09-08T11:45:27.000Z</time>
      </trkpt>
      <trkpt lat="43.45339" lon="6.43432">
        <ele>162.3</ele>
        <time>2021-09-08T11:45:40.000Z</time>
      </trkpt>
      <trkpt lat="43.45334" lon="6.4343">
        <ele>162.6</ele>
        <time>2021-09-08T11:45:46.000Z</time>
      </trkpt>
      <trkpt lat="43.45329" lon="6.4343">
        <ele>162.9</ele>
        <time>2021-09-08T11:45:51.000Z</time>
      </trkpt>
      <trkpt lat="43.45324" lon="6.43431">
        <ele>163.4</ele>
        <time>2021-09-08T11:46:00.000Z</time>
      </trkpt>
      <trkpt lat="43.45327" lon="6.43436">
        <ele>164.6</ele>
        <time>2021-09-08T11:46:36.000Z</time>
      </trkpt>
      <trkpt lat="43.45323" lon="6.43439">
        <ele>164.5</ele>
        <time>2021-09-08T11:46:58.000Z</time>
      </trkpt>
      <trkpt lat="43.45321" lon="6.43446">
        <ele>164.6</ele>
        <time>2021-09-08T11:48:00.000Z</time>
      </trkpt>
      <trkpt lat="43.45322" lon="6.43453">
        <ele>164.6</ele>
        <time>2021-09-08T11:48:07.000Z</time>
      </trkpt>
      <trkpt lat="43.45323" lon="6.4346">
        <ele>164.6</ele>
        <time>2021-09-08T11:48:13.000Z</time>
      </trkpt>
      <trkpt lat="43.45325" lon="6.43466">
        <ele>164.7</ele>
        <time>2021-09-08T11:48:18.000Z</time>
      </trkpt>
      <trkpt lat="43.45326" lon="6.43472">
        <ele>164.8</ele>
        <time>2021-09-08T11:48:22.000Z</time>
      </trkpt>
      <trkpt lat="43.45327" lon="6.43479">
        <ele>164.9</ele>
        <time>2021-09-08T11:48:27.000Z</time>
      </trkpt>
      <trkpt lat="43.45328" lon="6.43486">
        <ele>165.2</ele>
        <time>2021-09-08T11:48:33.000Z</time>
      </trkpt>
      <trkpt lat="43.45329" lon="6.43493">
        <ele>165.6</ele>
        <time>2021-09-08T11:48:39.000Z</time>
      </trkpt>
      <trkpt lat="43.45331" lon="6.435">
        <ele>165.9</ele>
        <time>2021-09-08T11:48:44.000Z</time>
      </trkpt>
      <trkpt lat="43.45333" lon="6.43506">
        <ele>166.4</ele>
        <time>2021-09-08T11:48:49.000Z</time>
      </trkpt>
      <trkpt lat="43.45335" lon="6.43513">
        <ele>166.8</ele>
        <time>2021-09-08T11:48:54.000Z</time>
      </trkpt>
      <trkpt lat="43.45335" lon="6.4352">
        <ele>167.2</ele>
        <time>2021-09-08T11:48:59.000Z</time>
      </trkpt>
      <trkpt lat="43.45336" lon="6.43526">
        <ele>167.5</ele>
        <time>2021-09-08T11:49:04.000Z</time>
      </trkpt>
      <trkpt lat="43.45337" lon="6.43533">
        <ele>168.1</ele>
        <time>2021-09-08T11:49:11.000Z</time>
      </trkpt>
      <trkpt lat="43.45337" lon="6.43539">
        <ele>168.2</ele>
        <time>2021-09-08T11:49:16.000Z</time>
      </trkpt>
      <trkpt lat="43.45339" lon="6.43547">
        <ele>168.3</ele>
        <time>2021-09-08T11:49:21.000Z</time>
      </trkpt>
      <trkpt lat="43.45338" lon="6.43554">
        <ele>168.3</ele>
        <time>2021-09-08T11:49:26.000Z</time>
      </trkpt>
      <trkpt lat="43.45338" lon="6.4356">
        <ele>168.2</ele>
        <time>2021-09-08T11:49:30.000Z</time>
      </trkpt>
      <trkpt lat="43.45337" lon="6.43566">
        <ele>168</ele>
        <time>2021-09-08T11:49:35.000Z</time>
      </trkpt>
      <trkpt lat="43.45338" lon="6.43574">
        <ele>167.7</ele>
        <time>2021-09-08T11:49:39.000Z</time>
      </trkpt>
      <trkpt lat="43.45337" lon="6.43582">
        <ele>167.2</ele>
        <time>2021-09-08T11:49:43.000Z</time>
      </trkpt>
      <trkpt lat="43.45334" lon="6.43586">
        <ele>166.7</ele>
        <time>2021-09-08T11:49:48.000Z</time>
      </trkpt>
      <trkpt lat="43.45331" lon="6.43591">
        <ele>166</ele>
        <time>2021-09-08T11:49:56.000Z</time>
      </trkpt>
      <trkpt lat="43.45332" lon="6.43598">
        <ele>165.8</ele>
        <time>2021-09-08T11:50:01.000Z</time>
      </trkpt>
      <trkpt lat="43.4533" lon="6.43604">
        <ele>165.6</ele>
        <time>2021-09-08T11:50:06.000Z</time>
      </trkpt>
      <trkpt lat="43.45331" lon="6.43611">
        <ele>165.4</ele>
        <time>2021-09-08T11:50:10.000Z</time>
      </trkpt>
      <trkpt lat="43.4533" lon="6.43618">
        <ele>165.3</ele>
        <time>2021-09-08T11:50:14.000Z</time>
      </trkpt>
      <trkpt lat="43.45331" lon="6.43626">
        <ele>165.3</ele>
        <time>2021-09-08T11:50:18.000Z</time>
      </trkpt>
      <trkpt lat="43.4533" lon="6.43634">
        <ele>165.3</ele>
        <time>2021-09-08T11:50:23.000Z</time>
      </trkpt>
      <trkpt lat="43.45328" lon="6.4364">
        <ele>165.3</ele>
        <time>2021-09-08T11:50:28.000Z</time>
      </trkpt>
      <trkpt lat="43.45326" lon="6.43646">
        <ele>165.2</ele>
        <time>2021-09-08T11:50:32.000Z</time>
      </trkpt>
      <trkpt lat="43.45324" lon="6.43654">
        <ele>165.1</ele>
        <time>2021-09-08T11:50:37.000Z</time>
      </trkpt>
      <trkpt lat="43.45324" lon="6.43661">
        <ele>165.1</ele>
        <time>2021-09-08T11:50:40.000Z</time>
      </trkpt>
      <trkpt lat="43.45323" lon="6.43668">
        <ele>164.7</ele>
        <time>2021-09-08T11:50:44.000Z</time>
      </trkpt>
      <trkpt lat="43.45322" lon="6.43676">
        <ele>164.4</ele>
        <time>2021-09-08T11:50:48.000Z</time>
      </trkpt>
      <trkpt lat="43.4532" lon="6.43681">
        <ele>164.1</ele>
        <time>2021-09-08T11:50:53.000Z</time>
      </trkpt>
      <trkpt lat="43.45318" lon="6.43687">
        <ele>163.3</ele>
        <time>2021-09-08T11:50:59.000Z</time>
      </trkpt>
      <trkpt lat="43.45318" lon="6.43694">
        <ele>162.9</ele>
        <time>2021-09-08T11:51:02.000Z</time>
      </trkpt>
      <trkpt lat="43.45317" lon="6.43701">
        <ele>162.5</ele>
        <time>2021-09-08T11:51:06.000Z</time>
      </trkpt>
      <trkpt lat="43.45316" lon="6.43707">
        <ele>162.1</ele>
        <time>2021-09-08T11:51:10.000Z</time>
      </trkpt>
      <trkpt lat="43.45317" lon="6.43714">
        <ele>161.8</ele>
        <time>2021-09-08T11:51:14.000Z</time>
      </trkpt>
      <trkpt lat="43.45317" lon="6.43721">
        <ele>161.5</ele>
        <time>2021-09-08T11:51:19.000Z</time>
      </trkpt>
      <trkpt lat="43.45317" lon="6.43728">
        <ele>161.3</ele>
        <time>2021-09-08T11:51:24.000Z</time>
      </trkpt>
      <trkpt lat="43.45317" lon="6.43735">
        <ele>161</ele>
        <time>2021-09-08T11:51:28.000Z</time>
      </trkpt>
      <trkpt lat="43.45316" lon="6.43742">
        <ele>160.8</ele>
        <time>2021-09-08T11:51:32.000Z</time>
      </trkpt>
      <trkpt lat="43.45313" lon="6.43747">
        <ele>160.3</ele>
        <time>2021-09-08T11:51:36.000Z</time>
      </trkpt>
      <trkpt lat="43.45311" lon="6.43753">
        <ele>159.8</ele>
        <time>2021-09-08T11:51:41.000Z</time>
      </trkpt>
      <trkpt lat="43.45309" lon="6.43758">
        <ele>159.7</ele>
        <time>2021-09-08T11:51:45.000Z</time>
      </trkpt>
      <trkpt lat="43.45308" lon="6.43766">
        <ele>159.7</ele>
        <time>2021-09-08T11:51:49.000Z</time>
      </trkpt>
      <trkpt lat="43.45308" lon="6.43774">
        <ele>159.8</ele>
        <time>2021-09-08T11:51:53.000Z</time>
      </trkpt>
      <trkpt lat="43.45309" lon="6.4378">
        <ele>159.8</ele>
        <time>2021-09-08T11:51:56.000Z</time>
      </trkpt>
      <trkpt lat="43.45309" lon="6.43787">
        <ele>159.8</ele>
        <time>2021-09-08T11:52:00.000Z</time>
      </trkpt>
      <trkpt lat="43.4531" lon="6.43796">
        <ele>159.8</ele>
        <time>2021-09-08T11:52:05.000Z</time>
      </trkpt>
      <trkpt lat="43.4531" lon="6.43802">
        <ele>159.8</ele>
        <time>2021-09-08T11:52:08.000Z</time>
      </trkpt>
      <trkpt lat="43.45311" lon="6.43809">
        <ele>159.9</ele>
        <time>2021-09-08T11:52:12.000Z</time>
      </trkpt>
      <trkpt lat="43.45312" lon="6.43816">
        <ele>160</ele>
        <time>2021-09-08T11:52:16.000Z</time>
      </trkpt>
      <trkpt lat="43.45313" lon="6.43823">
        <ele>160.1</ele>
        <time>2021-09-08T11:52:20.000Z</time>
      </trkpt>
      <trkpt lat="43.45314" lon="6.43831">
        <ele>160.1</ele>
        <time>2021-09-08T11:52:24.000Z</time>
      </trkpt>
      <trkpt lat="43.45317" lon="6.43836">
        <ele>160.2</ele>
        <time>2021-09-08T11:52:27.000Z</time>
      </trkpt>
      <trkpt lat="43.45319" lon="6.43843">
        <ele>160.6</ele>
        <time>2021-09-08T11:52:31.000Z</time>
      </trkpt>
      <trkpt lat="43.45321" lon="6.4385">
        <ele>161</ele>
        <time>2021-09-08T11:52:35.000Z</time>
      </trkpt>
      <trkpt lat="43.45322" lon="6.43856">
        <ele>161.6</ele>
        <time>2021-09-08T11:52:39.000Z</time>
      </trkpt>
      <trkpt lat="43.45324" lon="6.43862">
        <ele>162.4</ele>
        <time>2021-09-08T11:52:46.000Z</time>
      </trkpt>
      <trkpt lat="43.45327" lon="6.43867">
        <ele>163.1</ele>
        <time>2021-09-08T11:52:52.000Z</time>
      </trkpt>
      <trkpt lat="43.45329" lon="6.43874">
        <ele>163.6</ele>
        <time>2021-09-08T11:52:57.000Z</time>
      </trkpt>
      <trkpt lat="43.45331" lon="6.43881">
        <ele>164.1</ele>
        <time>2021-09-08T11:53:02.000Z</time>
      </trkpt>
      <trkpt lat="43.45333" lon="6.43888">
        <ele>164.4</ele>
        <time>2021-09-08T11:53:06.000Z</time>
      </trkpt>
      <trkpt lat="43.45336" lon="6.43894">
        <ele>164.7</ele>
        <time>2021-09-08T11:53:11.000Z</time>
      </trkpt>
      <trkpt lat="43.45338" lon="6.43899">
        <ele>165</ele>
        <time>2021-09-08T11:53:14.000Z</time>
      </trkpt>
      <trkpt lat="43.4534" lon="6.43906">
        <ele>165.2</ele>
        <time>2021-09-08T11:53:17.000Z</time>
      </trkpt>
      <trkpt lat="43.45343" lon="6.43912">
        <ele>165.5</ele>
        <time>2021-09-08T11:53:21.000Z</time>
      </trkpt>
      <trkpt lat="43.45346" lon="6.43917">
        <ele>165.7</ele>
        <time>2021-09-08T11:53:24.000Z</time>
      </trkpt>
      <trkpt lat="43.45348" lon="6.43924">
        <ele>165.9</ele>
        <time>2021-09-08T11:53:28.000Z</time>
      </trkpt>
      <trkpt lat="43.4535" lon="6.43929">
        <ele>166.2</ele>
        <time>2021-09-08T11:53:33.000Z</time>
      </trkpt>
      <trkpt lat="43.45353" lon="6.43935">
        <ele>166.4</ele>
        <time>2021-09-08T11:53:38.000Z</time>
      </trkpt>
      <trkpt lat="43.45354" lon="6.43941">
        <ele>166.8</ele>
        <time>2021-09-08T11:53:43.000Z</time>
      </trkpt>
      <trkpt lat="43.45357" lon="6.43947">
        <ele>167.4</ele>
        <time>2021-09-08T11:53:48.000Z</time>
      </trkpt>
      <trkpt lat="43.45359" lon="6.43953">
        <ele>167.9</ele>
        <time>2021-09-08T11:53:54.000Z</time>
      </trkpt>
      <trkpt lat="43.45364" lon="6.43957">
        <ele>168.5</ele>
        <time>2021-09-08T11:53:59.000Z</time>
      </trkpt>
      <trkpt lat="43.45367" lon="6.43961">
        <ele>168.9</ele>
        <time>2021-09-08T11:54:03.000Z</time>
      </trkpt>
      <trkpt lat="43.45371" lon="6.43966">
        <ele>169.3</ele>
        <time>2021-09-08T11:54:08.000Z</time>
      </trkpt>
      <trkpt lat="43.45375" lon="6.4397">
        <ele>169.6</ele>
        <time>2021-09-08T11:54:13.000Z</time>
      </trkpt>
      <trkpt lat="43.45378" lon="6.43976">
        <ele>169.8</ele>
        <time>2021-09-08T11:54:17.000Z</time>
      </trkpt>
      <trkpt lat="43.4538" lon="6.43982">
        <ele>169.9</ele>
        <time>2021-09-08T11:54:21.000Z</time>
      </trkpt>
      <trkpt lat="43.45382" lon="6.43989">
        <ele>170</ele>
        <time>2021-09-08T11:54:26.000Z</time>
      </trkpt>
      <trkpt lat="43.45385" lon="6.43993">
        <ele>170</ele>
        <time>2021-09-08T11:54:29.000Z</time>
      </trkpt>
      <trkpt lat="43.45389" lon="6.43998">
        <ele>170</ele>
        <time>2021-09-08T11:54:32.000Z</time>
      </trkpt>
      <trkpt lat="43.45392" lon="6.44004">
        <ele>170</ele>
        <time>2021-09-08T11:54:36.000Z</time>
      </trkpt>
      <trkpt lat="43.45394" lon="6.44009">
        <ele>169.8</ele>
        <time>2021-09-08T11:54:41.000Z</time>
      </trkpt>
      <trkpt lat="43.45397" lon="6.44014">
        <ele>169.6</ele>
        <time>2021-09-08T11:54:46.000Z</time>
      </trkpt>
      <trkpt lat="43.45399" lon="6.44021">
        <ele>169.3</ele>
        <time>2021-09-08T11:54:51.000Z</time>
      </trkpt>
      <trkpt lat="43.45401" lon="6.44028">
        <ele>169</ele>
        <time>2021-09-08T11:54:55.000Z</time>
      </trkpt>
      <trkpt lat="43.45403" lon="6.44036">
        <ele>168.8</ele>
        <time>2021-09-08T11:54:59.000Z</time>
      </trkpt>
      <trkpt lat="43.45407" lon="6.44041">
        <ele>168.5</ele>
        <time>2021-09-08T11:55:03.000Z</time>
      </trkpt>
      <trkpt lat="43.45411" lon="6.44045">
        <ele>168.4</ele>
        <time>2021-09-08T11:55:08.000Z</time>
      </trkpt>
      <trkpt lat="43.45414" lon="6.4405">
        <ele>168.3</ele>
        <time>2021-09-08T11:55:14.000Z</time>
      </trkpt>
      <trkpt lat="43.45418" lon="6.44054">
        <ele>168.2</ele>
        <time>2021-09-08T11:55:18.000Z</time>
      </trkpt>
      <trkpt lat="43.45422" lon="6.44058">
        <ele>168.2</ele>
        <time>2021-09-08T11:55:23.000Z</time>
      </trkpt>
      <trkpt lat="43.45427" lon="6.4406">
        <ele>168.2</ele>
        <time>2021-09-08T11:55:27.000Z</time>
      </trkpt>
      <trkpt lat="43.45432" lon="6.44062">
        <ele>168.4</ele>
        <time>2021-09-08T11:55:32.000Z</time>
      </trkpt>
      <trkpt lat="43.45436" lon="6.44065">
        <ele>168.5</ele>
        <time>2021-09-08T11:55:35.000Z</time>
      </trkpt>
      <trkpt lat="43.45441" lon="6.44068">
        <ele>168.6</ele>
        <time>2021-09-08T11:55:39.000Z</time>
      </trkpt>
      <trkpt lat="43.45446" lon="6.4407">
        <ele>168.7</ele>
        <time>2021-09-08T11:55:43.000Z</time>
      </trkpt>
      <trkpt lat="43.4545" lon="6.44072">
        <ele>168.9</ele>
        <time>2021-09-08T11:55:46.000Z</time>
      </trkpt>
      <trkpt lat="43.45455" lon="6.44074">
        <ele>169.1</ele>
        <time>2021-09-08T11:55:50.000Z</time>
      </trkpt>
      <trkpt lat="43.4546" lon="6.44077">
        <ele>169.3</ele>
        <time>2021-09-08T11:55:54.000Z</time>
      </trkpt>
      <trkpt lat="43.45465" lon="6.44079">
        <ele>169.8</ele>
        <time>2021-09-08T11:55:59.000Z</time>
      </trkpt>
      <trkpt lat="43.4547" lon="6.44082">
        <ele>170.1</ele>
        <time>2021-09-08T11:56:03.000Z</time>
      </trkpt>
      <trkpt lat="43.45475" lon="6.44083">
        <ele>170.4</ele>
        <time>2021-09-08T11:56:07.000Z</time>
      </trkpt>
      <trkpt lat="43.4548" lon="6.44084">
        <ele>170.6</ele>
        <time>2021-09-08T11:56:11.000Z</time>
      </trkpt>
      <trkpt lat="43.45485" lon="6.44086">
        <ele>170.7</ele>
        <time>2021-09-08T11:56:15.000Z</time>
      </trkpt>
      <trkpt lat="43.45489" lon="6.44087">
        <ele>170.8</ele>
        <time>2021-09-08T11:56:19.000Z</time>
      </trkpt>
      <trkpt lat="43.45494" lon="6.44089">
        <ele>170.9</ele>
        <time>2021-09-08T11:56:23.000Z</time>
      </trkpt>
      <trkpt lat="43.45499" lon="6.4409">
        <ele>171</ele>
        <time>2021-09-08T11:56:27.000Z</time>
      </trkpt>
      <trkpt lat="43.45504" lon="6.44092">
        <ele>171</ele>
        <time>2021-09-08T11:56:31.000Z</time>
      </trkpt>
      <trkpt lat="43.4551" lon="6.44093">
        <ele>170.8</ele>
        <time>2021-09-08T11:56:35.000Z</time>
      </trkpt>
      <trkpt lat="43.45514" lon="6.44096">
        <ele>170.7</ele>
        <time>2021-09-08T11:56:39.000Z</time>
      </trkpt>
      <trkpt lat="43.45519" lon="6.44098">
        <ele>170.6</ele>
        <time>2021-09-08T11:56:43.000Z</time>
      </trkpt>
      <trkpt lat="43.45524" lon="6.44101">
        <ele>170.3</ele>
        <time>2021-09-08T11:56:47.000Z</time>
      </trkpt>
      <trkpt lat="43.45529" lon="6.44103">
        <ele>170.1</ele>
        <time>2021-09-08T11:56:51.000Z</time>
      </trkpt>
      <trkpt lat="43.45534" lon="6.44105">
        <ele>169.9</ele>
        <time>2021-09-08T11:56:55.000Z</time>
      </trkpt>
      <trkpt lat="43.45538" lon="6.44106">
        <ele>169.7</ele>
        <time>2021-09-08T11:56:59.000Z</time>
      </trkpt>
      <trkpt lat="43.45543" lon="6.44108">
        <ele>169.5</ele>
        <time>2021-09-08T11:57:03.000Z</time>
      </trkpt>
      <trkpt lat="43.45548" lon="6.4411">
        <ele>169.2</ele>
        <time>2021-09-08T11:57:07.000Z</time>
      </trkpt>
      <trkpt lat="43.45554" lon="6.44111">
        <ele>168.9</ele>
        <time>2021-09-08T11:57:11.000Z</time>
      </trkpt>
      <trkpt lat="43.45559" lon="6.44113">
        <ele>168.4</ele>
        <time>2021-09-08T11:57:15.000Z</time>
      </trkpt>
      <trkpt lat="43.45564" lon="6.44114">
        <ele>167.8</ele>
        <time>2021-09-08T11:57:19.000Z</time>
      </trkpt>
      <trkpt lat="43.45569" lon="6.44115">
        <ele>167.2</ele>
        <time>2021-09-08T11:57:23.000Z</time>
      </trkpt>
      <trkpt lat="43.45574" lon="6.44116">
        <ele>166.6</ele>
        <time>2021-09-08T11:57:27.000Z</time>
      </trkpt>
      <trkpt lat="43.45579" lon="6.44116">
        <ele>166</ele>
        <time>2021-09-08T11:57:31.000Z</time>
      </trkpt>
      <trkpt lat="43.45584" lon="6.44117">
        <ele>165.4</ele>
        <time>2021-09-08T11:57:36.000Z</time>
      </trkpt>
      <trkpt lat="43.4559" lon="6.44118">
        <ele>164.8</ele>
        <time>2021-09-08T11:57:41.000Z</time>
      </trkpt>
      <trkpt lat="43.45595" lon="6.4412">
        <ele>164.2</ele>
        <time>2021-09-08T11:57:46.000Z</time>
      </trkpt>
      <trkpt lat="43.45601" lon="6.4412">
        <ele>163.6</ele>
        <time>2021-09-08T11:57:51.000Z</time>
      </trkpt>
      <trkpt lat="43.45606" lon="6.4412">
        <ele>163</ele>
        <time>2021-09-08T11:57:56.000Z</time>
      </trkpt>
      <trkpt lat="43.45611" lon="6.44121">
        <ele>162.4</ele>
        <time>2021-09-08T11:58:00.000Z</time>
      </trkpt>
      <trkpt lat="43.45616" lon="6.44122">
        <ele>161.2</ele>
        <time>2021-09-08T11:58:05.000Z</time>
      </trkpt>
      <trkpt lat="43.45621" lon="6.44124">
        <ele>160.3</ele>
        <time>2021-09-08T11:58:09.000Z</time>
      </trkpt>
      <trkpt lat="43.45626" lon="6.44122">
        <ele>159.6</ele>
        <time>2021-09-08T11:58:13.000Z</time>
      </trkpt>
      <trkpt lat="43.4563" lon="6.44121">
        <ele>159.1</ele>
        <time>2021-09-08T11:58:17.000Z</time>
      </trkpt>
      <trkpt lat="43.45635" lon="6.44119">
        <ele>158.4</ele>
        <time>2021-09-08T11:58:21.000Z</time>
      </trkpt>
      <trkpt lat="43.4564" lon="6.44117">
        <ele>157.8</ele>
        <time>2021-09-08T11:58:25.000Z</time>
      </trkpt>
      <trkpt lat="43.45645" lon="6.44115">
        <ele>157.2</ele>
        <time>2021-09-08T11:58:30.000Z</time>
      </trkpt>
      <trkpt lat="43.45649" lon="6.44113">
        <ele>156.8</ele>
        <time>2021-09-08T11:58:35.000Z</time>
      </trkpt>
      <trkpt lat="43.45654" lon="6.4411">
        <ele>156.5</ele>
        <time>2021-09-08T11:58:39.000Z</time>
      </trkpt>
      <trkpt lat="43.45658" lon="6.44108">
        <ele>156.3</ele>
        <time>2021-09-08T11:58:43.000Z</time>
      </trkpt>
      <trkpt lat="43.45663" lon="6.44107">
        <ele>156</ele>
        <time>2021-09-08T11:58:47.000Z</time>
      </trkpt>
      <trkpt lat="43.45668" lon="6.44107">
        <ele>155.6</ele>
        <time>2021-09-08T11:58:51.000Z</time>
      </trkpt>
      <trkpt lat="43.45673" lon="6.44109">
        <ele>155.3</ele>
        <time>2021-09-08T11:58:56.000Z</time>
      </trkpt>
      <trkpt lat="43.45677" lon="6.44112">
        <ele>155</ele>
        <time>2021-09-08T11:59:01.000Z</time>
      </trkpt>
      <trkpt lat="43.45681" lon="6.44116">
        <ele>154.4</ele>
        <time>2021-09-08T11:59:06.000Z</time>
      </trkpt>
      <trkpt lat="43.45685" lon="6.44121">
        <ele>154.2</ele>
        <time>2021-09-08T11:59:12.000Z</time>
      </trkpt>
      <trkpt lat="43.45689" lon="6.44126">
        <ele>154.3</ele>
        <time>2021-09-08T11:59:17.000Z</time>
      </trkpt>
      <trkpt lat="43.45693" lon="6.4413">
        <ele>154.4</ele>
        <time>2021-09-08T11:59:21.000Z</time>
      </trkpt>
      <trkpt lat="43.45696" lon="6.44135">
        <ele>154.4</ele>
        <time>2021-09-08T11:59:25.000Z</time>
      </trkpt>
      <trkpt lat="43.45699" lon="6.4414">
        <ele>154.4</ele>
        <time>2021-09-08T11:59:29.000Z</time>
      </trkpt>
      <trkpt lat="43.45703" lon="6.44145">
        <ele>154.3</ele>
        <time>2021-09-08T11:59:33.000Z</time>
      </trkpt>
      <trkpt lat="43.45705" lon="6.4415">
        <ele>154.3</ele>
        <time>2021-09-08T11:59:37.000Z</time>
      </trkpt>
      <trkpt lat="43.45708" lon="6.44155">
        <ele>154.2</ele>
        <time>2021-09-08T11:59:41.000Z</time>
      </trkpt>
      <trkpt lat="43.45711" lon="6.4416">
        <ele>154.1</ele>
        <time>2021-09-08T11:59:45.000Z</time>
      </trkpt>
      <trkpt lat="43.45714" lon="6.44166">
        <ele>153.9</ele>
        <time>2021-09-08T11:59:49.000Z</time>
      </trkpt>
      <trkpt lat="43.45717" lon="6.44171">
        <ele>153.8</ele>
        <time>2021-09-08T11:59:53.000Z</time>
      </trkpt>
      <trkpt lat="43.45719" lon="6.44177">
        <ele>153.6</ele>
        <time>2021-09-08T11:59:57.000Z</time>
      </trkpt>
      <trkpt lat="43.45722" lon="6.44183">
        <ele>153.5</ele>
        <time>2021-09-08T12:00:01.000Z</time>
      </trkpt>
      <trkpt lat="43.45725" lon="6.44189">
        <ele>153.3</ele>
        <time>2021-09-08T12:00:05.000Z</time>
      </trkpt>
      <trkpt lat="43.45728" lon="6.44195">
        <ele>153.1</ele>
        <time>2021-09-08T12:00:09.000Z</time>
      </trkpt>
      <trkpt lat="43.45732" lon="6.44199">
        <ele>152.9</ele>
        <time>2021-09-08T12:00:13.000Z</time>
      </trkpt>
      <trkpt lat="43.45737" lon="6.44203">
        <ele>152.6</ele>
        <time>2021-09-08T12:00:17.000Z</time>
      </trkpt>
      <trkpt lat="43.45742" lon="6.44205">
        <ele>152.3</ele>
        <time>2021-09-08T12:00:21.000Z</time>
      </trkpt>
      <trkpt lat="43.45747" lon="6.44208">
        <ele>151.9</ele>
        <time>2021-09-08T12:00:26.000Z</time>
      </trkpt>
      <trkpt lat="43.45753" lon="6.44209">
        <ele>151.4</ele>
        <time>2021-09-08T12:00:31.000Z</time>
      </trkpt>
      <trkpt lat="43.45757" lon="6.4421">
        <ele>150.9</ele>
        <time>2021-09-08T12:00:35.000Z</time>
      </trkpt>
      <trkpt lat="43.45762" lon="6.44211">
        <ele>150.5</ele>
        <time>2021-09-08T12:00:40.000Z</time>
      </trkpt>
      <trkpt lat="43.45768" lon="6.44213">
        <ele>149.6</ele>
        <time>2021-09-08T12:00:46.000Z</time>
      </trkpt>
      <trkpt lat="43.45772" lon="6.44215">
        <ele>149.2</ele>
        <time>2021-09-08T12:00:50.000Z</time>
      </trkpt>
      <trkpt lat="43.45778" lon="6.44217">
        <ele>148.7</ele>
        <time>2021-09-08T12:00:55.000Z</time>
      </trkpt>
      <trkpt lat="43.45783" lon="6.44218">
        <ele>148.2</ele>
        <time>2021-09-08T12:01:00.000Z</time>
      </trkpt>
      <trkpt lat="43.45788" lon="6.44218">
        <ele>147.7</ele>
        <time>2021-09-08T12:01:05.000Z</time>
      </trkpt>
      <trkpt lat="43.45794" lon="6.44219">
        <ele>147.4</ele>
        <time>2021-09-08T12:01:09.000Z</time>
      </trkpt>
      <trkpt lat="43.45798" lon="6.44221">
        <ele>147.2</ele>
        <time>2021-09-08T12:01:13.000Z</time>
      </trkpt>
      <trkpt lat="43.45804" lon="6.44222">
        <ele>146.9</ele>
        <time>2021-09-08T12:01:17.000Z</time>
      </trkpt>
      <trkpt lat="43.45809" lon="6.44224">
        <ele>146.6</ele>
        <time>2021-09-08T12:01:21.000Z</time>
      </trkpt>
      <trkpt lat="43.45814" lon="6.44224">
        <ele>146.4</ele>
        <time>2021-09-08T12:01:25.000Z</time>
      </trkpt>
      <trkpt lat="43.45819" lon="6.44226">
        <ele>146.1</ele>
        <time>2021-09-08T12:01:29.000Z</time>
      </trkpt>
      <trkpt lat="43.45824" lon="6.44229">
        <ele>146</ele>
        <time>2021-09-08T12:01:33.000Z</time>
      </trkpt>
      <trkpt lat="43.45829" lon="6.44232">
        <ele>145.8</ele>
        <time>2021-09-08T12:01:37.000Z</time>
      </trkpt>
      <trkpt lat="43.45833" lon="6.44235">
        <ele>145.7</ele>
        <time>2021-09-08T12:01:42.000Z</time>
      </trkpt>
      <trkpt lat="43.45835" lon="6.44241">
        <ele>145.6</ele>
        <time>2021-09-08T12:01:49.000Z</time>
      </trkpt>
      <trkpt lat="43.45834" lon="6.44248">
        <ele>145.5</ele>
        <time>2021-09-08T12:01:56.000Z</time>
      </trkpt>
      <trkpt lat="43.45832" lon="6.44254">
        <ele>145.4</ele>
        <time>2021-09-08T12:02:01.000Z</time>
      </trkpt>
      <trkpt lat="43.45828" lon="6.4426">
        <ele>145.4</ele>
        <time>2021-09-08T12:02:06.000Z</time>
      </trkpt>
      <trkpt lat="43.45825" lon="6.44266">
        <ele>145.4</ele>
        <time>2021-09-08T12:02:11.000Z</time>
      </trkpt>
      <trkpt lat="43.45821" lon="6.4427">
        <ele>145.4</ele>
        <time>2021-09-08T12:02:16.000Z</time>
      </trkpt>
      <trkpt lat="43.45818" lon="6.44276">
        <ele>145.4</ele>
        <time>2021-09-08T12:02:21.000Z</time>
      </trkpt>
      <trkpt lat="43.45815" lon="6.44281">
        <ele>145.5</ele>
        <time>2021-09-08T12:02:27.000Z</time>
      </trkpt>
      <trkpt lat="43.45813" lon="6.44287">
        <ele>145.6</ele>
        <time>2021-09-08T12:02:32.000Z</time>
      </trkpt>
      <trkpt lat="43.45811" lon="6.44294">
        <ele>145.7</ele>
        <time>2021-09-08T12:02:37.000Z</time>
      </trkpt>
      <trkpt lat="43.4581" lon="6.44302">
        <ele>145.6</ele>
        <time>2021-09-08T12:02:41.000Z</time>
      </trkpt>
      <trkpt lat="43.45809" lon="6.44308">
        <ele>145.5</ele>
        <time>2021-09-08T12:02:44.000Z</time>
      </trkpt>
      <trkpt lat="43.45807" lon="6.44315">
        <ele>145.4</ele>
        <time>2021-09-08T12:02:48.000Z</time>
      </trkpt>
      <trkpt lat="43.45805" lon="6.44322">
        <ele>145.3</ele>
        <time>2021-09-08T12:02:52.000Z</time>
      </trkpt>
      <trkpt lat="43.45805" lon="6.4433">
        <ele>145.3</ele>
        <time>2021-09-08T12:02:56.000Z</time>
      </trkpt>
      <trkpt lat="43.45804" lon="6.44337">
        <ele>145.3</ele>
        <time>2021-09-08T12:03:00.000Z</time>
      </trkpt>
      <trkpt lat="43.45802" lon="6.44344">
        <ele>145.2</ele>
        <time>2021-09-08T12:03:04.000Z</time>
      </trkpt>
      <trkpt lat="43.45801" lon="6.4435">
        <ele>145.2</ele>
        <time>2021-09-08T12:03:08.000Z</time>
      </trkpt>
      <trkpt lat="43.45799" lon="6.44357">
        <ele>145.2</ele>
        <time>2021-09-08T12:03:12.000Z</time>
      </trkpt>
      <trkpt lat="43.45797" lon="6.44363">
        <ele>145.2</ele>
        <time>2021-09-08T12:03:16.000Z</time>
      </trkpt>
      <trkpt lat="43.45795" lon="6.44368">
        <ele>145.1</ele>
        <time>2021-09-08T12:03:20.000Z</time>
      </trkpt>
      <trkpt lat="43.45792" lon="6.44374">
        <ele>145.1</ele>
        <time>2021-09-08T12:03:24.000Z</time>
      </trkpt>
      <trkpt lat="43.4579" lon="6.4438">
        <ele>145.1</ele>
        <time>2021-09-08T12:03:28.000Z</time>
      </trkpt>
      <trkpt lat="43.45789" lon="6.44387">
        <ele>145.1</ele>
        <time>2021-09-08T12:03:32.000Z</time>
      </trkpt>
      <trkpt lat="43.45787" lon="6.44393">
        <ele>145</ele>
        <time>2021-09-08T12:03:36.000Z</time>
      </trkpt>
      <trkpt lat="43.45786" lon="6.444">
        <ele>144.9</ele>
        <time>2021-09-08T12:03:40.000Z</time>
      </trkpt>
      <trkpt lat="43.45785" lon="6.44408">
        <ele>144.8</ele>
        <time>2021-09-08T12:03:44.000Z</time>
      </trkpt>
      <trkpt lat="43.45785" lon="6.44415">
        <ele>144.8</ele>
        <time>2021-09-08T12:03:47.000Z</time>
      </trkpt>
      <trkpt lat="43.45784" lon="6.44422">
        <ele>144.5</ele>
        <time>2021-09-08T12:03:51.000Z</time>
      </trkpt>
      <trkpt lat="43.45783" lon="6.44428">
        <ele>144.2</ele>
        <time>2021-09-08T12:03:55.000Z</time>
      </trkpt>
      <trkpt lat="43.45782" lon="6.44434">
        <ele>144</ele>
        <time>2021-09-08T12:03:59.000Z</time>
      </trkpt>
      <trkpt lat="43.45782" lon="6.44441">
        <ele>143.9</ele>
        <time>2021-09-08T12:04:03.000Z</time>
      </trkpt>
      <trkpt lat="43.45782" lon="6.44449">
        <ele>143.8</ele>
        <time>2021-09-08T12:04:08.000Z</time>
      </trkpt>
      <trkpt lat="43.4578" lon="6.44455">
        <ele>143.7</ele>
        <time>2021-09-08T12:04:13.000Z</time>
      </trkpt>
      <trkpt lat="43.4578" lon="6.44463">
        <ele>143.7</ele>
        <time>2021-09-08T12:04:18.000Z</time>
      </trkpt>
      <trkpt lat="43.4578" lon="6.44471">
        <ele>143.5</ele>
        <time>2021-09-08T12:04:22.000Z</time>
      </trkpt>
      <trkpt lat="43.45778" lon="6.44477">
        <ele>143.4</ele>
        <time>2021-09-08T12:04:26.000Z</time>
      </trkpt>
      <trkpt lat="43.45778" lon="6.44484">
        <ele>143.3</ele>
        <time>2021-09-08T12:04:30.000Z</time>
      </trkpt>
      <trkpt lat="43.45777" lon="6.4449">
        <ele>143.1</ele>
        <time>2021-09-08T12:04:34.000Z</time>
      </trkpt>
      <trkpt lat="43.45776" lon="6.44497">
        <ele>142.9</ele>
        <time>2021-09-08T12:04:38.000Z</time>
      </trkpt>
      <trkpt lat="43.45776" lon="6.44505">
        <ele>142.6</ele>
        <time>2021-09-08T12:04:43.000Z</time>
      </trkpt>
      <trkpt lat="43.45775" lon="6.44511">
        <ele>142.4</ele>
        <time>2021-09-08T12:04:47.000Z</time>
      </trkpt>
      <trkpt lat="43.45775" lon="6.44518">
        <ele>142.3</ele>
        <time>2021-09-08T12:04:51.000Z</time>
      </trkpt>
      <trkpt lat="43.45773" lon="6.44524">
        <ele>142.2</ele>
        <time>2021-09-08T12:04:56.000Z</time>
      </trkpt>
      <trkpt lat="43.45773" lon="6.44531">
        <ele>142</ele>
        <time>2021-09-08T12:05:00.000Z</time>
      </trkpt>
      <trkpt lat="43.45771" lon="6.44537">
        <ele>141.5</ele>
        <time>2021-09-08T12:05:05.000Z</time>
      </trkpt>
      <trkpt lat="43.4577" lon="6.44543">
        <ele>141.1</ele>
        <time>2021-09-08T12:05:09.000Z</time>
      </trkpt>
      <trkpt lat="43.45769" lon="6.4455">
        <ele>140.7</ele>
        <time>2021-09-08T12:05:13.000Z</time>
      </trkpt>
      <trkpt lat="43.45769" lon="6.44557">
        <ele>140.5</ele>
        <time>2021-09-08T12:05:17.000Z</time>
      </trkpt>
      <trkpt lat="43.45769" lon="6.44565">
        <ele>140</ele>
        <time>2021-09-08T12:05:22.000Z</time>
      </trkpt>
      <trkpt lat="43.45768" lon="6.44572">
        <ele>139.6</ele>
        <time>2021-09-08T12:05:26.000Z</time>
      </trkpt>
      <trkpt lat="43.45768" lon="6.44579">
        <ele>139.2</ele>
        <time>2021-09-08T12:05:30.000Z</time>
      </trkpt>
      <trkpt lat="43.45769" lon="6.44585">
        <ele>138.7</ele>
        <time>2021-09-08T12:05:35.000Z</time>
      </trkpt>
      <trkpt lat="43.45769" lon="6.44593">
        <ele>138.3</ele>
        <time>2021-09-08T12:05:40.000Z</time>
      </trkpt>
      <trkpt lat="43.45768" lon="6.446">
        <ele>137.9</ele>
        <time>2021-09-08T12:05:44.000Z</time>
      </trkpt>
      <trkpt lat="43.45768" lon="6.44607">
        <ele>137.6</ele>
        <time>2021-09-08T12:05:48.000Z</time>
      </trkpt>
      <trkpt lat="43.45768" lon="6.44614">
        <ele>137</ele>
        <time>2021-09-08T12:05:52.000Z</time>
      </trkpt>
      <trkpt lat="43.45767" lon="6.44621">
        <ele>136.5</ele>
        <time>2021-09-08T12:05:56.000Z</time>
      </trkpt>
      <trkpt lat="43.45767" lon="6.44629">
        <ele>136</ele>
        <time>2021-09-08T12:06:00.000Z</time>
      </trkpt>
      <trkpt lat="43.45768" lon="6.44636">
        <ele>135.5</ele>
        <time>2021-09-08T12:06:04.000Z</time>
      </trkpt>
      <trkpt lat="43.45767" lon="6.44643">
        <ele>134.7</ele>
        <time>2021-09-08T12:06:09.000Z</time>
      </trkpt>
      <trkpt lat="43.45768" lon="6.44652">
        <ele>134</ele>
        <time>2021-09-08T12:06:13.000Z</time>
      </trkpt>
      <trkpt lat="43.45767" lon="6.44658">
        <ele>133.4</ele>
        <time>2021-09-08T12:06:17.000Z</time>
      </trkpt>
      <trkpt lat="43.45768" lon="6.44665">
        <ele>132.5</ele>
        <time>2021-09-08T12:06:22.000Z</time>
      </trkpt>
      <trkpt lat="43.45768" lon="6.44672">
        <ele>132</ele>
        <time>2021-09-08T12:06:26.000Z</time>
      </trkpt>
      <trkpt lat="43.45768" lon="6.44679">
        <ele>131.5</ele>
        <time>2021-09-08T12:06:30.000Z</time>
      </trkpt>
      <trkpt lat="43.45767" lon="6.44686">
        <ele>131.1</ele>
        <time>2021-09-08T12:06:35.000Z</time>
      </trkpt>
      <trkpt lat="43.45766" lon="6.44693">
        <ele>130.5</ele>
        <time>2021-09-08T12:06:40.000Z</time>
      </trkpt>
      <trkpt lat="43.45765" lon="6.447">
        <ele>129.6</ele>
        <time>2021-09-08T12:06:45.000Z</time>
      </trkpt>
      <trkpt lat="43.45763" lon="6.44707">
        <ele>128.9</ele>
        <time>2021-09-08T12:06:49.000Z</time>
      </trkpt>
      <trkpt lat="43.45762" lon="6.44714">
        <ele>128.3</ele>
        <time>2021-09-08T12:06:53.000Z</time>
      </trkpt>
      <trkpt lat="43.45759" lon="6.4472">
        <ele>127.6</ele>
        <time>2021-09-08T12:06:58.000Z</time>
      </trkpt>
      <trkpt lat="43.45757" lon="6.44727">
        <ele>126.6</ele>
        <time>2021-09-08T12:07:03.000Z</time>
      </trkpt>
      <trkpt lat="43.45756" lon="6.44734">
        <ele>126</ele>
        <time>2021-09-08T12:07:07.000Z</time>
      </trkpt>
      <trkpt lat="43.45756" lon="6.44741">
        <ele>125.2</ele>
        <time>2021-09-08T12:07:13.000Z</time>
      </trkpt>
      <trkpt lat="43.45755" lon="6.44749">
        <ele>124.8</ele>
        <time>2021-09-08T12:07:17.000Z</time>
      </trkpt>
      <trkpt lat="43.45754" lon="6.44756">
        <ele>124.5</ele>
        <time>2021-09-08T12:07:21.000Z</time>
      </trkpt>
      <trkpt lat="43.45751" lon="6.44763">
        <ele>124.2</ele>
        <time>2021-09-08T12:07:25.000Z</time>
      </trkpt>
      <trkpt lat="43.4575" lon="6.44769">
        <ele>124</ele>
        <time>2021-09-08T12:07:29.000Z</time>
      </trkpt>
      <trkpt lat="43.45749" lon="6.44776">
        <ele>123.7</ele>
        <time>2021-09-08T12:07:33.000Z</time>
      </trkpt>
      <trkpt lat="43.45748" lon="6.44783">
        <ele>123.5</ele>
        <time>2021-09-08T12:07:37.000Z</time>
      </trkpt>
      <trkpt lat="43.45748" lon="6.4479">
        <ele>123.3</ele>
        <time>2021-09-08T12:07:41.000Z</time>
      </trkpt>
      <trkpt lat="43.45748" lon="6.44798">
        <ele>123.1</ele>
        <time>2021-09-08T12:07:45.000Z</time>
      </trkpt>
      <trkpt lat="43.45747" lon="6.44806">
        <ele>123</ele>
        <time>2021-09-08T12:07:49.000Z</time>
      </trkpt>
      <trkpt lat="43.45747" lon="6.44814">
        <ele>122.8</ele>
        <time>2021-09-08T12:07:53.000Z</time>
      </trkpt>
      <trkpt lat="43.45747" lon="6.4482">
        <ele>122.6</ele>
        <time>2021-09-08T12:07:57.000Z</time>
      </trkpt>
      <trkpt lat="43.45747" lon="6.44828">
        <ele>122.5</ele>
        <time>2021-09-08T12:08:01.000Z</time>
      </trkpt>
      <trkpt lat="43.45746" lon="6.44835">
        <ele>122.4</ele>
        <time>2021-09-08T12:08:05.000Z</time>
      </trkpt>
      <trkpt lat="43.45745" lon="6.44842">
        <ele>122.3</ele>
        <time>2021-09-08T12:08:09.000Z</time>
      </trkpt>
      <trkpt lat="43.45746" lon="6.44849">
        <ele>122.2</ele>
        <time>2021-09-08T12:08:13.000Z</time>
      </trkpt>
      <trkpt lat="43.45747" lon="6.44856">
        <ele>122.2</ele>
        <time>2021-09-08T12:08:17.000Z</time>
      </trkpt>
      <trkpt lat="43.4575" lon="6.44862">
        <ele>122.2</ele>
        <time>2021-09-08T12:08:21.000Z</time>
      </trkpt>
      <trkpt lat="43.45753" lon="6.44868">
        <ele>122.2</ele>
        <time>2021-09-08T12:08:26.000Z</time>
      </trkpt>
      <trkpt lat="43.45757" lon="6.44871">
        <ele>122.4</ele>
        <time>2021-09-08T12:08:30.000Z</time>
      </trkpt>
      <trkpt lat="43.45762" lon="6.44873">
        <ele>122.7</ele>
        <time>2021-09-08T12:08:34.000Z</time>
      </trkpt>
      <trkpt lat="43.45767" lon="6.44876">
        <ele>123</ele>
        <time>2021-09-08T12:08:38.000Z</time>
      </trkpt>
      <trkpt lat="43.45772" lon="6.44878">
        <ele>123.3</ele>
        <time>2021-09-08T12:08:43.000Z</time>
      </trkpt>
      <trkpt lat="43.45777" lon="6.44881">
        <ele>123.7</ele>
        <time>2021-09-08T12:08:48.000Z</time>
      </trkpt>
      <trkpt lat="43.45781" lon="6.44885">
        <ele>124.1</ele>
        <time>2021-09-08T12:08:53.000Z</time>
      </trkpt>
      <trkpt lat="43.45785" lon="6.4489">
        <ele>124.4</ele>
        <time>2021-09-08T12:08:58.000Z</time>
      </trkpt>
      <trkpt lat="43.45788" lon="6.44895">
        <ele>124.9</ele>
        <time>2021-09-08T12:09:03.000Z</time>
      </trkpt>
      <trkpt lat="43.4579" lon="6.44902">
        <ele>125.4</ele>
        <time>2021-09-08T12:09:08.000Z</time>
      </trkpt>
      <trkpt lat="43.45792" lon="6.44908">
        <ele>125.9</ele>
        <time>2021-09-08T12:09:13.000Z</time>
      </trkpt>
      <trkpt lat="43.45793" lon="6.44915">
        <ele>126.2</ele>
        <time>2021-09-08T12:09:17.000Z</time>
      </trkpt>
      <trkpt lat="43.45795" lon="6.4492">
        <ele>126.4</ele>
        <time>2021-09-08T12:09:21.000Z</time>
      </trkpt>
      <trkpt lat="43.45797" lon="6.44926">
        <ele>126.6</ele>
        <time>2021-09-08T12:09:25.000Z</time>
      </trkpt>
      <trkpt lat="43.45798" lon="6.44933">
        <ele>126.8</ele>
        <time>2021-09-08T12:09:30.000Z</time>
      </trkpt>
      <trkpt lat="43.45799" lon="6.4494">
        <ele>126.9</ele>
        <time>2021-09-08T12:09:34.000Z</time>
      </trkpt>
      <trkpt lat="43.45799" lon="6.44946">
        <ele>127</ele>
        <time>2021-09-08T12:09:38.000Z</time>
      </trkpt>
      <trkpt lat="43.45801" lon="6.44953">
        <ele>127</ele>
        <time>2021-09-08T12:09:42.000Z</time>
      </trkpt>
      <trkpt lat="43.45801" lon="6.4496">
        <ele>127.2</ele>
        <time>2021-09-08T12:09:46.000Z</time>
      </trkpt>
      <trkpt lat="43.45802" lon="6.44966">
        <ele>127.3</ele>
        <time>2021-09-08T12:09:50.000Z</time>
      </trkpt>
      <trkpt lat="43.45802" lon="6.44973">
        <ele>127.4</ele>
        <time>2021-09-08T12:09:54.000Z</time>
      </trkpt>
      <trkpt lat="43.45801" lon="6.44981">
        <ele>127.4</ele>
        <time>2021-09-08T12:09:58.000Z</time>
      </trkpt>
      <trkpt lat="43.45801" lon="6.44987">
        <ele>127.4</ele>
        <time>2021-09-08T12:10:02.000Z</time>
      </trkpt>
      <trkpt lat="43.45801" lon="6.44994">
        <ele>127.4</ele>
        <time>2021-09-08T12:10:06.000Z</time>
      </trkpt>
      <trkpt lat="43.45801" lon="6.45001">
        <ele>127.5</ele>
        <time>2021-09-08T12:10:10.000Z</time>
      </trkpt>
      <trkpt lat="43.45801" lon="6.45008">
        <ele>127.6</ele>
        <time>2021-09-08T12:10:14.000Z</time>
      </trkpt>
      <trkpt lat="43.45801" lon="6.45014">
        <ele>127.6</ele>
        <time>2021-09-08T12:10:17.000Z</time>
      </trkpt>
      <trkpt lat="43.458" lon="6.45021">
        <ele>127.6</ele>
        <time>2021-09-08T12:10:21.000Z</time>
      </trkpt>
      <trkpt lat="43.458" lon="6.45028">
        <ele>127.6</ele>
        <time>2021-09-08T12:10:25.000Z</time>
      </trkpt>
      <trkpt lat="43.458" lon="6.45034">
        <ele>127.4</ele>
        <time>2021-09-08T12:10:29.000Z</time>
      </trkpt>
      <trkpt lat="43.45801" lon="6.45041">
        <ele>127.2</ele>
        <time>2021-09-08T12:10:33.000Z</time>
      </trkpt>
      <trkpt lat="43.45801" lon="6.45048">
        <ele>126.8</ele>
        <time>2021-09-08T12:10:37.000Z</time>
      </trkpt>
      <trkpt lat="43.45802" lon="6.45055">
        <ele>126.3</ele>
        <time>2021-09-08T12:10:41.000Z</time>
      </trkpt>
      <trkpt lat="43.45802" lon="6.45062">
        <ele>125.8</ele>
        <time>2021-09-08T12:10:45.000Z</time>
      </trkpt>
      <trkpt lat="43.45805" lon="6.45068">
        <ele>125.3</ele>
        <time>2021-09-08T12:10:50.000Z</time>
      </trkpt>
      <trkpt lat="43.45809" lon="6.4507">
        <ele>124.4</ele>
        <time>2021-09-08T12:11:08.000Z</time>
      </trkpt>
      <trkpt lat="43.45811" lon="6.45076">
        <ele>124</ele>
        <time>2021-09-08T12:11:43.000Z</time>
      </trkpt>
      <trkpt lat="43.45809" lon="6.45082">
        <ele>123.9</ele>
        <time>2021-09-08T12:11:54.000Z</time>
      </trkpt>
      <trkpt lat="43.45809" lon="6.45089">
        <ele>124.1</ele>
        <time>2021-09-08T12:12:00.000Z</time>
      </trkpt>
      <trkpt lat="43.45808" lon="6.45095">
        <ele>124.2</ele>
        <time>2021-09-08T12:12:05.000Z</time>
      </trkpt>
      <trkpt lat="43.45807" lon="6.45103">
        <ele>124.3</ele>
        <time>2021-09-08T12:12:10.000Z</time>
      </trkpt>
      <trkpt lat="43.45806" lon="6.45109">
        <ele>124.6</ele>
        <time>2021-09-08T12:12:14.000Z</time>
      </trkpt>
      <trkpt lat="43.45806" lon="6.45116">
        <ele>124.8</ele>
        <time>2021-09-08T12:12:18.000Z</time>
      </trkpt>
      <trkpt lat="43.45805" lon="6.45123">
        <ele>125.1</ele>
        <time>2021-09-08T12:12:22.000Z</time>
      </trkpt>
      <trkpt lat="43.45805" lon="6.45129">
        <ele>125.3</ele>
        <time>2021-09-08T12:12:26.000Z</time>
      </trkpt>
      <trkpt lat="43.45804" lon="6.45136">
        <ele>125.4</ele>
        <time>2021-09-08T12:12:30.000Z</time>
      </trkpt>
      <trkpt lat="43.45803" lon="6.45143">
        <ele>125.6</ele>
        <time>2021-09-08T12:12:34.000Z</time>
      </trkpt>
      <trkpt lat="43.45803" lon="6.45149">
        <ele>125.9</ele>
        <time>2021-09-08T12:12:38.000Z</time>
      </trkpt>
      <trkpt lat="43.45802" lon="6.45156">
        <ele>126.1</ele>
        <time>2021-09-08T12:12:42.000Z</time>
      </trkpt>
      <trkpt lat="43.458" lon="6.45164">
        <ele>126.3</ele>
        <time>2021-09-08T12:12:47.000Z</time>
      </trkpt>
      <trkpt lat="43.458" lon="6.4517">
        <ele>126.4</ele>
        <time>2021-09-08T12:12:51.000Z</time>
      </trkpt>
      <trkpt lat="43.45799" lon="6.45177">
        <ele>126.5</ele>
        <time>2021-09-08T12:12:56.000Z</time>
      </trkpt>
      <trkpt lat="43.45799" lon="6.45184">
        <ele>126.6</ele>
        <time>2021-09-08T12:13:00.000Z</time>
      </trkpt>
      <trkpt lat="43.45798" lon="6.4519">
        <ele>126.8</ele>
        <time>2021-09-08T12:13:04.000Z</time>
      </trkpt>
      <trkpt lat="43.45798" lon="6.45196">
        <ele>127.1</ele>
        <time>2021-09-08T12:13:08.000Z</time>
      </trkpt>
      <trkpt lat="43.45797" lon="6.45202">
        <ele>127.3</ele>
        <time>2021-09-08T12:13:12.000Z</time>
      </trkpt>
      <trkpt lat="43.45796" lon="6.45209">
        <ele>127.5</ele>
        <time>2021-09-08T12:13:16.000Z</time>
      </trkpt>
      <trkpt lat="43.45796" lon="6.45216">
        <ele>127.7</ele>
        <time>2021-09-08T12:13:20.000Z</time>
      </trkpt>
      <trkpt lat="43.45796" lon="6.45223">
        <ele>128</ele>
        <time>2021-09-08T12:13:24.000Z</time>
      </trkpt>
      <trkpt lat="43.45796" lon="6.4523">
        <ele>128.2</ele>
        <time>2021-09-08T12:13:28.000Z</time>
      </trkpt>
      <trkpt lat="43.45795" lon="6.45237">
        <ele>128.5</ele>
        <time>2021-09-08T12:13:33.000Z</time>
      </trkpt>
      <trkpt lat="43.45794" lon="6.45244">
        <ele>128.7</ele>
        <time>2021-09-08T12:13:38.000Z</time>
      </trkpt>
      <trkpt lat="43.45794" lon="6.45252">
        <ele>129</ele>
        <time>2021-09-08T12:13:43.000Z</time>
      </trkpt>
      <trkpt lat="43.45793" lon="6.45258">
        <ele>129.2</ele>
        <time>2021-09-08T12:13:47.000Z</time>
      </trkpt>
      <trkpt lat="43.45793" lon="6.45265">
        <ele>129.5</ele>
        <time>2021-09-08T12:13:51.000Z</time>
      </trkpt>
      <trkpt lat="43.45792" lon="6.45272">
        <ele>129.8</ele>
        <time>2021-09-08T12:13:55.000Z</time>
      </trkpt>
      <trkpt lat="43.45792" lon="6.4528">
        <ele>129.9</ele>
        <time>2021-09-08T12:13:59.000Z</time>
      </trkpt>
      <trkpt lat="43.45792" lon="6.45287">
        <ele>130.1</ele>
        <time>2021-09-08T12:14:03.000Z</time>
      </trkpt>
      <trkpt lat="43.45791" lon="6.45294">
        <ele>130.2</ele>
        <time>2021-09-08T12:14:08.000Z</time>
      </trkpt>
      <trkpt lat="43.4579" lon="6.453">
        <ele>130.2</ele>
        <time>2021-09-08T12:14:12.000Z</time>
      </trkpt>
      <trkpt lat="43.45789" lon="6.45307">
        <ele>130.2</ele>
        <time>2021-09-08T12:14:16.000Z</time>
      </trkpt>
      <trkpt lat="43.45788" lon="6.45313">
        <ele>130.2</ele>
        <time>2021-09-08T12:14:20.000Z</time>
      </trkpt>
      <trkpt lat="43.45787" lon="6.45321">
        <ele>130.2</ele>
        <time>2021-09-08T12:14:24.000Z</time>
      </trkpt>
      <trkpt lat="43.45786" lon="6.45328">
        <ele>130.3</ele>
        <time>2021-09-08T12:14:28.000Z</time>
      </trkpt>
      <trkpt lat="43.45785" lon="6.45334">
        <ele>130.3</ele>
        <time>2021-09-08T12:14:32.000Z</time>
      </trkpt>
      <trkpt lat="43.45785" lon="6.45341">
        <ele>130.4</ele>
        <time>2021-09-08T12:14:36.000Z</time>
      </trkpt>
      <trkpt lat="43.45785" lon="6.45348">
        <ele>130.4</ele>
        <time>2021-09-08T12:14:40.000Z</time>
      </trkpt>
      <trkpt lat="43.45785" lon="6.45356">
        <ele>130.5</ele>
        <time>2021-09-08T12:14:44.000Z</time>
      </trkpt>
      <trkpt lat="43.45785" lon="6.45364">
        <ele>130.5</ele>
        <time>2021-09-08T12:14:48.000Z</time>
      </trkpt>
      <trkpt lat="43.45786" lon="6.45371">
        <ele>130.6</ele>
        <time>2021-09-08T12:14:52.000Z</time>
      </trkpt>
      <trkpt lat="43.45787" lon="6.45377">
        <ele>130.6</ele>
        <time>2021-09-08T12:14:56.000Z</time>
      </trkpt>
      <trkpt lat="43.45787" lon="6.45384">
        <ele>130.7</ele>
        <time>2021-09-08T12:15:00.000Z</time>
      </trkpt>
      <trkpt lat="43.45787" lon="6.45391">
        <ele>130.7</ele>
        <time>2021-09-08T12:15:05.000Z</time>
      </trkpt>
      <trkpt lat="43.45787" lon="6.45398">
        <ele>130.8</ele>
        <time>2021-09-08T12:15:10.000Z</time>
      </trkpt>
      <trkpt lat="43.45785" lon="6.45405">
        <ele>130.8</ele>
        <time>2021-09-08T12:15:15.000Z</time>
      </trkpt>
      <trkpt lat="43.45784" lon="6.45413">
        <ele>130.9</ele>
        <time>2021-09-08T12:15:20.000Z</time>
      </trkpt>
      <trkpt lat="43.45784" lon="6.45419">
        <ele>131</ele>
        <time>2021-09-08T12:15:25.000Z</time>
      </trkpt>
      <trkpt lat="43.45783" lon="6.45426">
        <ele>131.3</ele>
        <time>2021-09-08T12:15:30.000Z</time>
      </trkpt>
      <trkpt lat="43.45782" lon="6.45433">
        <ele>131.6</ele>
        <time>2021-09-08T12:15:34.000Z</time>
      </trkpt>
      <trkpt lat="43.45783" lon="6.4544">
        <ele>131.8</ele>
        <time>2021-09-08T12:15:38.000Z</time>
      </trkpt>
      <trkpt lat="43.45783" lon="6.45447">
        <ele>132</ele>
        <time>2021-09-08T12:15:42.000Z</time>
      </trkpt>
      <trkpt lat="43.45783" lon="6.45453">
        <ele>132.1</ele>
        <time>2021-09-08T12:15:45.000Z</time>
      </trkpt>
      <trkpt lat="43.45784" lon="6.4546">
        <ele>132.2</ele>
        <time>2021-09-08T12:15:48.000Z</time>
      </trkpt>
      <trkpt lat="43.45784" lon="6.45467">
        <ele>132.3</ele>
        <time>2021-09-08T12:15:52.000Z</time>
      </trkpt>
      <trkpt lat="43.45785" lon="6.45473">
        <ele>132.4</ele>
        <time>2021-09-08T12:15:56.000Z</time>
      </trkpt>
      <trkpt lat="43.45785" lon="6.4548">
        <ele>132.4</ele>
        <time>2021-09-08T12:16:00.000Z</time>
      </trkpt>
      <trkpt lat="43.45784" lon="6.45487">
        <ele>132.3</ele>
        <time>2021-09-08T12:16:06.000Z</time>
      </trkpt>
      <trkpt lat="43.45784" lon="6.45495">
        <ele>132.2</ele>
        <time>2021-09-08T12:16:11.000Z</time>
      </trkpt>
      <trkpt lat="43.45784" lon="6.45501">
        <ele>132.2</ele>
        <time>2021-09-08T12:16:15.000Z</time>
      </trkpt>
      <trkpt lat="43.45784" lon="6.45509">
        <ele>132</ele>
        <time>2021-09-08T12:16:19.000Z</time>
      </trkpt>
      <trkpt lat="43.45782" lon="6.45514">
        <ele>132</ele>
        <time>2021-09-08T12:16:24.000Z</time>
      </trkpt>
      <trkpt lat="43.4578" lon="6.45522">
        <ele>132.2</ele>
        <time>2021-09-08T12:16:29.000Z</time>
      </trkpt>
      <trkpt lat="43.45779" lon="6.45529">
        <ele>132.2</ele>
        <time>2021-09-08T12:16:33.000Z</time>
      </trkpt>
      <trkpt lat="43.45778" lon="6.45537">
        <ele>132.2</ele>
        <time>2021-09-08T12:16:37.000Z</time>
      </trkpt>
      <trkpt lat="43.45777" lon="6.45544">
        <ele>132.3</ele>
        <time>2021-09-08T12:16:41.000Z</time>
      </trkpt>
      <trkpt lat="43.45777" lon="6.45551">
        <ele>132.3</ele>
        <time>2021-09-08T12:16:45.000Z</time>
      </trkpt>
      <trkpt lat="43.45775" lon="6.45558">
        <ele>132.3</ele>
        <time>2021-09-08T12:16:49.000Z</time>
      </trkpt>
      <trkpt lat="43.45775" lon="6.45565">
        <ele>132.3</ele>
        <time>2021-09-08T12:16:53.000Z</time>
      </trkpt>
      <trkpt lat="43.45775" lon="6.45571">
        <ele>132.3</ele>
        <time>2021-09-08T12:16:57.000Z</time>
      </trkpt>
      <trkpt lat="43.45774" lon="6.45579">
        <ele>132.4</ele>
        <time>2021-09-08T12:17:02.000Z</time>
      </trkpt>
      <trkpt lat="43.45773" lon="6.45586">
        <ele>132.5</ele>
        <time>2021-09-08T12:17:06.000Z</time>
      </trkpt>
      <trkpt lat="43.45772" lon="6.45593">
        <ele>132.6</ele>
        <time>2021-09-08T12:17:10.000Z</time>
      </trkpt>
      <trkpt lat="43.4577" lon="6.45599">
        <ele>132.6</ele>
        <time>2021-09-08T12:17:15.000Z</time>
      </trkpt>
      <trkpt lat="43.45767" lon="6.45606">
        <ele>132.7</ele>
        <time>2021-09-08T12:17:20.000Z</time>
      </trkpt>
      <trkpt lat="43.45765" lon="6.45612">
        <ele>132.7</ele>
        <time>2021-09-08T12:17:24.000Z</time>
      </trkpt>
      <trkpt lat="43.45764" lon="6.45619">
        <ele>132.9</ele>
        <time>2021-09-08T12:17:30.000Z</time>
      </trkpt>
      <trkpt lat="43.45763" lon="6.45626">
        <ele>133</ele>
        <time>2021-09-08T12:17:33.000Z</time>
      </trkpt>
      <trkpt lat="43.45764" lon="6.45633">
        <ele>133.2</ele>
        <time>2021-09-08T12:17:37.000Z</time>
      </trkpt>
      <trkpt lat="43.45764" lon="6.45641">
        <ele>133.3</ele>
        <time>2021-09-08T12:17:41.000Z</time>
      </trkpt>
      <trkpt lat="43.45765" lon="6.45647">
        <ele>133.4</ele>
        <time>2021-09-08T12:17:44.000Z</time>
      </trkpt>
      <trkpt lat="43.45766" lon="6.45655">
        <ele>133.4</ele>
        <time>2021-09-08T12:17:48.000Z</time>
      </trkpt>
      <trkpt lat="43.45767" lon="6.45661">
        <ele>133.5</ele>
        <time>2021-09-08T12:17:52.000Z</time>
      </trkpt>
      <trkpt lat="43.45768" lon="6.45668">
        <ele>133.5</ele>
        <time>2021-09-08T12:17:55.000Z</time>
      </trkpt>
      <trkpt lat="43.45769" lon="6.45676">
        <ele>133.6</ele>
        <time>2021-09-08T12:17:59.000Z</time>
      </trkpt>
      <trkpt lat="43.45769" lon="6.45684">
        <ele>133.7</ele>
        <time>2021-09-08T12:18:03.000Z</time>
      </trkpt>
      <trkpt lat="43.45769" lon="6.4569">
        <ele>133.7</ele>
        <time>2021-09-08T12:18:06.000Z</time>
      </trkpt>
      <trkpt lat="43.4577" lon="6.45697">
        <ele>133.8</ele>
        <time>2021-09-08T12:18:10.000Z</time>
      </trkpt>
      <trkpt lat="43.45771" lon="6.45705">
        <ele>133.8</ele>
        <time>2021-09-08T12:18:14.000Z</time>
      </trkpt>
      <trkpt lat="43.45771" lon="6.45712">
        <ele>133.9</ele>
        <time>2021-09-08T12:18:18.000Z</time>
      </trkpt>
      <trkpt lat="43.45771" lon="6.4572">
        <ele>134</ele>
        <time>2021-09-08T12:18:22.000Z</time>
      </trkpt>
      <trkpt lat="43.45772" lon="6.45726">
        <ele>134.1</ele>
        <time>2021-09-08T12:18:26.000Z</time>
      </trkpt>
      <trkpt lat="43.45772" lon="6.45733">
        <ele>134.3</ele>
        <time>2021-09-08T12:18:30.000Z</time>
      </trkpt>
      <trkpt lat="43.45772" lon="6.45741">
        <ele>134.4</ele>
        <time>2021-09-08T12:18:34.000Z</time>
      </trkpt>
      <trkpt lat="43.45772" lon="6.45749">
        <ele>134.3</ele>
        <time>2021-09-08T12:18:39.000Z</time>
      </trkpt>
      <trkpt lat="43.45772" lon="6.45756">
        <ele>134.2</ele>
        <time>2021-09-08T12:18:43.000Z</time>
      </trkpt>
      <trkpt lat="43.45771" lon="6.45763">
        <ele>134.2</ele>
        <time>2021-09-08T12:18:48.000Z</time>
      </trkpt>
      <trkpt lat="43.45772" lon="6.45769">
        <ele>134.1</ele>
        <time>2021-09-08T12:18:52.000Z</time>
      </trkpt>
      <trkpt lat="43.45772" lon="6.45776">
        <ele>134.1</ele>
        <time>2021-09-08T12:18:56.000Z</time>
      </trkpt>
      <trkpt lat="43.45773" lon="6.45782">
        <ele>134.1</ele>
        <time>2021-09-08T12:18:59.000Z</time>
      </trkpt>
      <trkpt lat="43.45775" lon="6.4579">
        <ele>134</ele>
        <time>2021-09-08T12:19:03.000Z</time>
      </trkpt>
      <trkpt lat="43.45776" lon="6.45798">
        <ele>133.9</ele>
        <time>2021-09-08T12:19:07.000Z</time>
      </trkpt>
      <trkpt lat="43.45776" lon="6.45805">
        <ele>133.7</ele>
        <time>2021-09-08T12:19:11.000Z</time>
      </trkpt>
      <trkpt lat="43.45775" lon="6.45812">
        <ele>133.6</ele>
        <time>2021-09-08T12:19:15.000Z</time>
      </trkpt>
      <trkpt lat="43.45775" lon="6.45818">
        <ele>133.3</ele>
        <time>2021-09-08T12:19:19.000Z</time>
      </trkpt>
      <trkpt lat="43.45773" lon="6.45824">
        <ele>133.1</ele>
        <time>2021-09-08T12:19:23.000Z</time>
      </trkpt>
      <trkpt lat="43.45772" lon="6.45831">
        <ele>133.2</ele>
        <time>2021-09-08T12:19:27.000Z</time>
      </trkpt>
      <trkpt lat="43.45773" lon="6.45839">
        <ele>133.4</ele>
        <time>2021-09-08T12:19:31.000Z</time>
      </trkpt>
      <trkpt lat="43.45775" lon="6.45845">
        <ele>133.6</ele>
        <time>2021-09-08T12:19:35.000Z</time>
      </trkpt>
      <trkpt lat="43.45776" lon="6.45851">
        <ele>133.7</ele>
        <time>2021-09-08T12:19:39.000Z</time>
      </trkpt>
      <trkpt lat="43.45778" lon="6.45859">
        <ele>133.8</ele>
        <time>2021-09-08T12:19:43.000Z</time>
      </trkpt>
      <trkpt lat="43.4578" lon="6.45865">
        <ele>133.8</ele>
        <time>2021-09-08T12:19:48.000Z</time>
      </trkpt>
      <trkpt lat="43.45781" lon="6.45873">
        <ele>133.8</ele>
        <time>2021-09-08T12:19:54.000Z</time>
      </trkpt>
      <trkpt lat="43.45782" lon="6.45881">
        <ele>133.8</ele>
        <time>2021-09-08T12:19:59.000Z</time>
      </trkpt>
      <trkpt lat="43.45781" lon="6.45889">
        <ele>133.9</ele>
        <time>2021-09-08T12:20:04.000Z</time>
      </trkpt>
      <trkpt lat="43.4578" lon="6.45895">
        <ele>134</ele>
        <time>2021-09-08T12:20:09.000Z</time>
      </trkpt>
      <trkpt lat="43.4578" lon="6.45902">
        <ele>134.1</ele>
        <time>2021-09-08T12:20:13.000Z</time>
      </trkpt>
      <trkpt lat="43.45779" lon="6.45909">
        <ele>134.3</ele>
        <time>2021-09-08T12:20:17.000Z</time>
      </trkpt>
      <trkpt lat="43.4578" lon="6.45916">
        <ele>134.4</ele>
        <time>2021-09-08T12:20:21.000Z</time>
      </trkpt>
      <trkpt lat="43.4578" lon="6.45924">
        <ele>134.6</ele>
        <time>2021-09-08T12:20:25.000Z</time>
      </trkpt>
      <trkpt lat="43.4578" lon="6.45931">
        <ele>134.8</ele>
        <time>2021-09-08T12:20:29.000Z</time>
      </trkpt>
      <trkpt lat="43.45779" lon="6.45937">
        <ele>135</ele>
        <time>2021-09-08T12:20:33.000Z</time>
      </trkpt>
      <trkpt lat="43.45779" lon="6.45944">
        <ele>135.2</ele>
        <time>2021-09-08T12:20:37.000Z</time>
      </trkpt>
      <trkpt lat="43.4578" lon="6.45951">
        <ele>135.3</ele>
        <time>2021-09-08T12:20:41.000Z</time>
      </trkpt>
      <trkpt lat="43.45781" lon="6.45958">
        <ele>135.4</ele>
        <time>2021-09-08T12:20:44.000Z</time>
      </trkpt>
      <trkpt lat="43.45782" lon="6.45964">
        <ele>135.4</ele>
        <time>2021-09-08T12:20:47.000Z</time>
      </trkpt>
      <trkpt lat="43.45783" lon="6.45971">
        <ele>135.5</ele>
        <time>2021-09-08T12:20:51.000Z</time>
      </trkpt>
      <trkpt lat="43.45785" lon="6.45978">
        <ele>135.4</ele>
        <time>2021-09-08T12:20:55.000Z</time>
      </trkpt>
      <trkpt lat="43.45788" lon="6.45983">
        <ele>135.2</ele>
        <time>2021-09-08T12:20:59.000Z</time>
      </trkpt>
      <trkpt lat="43.45792" lon="6.45989">
        <ele>135.1</ele>
        <time>2021-09-08T12:21:03.000Z</time>
      </trkpt>
      <trkpt lat="43.45795" lon="6.45994">
        <ele>135</ele>
        <time>2021-09-08T12:21:08.000Z</time>
      </trkpt>
      <trkpt lat="43.45798" lon="6.45999">
        <ele>135</ele>
        <time>2021-09-08T12:21:11.000Z</time>
      </trkpt>
      <trkpt lat="43.45799" lon="6.46005">
        <ele>134.9</ele>
        <time>2021-09-08T12:21:15.000Z</time>
      </trkpt>
      <trkpt lat="43.45799" lon="6.46011">
        <ele>134.9</ele>
        <time>2021-09-08T12:21:19.000Z</time>
      </trkpt>
      <trkpt lat="43.45799" lon="6.46019">
        <ele>134.9</ele>
        <time>2021-09-08T12:21:24.000Z</time>
      </trkpt>
      <trkpt lat="43.45799" lon="6.46025">
        <ele>134.9</ele>
        <time>2021-09-08T12:21:30.000Z</time>
      </trkpt>
      <trkpt lat="43.458" lon="6.46031">
        <ele>134.8</ele>
        <time>2021-09-08T12:21:34.000Z</time>
      </trkpt>
      <trkpt lat="43.458" lon="6.46039">
        <ele>134.7</ele>
        <time>2021-09-08T12:21:38.000Z</time>
      </trkpt>
      <trkpt lat="43.45801" lon="6.46045">
        <ele>134.8</ele>
        <time>2021-09-08T12:21:42.000Z</time>
      </trkpt>
      <trkpt lat="43.45802" lon="6.46052">
        <ele>134.8</ele>
        <time>2021-09-08T12:21:46.000Z</time>
      </trkpt>
      <trkpt lat="43.45804" lon="6.46058">
        <ele>134.8</ele>
        <time>2021-09-08T12:21:50.000Z</time>
      </trkpt>
      <trkpt lat="43.45806" lon="6.46066">
        <ele>134.8</ele>
        <time>2021-09-08T12:21:54.000Z</time>
      </trkpt>
      <trkpt lat="43.45807" lon="6.46073">
        <ele>134.8</ele>
        <time>2021-09-08T12:21:57.000Z</time>
      </trkpt>
      <trkpt lat="43.45808" lon="6.46079">
        <ele>134.8</ele>
        <time>2021-09-08T12:22:00.000Z</time>
      </trkpt>
      <trkpt lat="43.45809" lon="6.46087">
        <ele>134.8</ele>
        <time>2021-09-08T12:22:05.000Z</time>
      </trkpt>
      <trkpt lat="43.45809" lon="6.46093">
        <ele>134.9</ele>
        <time>2021-09-08T12:22:09.000Z</time>
      </trkpt>
      <trkpt lat="43.4581" lon="6.461">
        <ele>135</ele>
        <time>2021-09-08T12:22:13.000Z</time>
      </trkpt>
      <trkpt lat="43.45811" lon="6.46107">
        <ele>135.3</ele>
        <time>2021-09-08T12:22:17.000Z</time>
      </trkpt>
      <trkpt lat="43.45812" lon="6.46114">
        <ele>135.5</ele>
        <time>2021-09-08T12:22:21.000Z</time>
      </trkpt>
      <trkpt lat="43.45814" lon="6.46121">
        <ele>135.7</ele>
        <time>2021-09-08T12:22:25.000Z</time>
      </trkpt>
      <trkpt lat="43.45815" lon="6.46126">
        <ele>135.7</ele>
        <time>2021-09-08T12:22:29.000Z</time>
      </trkpt>
      <trkpt lat="43.45816" lon="6.46133">
        <ele>135.7</ele>
        <time>2021-09-08T12:22:33.000Z</time>
      </trkpt>
      <trkpt lat="43.45817" lon="6.4614">
        <ele>135.7</ele>
        <time>2021-09-08T12:22:36.000Z</time>
      </trkpt>
      <trkpt lat="43.45818" lon="6.46147">
        <ele>135.5</ele>
        <time>2021-09-08T12:22:40.000Z</time>
      </trkpt>
      <trkpt lat="43.45818" lon="6.46154">
        <ele>135.4</ele>
        <time>2021-09-08T12:22:44.000Z</time>
      </trkpt>
      <trkpt lat="43.45817" lon="6.4616">
        <ele>135.3</ele>
        <time>2021-09-08T12:22:48.000Z</time>
      </trkpt>
      <trkpt lat="43.45819" lon="6.46168">
        <ele>135.2</ele>
        <time>2021-09-08T12:22:52.000Z</time>
      </trkpt>
      <trkpt lat="43.4582" lon="6.46174">
        <ele>135.1</ele>
        <time>2021-09-08T12:22:56.000Z</time>
      </trkpt>
      <trkpt lat="43.45823" lon="6.46181">
        <ele>135.1</ele>
        <time>2021-09-08T12:23:00.000Z</time>
      </trkpt>
      <trkpt lat="43.45824" lon="6.46188">
        <ele>135</ele>
        <time>2021-09-08T12:23:04.000Z</time>
      </trkpt>
      <trkpt lat="43.45826" lon="6.46195">
        <ele>134.8</ele>
        <time>2021-09-08T12:23:08.000Z</time>
      </trkpt>
      <trkpt lat="43.45829" lon="6.46202">
        <ele>134.5</ele>
        <time>2021-09-08T12:23:12.000Z</time>
      </trkpt>
      <trkpt lat="43.4583" lon="6.46209">
        <ele>134.2</ele>
        <time>2021-09-08T12:23:16.000Z</time>
      </trkpt>
      <trkpt lat="43.45831" lon="6.46216">
        <ele>133.7</ele>
        <time>2021-09-08T12:23:20.000Z</time>
      </trkpt>
      <trkpt lat="43.45833" lon="6.46223">
        <ele>133.2</ele>
        <time>2021-09-08T12:23:24.000Z</time>
      </trkpt>
      <trkpt lat="43.45834" lon="6.46231">
        <ele>132.8</ele>
        <time>2021-09-08T12:23:28.000Z</time>
      </trkpt>
      <trkpt lat="43.45834" lon="6.46237">
        <ele>132.4</ele>
        <time>2021-09-08T12:23:32.000Z</time>
      </trkpt>
      <trkpt lat="43.45833" lon="6.46245">
        <ele>132</ele>
        <time>2021-09-08T12:23:36.000Z</time>
      </trkpt>
      <trkpt lat="43.45834" lon="6.46252">
        <ele>131.4</ele>
        <time>2021-09-08T12:23:40.000Z</time>
      </trkpt>
      <trkpt lat="43.45832" lon="6.46258">
        <ele>130.9</ele>
        <time>2021-09-08T12:23:44.000Z</time>
      </trkpt>
      <trkpt lat="43.45833" lon="6.46264">
        <ele>130.6</ele>
        <time>2021-09-08T12:23:48.000Z</time>
      </trkpt>
      <trkpt lat="43.45833" lon="6.46271">
        <ele>130.3</ele>
        <time>2021-09-08T12:23:52.000Z</time>
      </trkpt>
      <trkpt lat="43.45834" lon="6.46278">
        <ele>130.1</ele>
        <time>2021-09-08T12:23:56.000Z</time>
      </trkpt>
      <trkpt lat="43.45834" lon="6.46285">
        <ele>130</ele>
        <time>2021-09-08T12:24:00.000Z</time>
      </trkpt>
      <trkpt lat="43.45835" lon="6.46292">
        <ele>129.9</ele>
        <time>2021-09-08T12:24:03.000Z</time>
      </trkpt>
      <trkpt lat="43.45836" lon="6.463">
        <ele>129.8</ele>
        <time>2021-09-08T12:24:07.000Z</time>
      </trkpt>
      <trkpt lat="43.45836" lon="6.46308">
        <ele>129.7</ele>
        <time>2021-09-08T12:24:11.000Z</time>
      </trkpt>
      <trkpt lat="43.45835" lon="6.46314">
        <ele>129.6</ele>
        <time>2021-09-08T12:24:15.000Z</time>
      </trkpt>
      <trkpt lat="43.45834" lon="6.46322">
        <ele>129.6</ele>
        <time>2021-09-08T12:24:20.000Z</time>
      </trkpt>
      <trkpt lat="43.45833" lon="6.46329">
        <ele>129.5</ele>
        <time>2021-09-08T12:24:25.000Z</time>
      </trkpt>
      <trkpt lat="43.45832" lon="6.46336">
        <ele>129.4</ele>
        <time>2021-09-08T12:24:29.000Z</time>
      </trkpt>
      <trkpt lat="43.45831" lon="6.46342">
        <ele>129.4</ele>
        <time>2021-09-08T12:24:33.000Z</time>
      </trkpt>
      <trkpt lat="43.45829" lon="6.46349">
        <ele>129.3</ele>
        <time>2021-09-08T12:24:38.000Z</time>
      </trkpt>
      <trkpt lat="43.45827" lon="6.46356">
        <ele>129.5</ele>
        <time>2021-09-08T12:24:42.000Z</time>
      </trkpt>
      <trkpt lat="43.45825" lon="6.46363">
        <ele>129.6</ele>
        <time>2021-09-08T12:24:46.000Z</time>
      </trkpt>
      <trkpt lat="43.45824" lon="6.4637">
        <ele>129.7</ele>
        <time>2021-09-08T12:24:50.000Z</time>
      </trkpt>
      <trkpt lat="43.45823" lon="6.46377">
        <ele>129.8</ele>
        <time>2021-09-08T12:24:54.000Z</time>
      </trkpt>
      <trkpt lat="43.45822" lon="6.46384">
        <ele>129.9</ele>
        <time>2021-09-08T12:24:59.000Z</time>
      </trkpt>
      <trkpt lat="43.45824" lon="6.46391">
        <ele>130</ele>
        <time>2021-09-08T12:25:03.000Z</time>
      </trkpt>
      <trkpt lat="43.45825" lon="6.46398">
        <ele>129.9</ele>
        <time>2021-09-08T12:25:07.000Z</time>
      </trkpt>
      <trkpt lat="43.45825" lon="6.46404">
        <ele>129.8</ele>
        <time>2021-09-08T12:25:11.000Z</time>
      </trkpt>
      <trkpt lat="43.45824" lon="6.4641">
        <ele>129.8</ele>
        <time>2021-09-08T12:25:15.000Z</time>
      </trkpt>
      <trkpt lat="43.45824" lon="6.46417">
        <ele>129.8</ele>
        <time>2021-09-08T12:25:19.000Z</time>
      </trkpt>
      <trkpt lat="43.45823" lon="6.46423">
        <ele>129.8</ele>
        <time>2021-09-08T12:25:23.000Z</time>
      </trkpt>
      <trkpt lat="43.45821" lon="6.4643">
        <ele>129.8</ele>
        <time>2021-09-08T12:25:28.000Z</time>
      </trkpt>
      <trkpt lat="43.45822" lon="6.46437">
        <ele>129.8</ele>
        <time>2021-09-08T12:25:33.000Z</time>
      </trkpt>
      <trkpt lat="43.45824" lon="6.46443">
        <ele>129.8</ele>
        <time>2021-09-08T12:25:37.000Z</time>
      </trkpt>
      <trkpt lat="43.45825" lon="6.4645">
        <ele>129.8</ele>
        <time>2021-09-08T12:25:41.000Z</time>
      </trkpt>
      <trkpt lat="43.45828" lon="6.46457">
        <ele>129.6</ele>
        <time>2021-09-08T12:25:45.000Z</time>
      </trkpt>
      <trkpt lat="43.4583" lon="6.46464">
        <ele>129.4</ele>
        <time>2021-09-08T12:25:49.000Z</time>
      </trkpt>
      <trkpt lat="43.45833" lon="6.4647">
        <ele>129.1</ele>
        <time>2021-09-08T12:25:53.000Z</time>
      </trkpt>
      <trkpt lat="43.45836" lon="6.46476">
        <ele>128.8</ele>
        <time>2021-09-08T12:25:57.000Z</time>
      </trkpt>
      <trkpt lat="43.45839" lon="6.46481">
        <ele>128.6</ele>
        <time>2021-09-08T12:26:01.000Z</time>
      </trkpt>
      <trkpt lat="43.45842" lon="6.46487">
        <ele>128.3</ele>
        <time>2021-09-08T12:26:05.000Z</time>
      </trkpt>
      <trkpt lat="43.45845" lon="6.46492">
        <ele>128.1</ele>
        <time>2021-09-08T12:26:08.000Z</time>
      </trkpt>
      <trkpt lat="43.45848" lon="6.46499">
        <ele>127.9</ele>
        <time>2021-09-08T12:26:13.000Z</time>
      </trkpt>
      <trkpt lat="43.4585" lon="6.46506">
        <ele>127.6</ele>
        <time>2021-09-08T12:26:17.000Z</time>
      </trkpt>
      <trkpt lat="43.45852" lon="6.46513">
        <ele>127.4</ele>
        <time>2021-09-08T12:26:21.000Z</time>
      </trkpt>
      <trkpt lat="43.45854" lon="6.4652">
        <ele>127.3</ele>
        <time>2021-09-08T12:26:25.000Z</time>
      </trkpt>
      <trkpt lat="43.45856" lon="6.46526">
        <ele>127.2</ele>
        <time>2021-09-08T12:26:29.000Z</time>
      </trkpt>
      <trkpt lat="43.45858" lon="6.46532">
        <ele>127.1</ele>
        <time>2021-09-08T12:26:33.000Z</time>
      </trkpt>
      <trkpt lat="43.4586" lon="6.46538">
        <ele>127.1</ele>
        <time>2021-09-08T12:26:36.000Z</time>
      </trkpt>
      <trkpt lat="43.45862" lon="6.46545">
        <ele>127</ele>
        <time>2021-09-08T12:26:40.000Z</time>
      </trkpt>
      <trkpt lat="43.45864" lon="6.46552">
        <ele>127</ele>
        <time>2021-09-08T12:26:44.000Z</time>
      </trkpt>
      <trkpt lat="43.45867" lon="6.46558">
        <ele>127</ele>
        <time>2021-09-08T12:26:48.000Z</time>
      </trkpt>
      <trkpt lat="43.4587" lon="6.46564">
        <ele>127</ele>
        <time>2021-09-08T12:26:52.000Z</time>
      </trkpt>
      <trkpt lat="43.45872" lon="6.4657">
        <ele>127</ele>
        <time>2021-09-08T12:26:56.000Z</time>
      </trkpt>
      <trkpt lat="43.45874" lon="6.46576">
        <ele>127</ele>
        <time>2021-09-08T12:27:00.000Z</time>
      </trkpt>
      <trkpt lat="43.45876" lon="6.46581">
        <ele>127</ele>
        <time>2021-09-08T12:27:04.000Z</time>
      </trkpt>
      <trkpt lat="43.45878" lon="6.46588">
        <ele>127</ele>
        <time>2021-09-08T12:27:09.000Z</time>
      </trkpt>
      <trkpt lat="43.4588" lon="6.46594">
        <ele>127.1</ele>
        <time>2021-09-08T12:27:14.000Z</time>
      </trkpt>
      <trkpt lat="43.45882" lon="6.46601">
        <ele>127.3</ele>
        <time>2021-09-08T12:27:19.000Z</time>
      </trkpt>
      <trkpt lat="43.45884" lon="6.46608">
        <ele>127.5</ele>
        <time>2021-09-08T12:27:24.000Z</time>
      </trkpt>
      <trkpt lat="43.45884" lon="6.46614">
        <ele>127.6</ele>
        <time>2021-09-08T12:27:29.000Z</time>
      </trkpt>
      <trkpt lat="43.45885" lon="6.46621">
        <ele>127.6</ele>
        <time>2021-09-08T12:27:34.000Z</time>
      </trkpt>
      <trkpt lat="43.45885" lon="6.46628">
        <ele>127.7</ele>
        <time>2021-09-08T12:27:44.000Z</time>
      </trkpt>
      <trkpt lat="43.45886" lon="6.46634">
        <ele>127.8</ele>
        <time>2021-09-08T12:28:03.000Z</time>
      </trkpt>
      <trkpt lat="43.45891" lon="6.46637">
        <ele>127.6</ele>
        <time>2021-09-08T12:28:33.000Z</time>
      </trkpt>
      <trkpt lat="43.45893" lon="6.46642">
        <ele>128.1</ele>
        <time>2021-09-08T12:29:38.000Z</time>
      </trkpt>
      <trkpt lat="43.45894" lon="6.46649">
        <ele>128.2</ele>
        <time>2021-09-08T12:29:45.000Z</time>
      </trkpt>
      <trkpt lat="43.45894" lon="6.46655">
        <ele>128.3</ele>
        <time>2021-09-08T12:29:54.000Z</time>
      </trkpt>
      <trkpt lat="43.45897" lon="6.4666">
        <ele>128.4</ele>
        <time>2021-09-08T12:29:59.000Z</time>
      </trkpt>
      <trkpt lat="43.45901" lon="6.46666">
        <ele>128.5</ele>
        <time>2021-09-08T12:30:04.000Z</time>
      </trkpt>
      <trkpt lat="43.45904" lon="6.46671">
        <ele>128.5</ele>
        <time>2021-09-08T12:30:08.000Z</time>
      </trkpt>
      <trkpt lat="43.45908" lon="6.46677">
        <ele>128.7</ele>
        <time>2021-09-08T12:30:13.000Z</time>
      </trkpt>
      <trkpt lat="43.45911" lon="6.46682">
        <ele>128.8</ele>
        <time>2021-09-08T12:30:17.000Z</time>
      </trkpt>
      <trkpt lat="43.45914" lon="6.46686">
        <ele>129</ele>
        <time>2021-09-08T12:30:21.000Z</time>
      </trkpt>
      <trkpt lat="43.45919" lon="6.4669">
        <ele>129.2</ele>
        <time>2021-09-08T12:30:25.000Z</time>
      </trkpt>
      <trkpt lat="43.45923" lon="6.46694">
        <ele>129.6</ele>
        <time>2021-09-08T12:30:30.000Z</time>
      </trkpt>
      <trkpt lat="43.45927" lon="6.46699">
        <ele>129.9</ele>
        <time>2021-09-08T12:30:34.000Z</time>
      </trkpt>
      <trkpt lat="43.45931" lon="6.46703">
        <ele>130.1</ele>
        <time>2021-09-08T12:30:38.000Z</time>
      </trkpt>
      <trkpt lat="43.45934" lon="6.46709">
        <ele>130.3</ele>
        <time>2021-09-08T12:30:42.000Z</time>
      </trkpt>
      <trkpt lat="43.45938" lon="6.46714">
        <ele>130.6</ele>
        <time>2021-09-08T12:30:46.000Z</time>
      </trkpt>
      <trkpt lat="43.45941" lon="6.46719">
        <ele>130.9</ele>
        <time>2021-09-08T12:30:50.000Z</time>
      </trkpt>
      <trkpt lat="43.45945" lon="6.46724">
        <ele>131.3</ele>
        <time>2021-09-08T12:30:55.000Z</time>
      </trkpt>
      <trkpt lat="43.45948" lon="6.4673">
        <ele>131.8</ele>
        <time>2021-09-08T12:31:01.000Z</time>
      </trkpt>
      <trkpt lat="43.45951" lon="6.46735">
        <ele>132.1</ele>
        <time>2021-09-08T12:31:05.000Z</time>
      </trkpt>
      <trkpt lat="43.45955" lon="6.46741">
        <ele>132.4</ele>
        <time>2021-09-08T12:31:10.000Z</time>
      </trkpt>
      <trkpt lat="43.4596" lon="6.46746">
        <ele>132.7</ele>
        <time>2021-09-08T12:31:14.000Z</time>
      </trkpt>
      <trkpt lat="43.45964" lon="6.4675">
        <ele>133</ele>
        <time>2021-09-08T12:31:18.000Z</time>
      </trkpt>
      <trkpt lat="43.45967" lon="6.46754">
        <ele>133.1</ele>
        <time>2021-09-08T12:31:22.000Z</time>
      </trkpt>
      <trkpt lat="43.45972" lon="6.46757">
        <ele>133.4</ele>
        <time>2021-09-08T12:31:26.000Z</time>
      </trkpt>
      <trkpt lat="43.45976" lon="6.4676">
        <ele>133.7</ele>
        <time>2021-09-08T12:31:30.000Z</time>
      </trkpt>
      <trkpt lat="43.45981" lon="6.46763">
        <ele>133.9</ele>
        <time>2021-09-08T12:31:34.000Z</time>
      </trkpt>
      <trkpt lat="43.45985" lon="6.46766">
        <ele>134.3</ele>
        <time>2021-09-08T12:31:38.000Z</time>
      </trkpt>
      <trkpt lat="43.45989" lon="6.46771">
        <ele>134.8</ele>
        <time>2021-09-08T12:31:43.000Z</time>
      </trkpt>
      <trkpt lat="43.45992" lon="6.46777">
        <ele>135.1</ele>
        <time>2021-09-08T12:31:48.000Z</time>
      </trkpt>
      <trkpt lat="43.45995" lon="6.46783">
        <ele>135.3</ele>
        <time>2021-09-08T12:31:53.000Z</time>
      </trkpt>
      <trkpt lat="43.45998" lon="6.46788">
        <ele>135.3</ele>
        <time>2021-09-08T12:31:57.000Z</time>
      </trkpt>
      <trkpt lat="43.46" lon="6.46794">
        <ele>135.3</ele>
        <time>2021-09-08T12:32:01.000Z</time>
      </trkpt>
      <trkpt lat="43.46002" lon="6.46801">
        <ele>135.3</ele>
        <time>2021-09-08T12:32:06.000Z</time>
      </trkpt>
      <trkpt lat="43.46005" lon="6.46807">
        <ele>135.3</ele>
        <time>2021-09-08T12:32:10.000Z</time>
      </trkpt>
      <trkpt lat="43.46007" lon="6.46812">
        <ele>135.3</ele>
        <time>2021-09-08T12:32:14.000Z</time>
      </trkpt>
      <trkpt lat="43.4601" lon="6.46819">
        <ele>135.2</ele>
        <time>2021-09-08T12:32:18.000Z</time>
      </trkpt>
      <trkpt lat="43.46011" lon="6.46826">
        <ele>135</ele>
        <time>2021-09-08T12:32:23.000Z</time>
      </trkpt>
      <trkpt lat="43.46011" lon="6.46833">
        <ele>134.8</ele>
        <time>2021-09-08T12:32:27.000Z</time>
      </trkpt>
      <trkpt lat="43.4601" lon="6.4684">
        <ele>134.4</ele>
        <time>2021-09-08T12:32:32.000Z</time>
      </trkpt>
      <trkpt lat="43.46009" lon="6.46848">
        <ele>133.8</ele>
        <time>2021-09-08T12:32:37.000Z</time>
      </trkpt>
      <trkpt lat="43.46008" lon="6.46854">
        <ele>133.3</ele>
        <time>2021-09-08T12:32:41.000Z</time>
      </trkpt>
      <trkpt lat="43.46009" lon="6.46862">
        <ele>133</ele>
        <time>2021-09-08T12:32:45.000Z</time>
      </trkpt>
      <trkpt lat="43.4601" lon="6.46869">
        <ele>132.7</ele>
        <time>2021-09-08T12:32:49.000Z</time>
      </trkpt>
      <trkpt lat="43.46012" lon="6.46875">
        <ele>132.4</ele>
        <time>2021-09-08T12:32:53.000Z</time>
      </trkpt>
      <trkpt lat="43.46012" lon="6.46882">
        <ele>132.1</ele>
        <time>2021-09-08T12:32:57.000Z</time>
      </trkpt>
      <trkpt lat="43.46013" lon="6.4689">
        <ele>131.9</ele>
        <time>2021-09-08T12:33:01.000Z</time>
      </trkpt>
      <trkpt lat="43.46013" lon="6.46897">
        <ele>131.8</ele>
        <time>2021-09-08T12:33:05.000Z</time>
      </trkpt>
      <trkpt lat="43.46014" lon="6.46904">
        <ele>131.5</ele>
        <time>2021-09-08T12:33:09.000Z</time>
      </trkpt>
      <trkpt lat="43.46013" lon="6.46911">
        <ele>131.3</ele>
        <time>2021-09-08T12:33:13.000Z</time>
      </trkpt>
      <trkpt lat="43.46013" lon="6.46918">
        <ele>131.2</ele>
        <time>2021-09-08T12:33:17.000Z</time>
      </trkpt>
      <trkpt lat="43.46012" lon="6.46925">
        <ele>131</ele>
        <time>2021-09-08T12:33:21.000Z</time>
      </trkpt>
      <trkpt lat="43.46013" lon="6.46932">
        <ele>130.9</ele>
        <time>2021-09-08T12:33:25.000Z</time>
      </trkpt>
      <trkpt lat="43.46013" lon="6.46939">
        <ele>130.9</ele>
        <time>2021-09-08T12:33:29.000Z</time>
      </trkpt>
      <trkpt lat="43.46014" lon="6.46946">
        <ele>130.8</ele>
        <time>2021-09-08T12:33:33.000Z</time>
      </trkpt>
      <trkpt lat="43.46015" lon="6.46953">
        <ele>130.6</ele>
        <time>2021-09-08T12:33:37.000Z</time>
      </trkpt>
      <trkpt lat="43.46016" lon="6.4696">
        <ele>130.2</ele>
        <time>2021-09-08T12:33:41.000Z</time>
      </trkpt>
      <trkpt lat="43.46016" lon="6.46967">
        <ele>129.9</ele>
        <time>2021-09-08T12:33:45.000Z</time>
      </trkpt>
      <trkpt lat="43.46018" lon="6.46972">
        <ele>128.9</ele>
        <time>2021-09-08T12:33:57.000Z</time>
      </trkpt>
      <trkpt lat="43.46017" lon="6.46978">
        <ele>128.3</ele>
        <time>2021-09-08T12:34:12.000Z</time>
      </trkpt>
      <trkpt lat="43.46015" lon="6.46983">
        <ele>127.6</ele>
        <time>2021-09-08T12:34:39.000Z</time>
      </trkpt>
      <trkpt lat="43.4601" lon="6.46983">
        <ele>127.6</ele>
        <time>2021-09-08T12:35:04.000Z</time>
      </trkpt>
      <trkpt lat="43.46004" lon="6.46982">
        <ele>127.6</ele>
        <time>2021-09-08T12:35:09.000Z</time>
      </trkpt>
      <trkpt lat="43.46" lon="6.4698">
        <ele>127.5</ele>
        <time>2021-09-08T12:35:13.000Z</time>
      </trkpt>
      <trkpt lat="43.45995" lon="6.46978">
        <ele>127.4</ele>
        <time>2021-09-08T12:35:17.000Z</time>
      </trkpt>
      <trkpt lat="43.45991" lon="6.46973">
        <ele>127.3</ele>
        <time>2021-09-08T12:35:22.000Z</time>
      </trkpt>
      <trkpt lat="43.45987" lon="6.46968">
        <ele>127.1</ele>
        <time>2021-09-08T12:35:26.000Z</time>
      </trkpt>
      <trkpt lat="43.45984" lon="6.46964">
        <ele>127</ele>
        <time>2021-09-08T12:35:30.000Z</time>
      </trkpt>
      <trkpt lat="43.45979" lon="6.46959">
        <ele>126.8</ele>
        <time>2021-09-08T12:35:34.000Z</time>
      </trkpt>
      <trkpt lat="43.45976" lon="6.46955">
        <ele>126.6</ele>
        <time>2021-09-08T12:35:38.000Z</time>
      </trkpt>
      <trkpt lat="43.45972" lon="6.46951">
        <ele>126.3</ele>
        <time>2021-09-08T12:35:42.000Z</time>
      </trkpt>
      <trkpt lat="43.45968" lon="6.46946">
        <ele>126.2</ele>
        <time>2021-09-08T12:35:46.000Z</time>
      </trkpt>
      <trkpt lat="43.45964" lon="6.46942">
        <ele>126</ele>
        <time>2021-09-08T12:35:50.000Z</time>
      </trkpt>
      <trkpt lat="43.45959" lon="6.46945">
        <ele>125.8</ele>
        <time>2021-09-08T12:35:55.000Z</time>
      </trkpt>
      <trkpt lat="43.45958" lon="6.46951">
        <ele>125.6</ele>
        <time>2021-09-08T12:35:59.000Z</time>
      </trkpt>
      <trkpt lat="43.45958" lon="6.46958">
        <ele>125.5</ele>
        <time>2021-09-08T12:36:03.000Z</time>
      </trkpt>
      <trkpt lat="43.45958" lon="6.46965">
        <ele>125.4</ele>
        <time>2021-09-08T12:36:07.000Z</time>
      </trkpt>
      <trkpt lat="43.45958" lon="6.46973">
        <ele>125.3</ele>
        <time>2021-09-08T12:36:11.000Z</time>
      </trkpt>
      <trkpt lat="43.45958" lon="6.4698">
        <ele>125.3</ele>
        <time>2021-09-08T12:36:15.000Z</time>
      </trkpt>
      <trkpt lat="43.45959" lon="6.46987">
        <ele>125.2</ele>
        <time>2021-09-08T12:36:19.000Z</time>
      </trkpt>
      <trkpt lat="43.45959" lon="6.46994">
        <ele>125.2</ele>
        <time>2021-09-08T12:36:23.000Z</time>
      </trkpt>
      <trkpt lat="43.4596" lon="6.47002">
        <ele>125.1</ele>
        <time>2021-09-08T12:36:27.000Z</time>
      </trkpt>
      <trkpt lat="43.4596" lon="6.47009">
        <ele>125.1</ele>
        <time>2021-09-08T12:36:31.000Z</time>
      </trkpt>
      <trkpt lat="43.45961" lon="6.47017">
        <ele>125.2</ele>
        <time>2021-09-08T12:36:35.000Z</time>
      </trkpt>
      <trkpt lat="43.45961" lon="6.47024">
        <ele>125.2</ele>
        <time>2021-09-08T12:36:39.000Z</time>
      </trkpt>
      <trkpt lat="43.45961" lon="6.47031">
        <ele>125.3</ele>
        <time>2021-09-08T12:36:43.000Z</time>
      </trkpt>
      <trkpt lat="43.45962" lon="6.47037">
        <ele>125.3</ele>
        <time>2021-09-08T12:36:46.000Z</time>
      </trkpt>
      <trkpt lat="43.45962" lon="6.47044">
        <ele>125.4</ele>
        <time>2021-09-08T12:36:50.000Z</time>
      </trkpt>
      <trkpt lat="43.45963" lon="6.47052">
        <ele>125.3</ele>
        <time>2021-09-08T12:36:54.000Z</time>
      </trkpt>
      <trkpt lat="43.45963" lon="6.47059">
        <ele>125.2</ele>
        <time>2021-09-08T12:36:58.000Z</time>
      </trkpt>
      <trkpt lat="43.45964" lon="6.47066">
        <ele>125.2</ele>
        <time>2021-09-08T12:37:02.000Z</time>
      </trkpt>
      <trkpt lat="43.45965" lon="6.47072">
        <ele>125.2</ele>
        <time>2021-09-08T12:37:06.000Z</time>
      </trkpt>
      <trkpt lat="43.45966" lon="6.47079">
        <ele>125.1</ele>
        <time>2021-09-08T12:37:10.000Z</time>
      </trkpt>
      <trkpt lat="43.45967" lon="6.47087">
        <ele>125.1</ele>
        <time>2021-09-08T12:37:14.000Z</time>
      </trkpt>
      <trkpt lat="43.45967" lon="6.47093">
        <ele>125.1</ele>
        <time>2021-09-08T12:37:18.000Z</time>
      </trkpt>
      <trkpt lat="43.45966" lon="6.471">
        <ele>125.1</ele>
        <time>2021-09-08T12:37:22.000Z</time>
      </trkpt>
      <trkpt lat="43.45965" lon="6.47107">
        <ele>125.1</ele>
        <time>2021-09-08T12:37:26.000Z</time>
      </trkpt>
      <trkpt lat="43.45965" lon="6.47114">
        <ele>125</ele>
        <time>2021-09-08T12:37:30.000Z</time>
      </trkpt>
      <trkpt lat="43.45963" lon="6.47121">
        <ele>125</ele>
        <time>2021-09-08T12:37:34.000Z</time>
      </trkpt>
      <trkpt lat="43.45962" lon="6.47128">
        <ele>125</ele>
        <time>2021-09-08T12:37:38.000Z</time>
      </trkpt>
      <trkpt lat="43.45961" lon="6.47134">
        <ele>124.9</ele>
        <time>2021-09-08T12:37:42.000Z</time>
      </trkpt>
      <trkpt lat="43.4596" lon="6.47142">
        <ele>124.9</ele>
        <time>2021-09-08T12:37:46.000Z</time>
      </trkpt>
      <trkpt lat="43.45959" lon="6.47149">
        <ele>124.8</ele>
        <time>2021-09-08T12:37:50.000Z</time>
      </trkpt>
      <trkpt lat="43.45958" lon="6.47156">
        <ele>124.8</ele>
        <time>2021-09-08T12:37:54.000Z</time>
      </trkpt>
      <trkpt lat="43.45956" lon="6.47163">
        <ele>124.8</ele>
        <time>2021-09-08T12:37:58.000Z</time>
      </trkpt>
      <trkpt lat="43.45955" lon="6.4717">
        <ele>124.7</ele>
        <time>2021-09-08T12:38:02.000Z</time>
      </trkpt>
      <trkpt lat="43.45954" lon="6.47178">
        <ele>124.7</ele>
        <time>2021-09-08T12:38:06.000Z</time>
      </trkpt>
      <trkpt lat="43.45953" lon="6.47185">
        <ele>124.7</ele>
        <time>2021-09-08T12:38:10.000Z</time>
      </trkpt>
      <trkpt lat="43.45952" lon="6.47193">
        <ele>124.7</ele>
        <time>2021-09-08T12:38:14.000Z</time>
      </trkpt>
      <trkpt lat="43.45951" lon="6.47199">
        <ele>124.6</ele>
        <time>2021-09-08T12:38:18.000Z</time>
      </trkpt>
      <trkpt lat="43.4595" lon="6.47205">
        <ele>124.4</ele>
        <time>2021-09-08T12:38:22.000Z</time>
      </trkpt>
      <trkpt lat="43.45949" lon="6.47213">
        <ele>124.3</ele>
        <time>2021-09-08T12:38:26.000Z</time>
      </trkpt>
      <trkpt lat="43.45949" lon="6.4722">
        <ele>124.3</ele>
        <time>2021-09-08T12:38:30.000Z</time>
      </trkpt>
      <trkpt lat="43.45949" lon="6.47227">
        <ele>124.2</ele>
        <time>2021-09-08T12:38:34.000Z</time>
      </trkpt>
      <trkpt lat="43.45948" lon="6.47234">
        <ele>124.2</ele>
        <time>2021-09-08T12:38:38.000Z</time>
      </trkpt>
      <trkpt lat="43.45949" lon="6.4724">
        <ele>124.2</ele>
        <time>2021-09-08T12:38:41.000Z</time>
      </trkpt>
      <trkpt lat="43.45949" lon="6.47248">
        <ele>124.1</ele>
        <time>2021-09-08T12:38:45.000Z</time>
      </trkpt>
      <trkpt lat="43.4595" lon="6.47256">
        <ele>124.1</ele>
        <time>2021-09-08T12:38:49.000Z</time>
      </trkpt>
      <trkpt lat="43.45953" lon="6.47262">
        <ele>124</ele>
        <time>2021-09-08T12:38:53.000Z</time>
      </trkpt>
      <trkpt lat="43.45955" lon="6.47268">
        <ele>123.8</ele>
        <time>2021-09-08T12:38:57.000Z</time>
      </trkpt>
      <trkpt lat="43.45959" lon="6.47273">
        <ele>123.6</ele>
        <time>2021-09-08T12:39:01.000Z</time>
      </trkpt>
      <trkpt lat="43.45962" lon="6.47279">
        <ele>123.5</ele>
        <time>2021-09-08T12:39:05.000Z</time>
      </trkpt>
      <trkpt lat="43.45965" lon="6.47285">
        <ele>123.4</ele>
        <time>2021-09-08T12:39:09.000Z</time>
      </trkpt>
      <trkpt lat="43.45967" lon="6.47292">
        <ele>123.4</ele>
        <time>2021-09-08T12:39:13.000Z</time>
      </trkpt>
      <trkpt lat="43.45969" lon="6.47299">
        <ele>123.3</ele>
        <time>2021-09-08T12:39:17.000Z</time>
      </trkpt>
      <trkpt lat="43.45971" lon="6.47306">
        <ele>123.3</ele>
        <time>2021-09-08T12:39:21.000Z</time>
      </trkpt>
      <trkpt lat="43.45973" lon="6.47313">
        <ele>123.2</ele>
        <time>2021-09-08T12:39:25.000Z</time>
      </trkpt>
      <trkpt lat="43.45974" lon="6.47319">
        <ele>123.1</ele>
        <time>2021-09-08T12:39:28.000Z</time>
      </trkpt>
      <trkpt lat="43.45977" lon="6.47326">
        <ele>123</ele>
        <time>2021-09-08T12:39:32.000Z</time>
      </trkpt>
      <trkpt lat="43.4598" lon="6.47331">
        <ele>122.9</ele>
        <time>2021-09-08T12:39:36.000Z</time>
      </trkpt>
      <trkpt lat="43.45982" lon="6.47338">
        <ele>122.9</ele>
        <time>2021-09-08T12:39:40.000Z</time>
      </trkpt>
      <trkpt lat="43.45985" lon="6.47343">
        <ele>122.9</ele>
        <time>2021-09-08T12:39:44.000Z</time>
      </trkpt>
      <trkpt lat="43.45988" lon="6.47349">
        <ele>122.8</ele>
        <time>2021-09-08T12:39:48.000Z</time>
      </trkpt>
      <trkpt lat="43.45991" lon="6.47356">
        <ele>122.8</ele>
        <time>2021-09-08T12:39:52.000Z</time>
      </trkpt>
      <trkpt lat="43.45993" lon="6.47362">
        <ele>122.8</ele>
        <time>2021-09-08T12:39:56.000Z</time>
      </trkpt>
      <trkpt lat="43.45995" lon="6.47369">
        <ele>122.8</ele>
        <time>2021-09-08T12:40:00.000Z</time>
      </trkpt>
      <trkpt lat="43.45998" lon="6.47376">
        <ele>122.8</ele>
        <time>2021-09-08T12:40:04.000Z</time>
      </trkpt>
      <trkpt lat="43.46" lon="6.47383">
        <ele>122.7</ele>
        <time>2021-09-08T12:40:08.000Z</time>
      </trkpt>
      <trkpt lat="43.46002" lon="6.4739">
        <ele>122.7</ele>
        <time>2021-09-08T12:40:12.000Z</time>
      </trkpt>
      <trkpt lat="43.46004" lon="6.47396">
        <ele>122.7</ele>
        <time>2021-09-08T12:40:16.000Z</time>
      </trkpt>
      <trkpt lat="43.46006" lon="6.47403">
        <ele>122.8</ele>
        <time>2021-09-08T12:40:20.000Z</time>
      </trkpt>
      <trkpt lat="43.46008" lon="6.47409">
        <ele>122.8</ele>
        <time>2021-09-08T12:40:24.000Z</time>
      </trkpt>
      <trkpt lat="43.4601" lon="6.47416">
        <ele>122.9</ele>
        <time>2021-09-08T12:40:28.000Z</time>
      </trkpt>
      <trkpt lat="43.46012" lon="6.47423">
        <ele>122.8</ele>
        <time>2021-09-08T12:40:32.000Z</time>
      </trkpt>
      <trkpt lat="43.46014" lon="6.4743">
        <ele>122.7</ele>
        <time>2021-09-08T12:40:36.000Z</time>
      </trkpt>
      <trkpt lat="43.46016" lon="6.47436">
        <ele>122.7</ele>
        <time>2021-09-08T12:40:40.000Z</time>
      </trkpt>
      <trkpt lat="43.46018" lon="6.47443">
        <ele>122.8</ele>
        <time>2021-09-08T12:40:44.000Z</time>
      </trkpt>
      <trkpt lat="43.46021" lon="6.4745">
        <ele>122.9</ele>
        <time>2021-09-08T12:40:48.000Z</time>
      </trkpt>
      <trkpt lat="43.46024" lon="6.47455">
        <ele>122.9</ele>
        <time>2021-09-08T12:40:52.000Z</time>
      </trkpt>
      <trkpt lat="43.46026" lon="6.47461">
        <ele>123</ele>
        <time>2021-09-08T12:40:56.000Z</time>
      </trkpt>
      <trkpt lat="43.46029" lon="6.47467">
        <ele>122.9</ele>
        <time>2021-09-08T12:41:00.000Z</time>
      </trkpt>
      <trkpt lat="43.46029" lon="6.47475">
        <ele>122.6</ele>
        <time>2021-09-08T12:41:05.000Z</time>
      </trkpt>
      <trkpt lat="43.46031" lon="6.47482">
        <ele>122.3</ele>
        <time>2021-09-08T12:41:10.000Z</time>
      </trkpt>
      <trkpt lat="43.46034" lon="6.47487">
        <ele>121.5</ele>
        <time>2021-09-08T12:41:21.000Z</time>
      </trkpt>
      <trkpt lat="43.46035" lon="6.47494">
        <ele>120.3</ele>
        <time>2021-09-08T12:42:22.000Z</time>
      </trkpt>
      <trkpt lat="43.46036" lon="6.475">
        <ele>120</ele>
        <time>2021-09-08T12:42:29.000Z</time>
      </trkpt>
      <trkpt lat="43.46039" lon="6.47506">
        <ele>119.8</ele>
        <time>2021-09-08T12:42:35.000Z</time>
      </trkpt>
      <trkpt lat="43.46042" lon="6.47511">
        <ele>119.4</ele>
        <time>2021-09-08T12:42:39.000Z</time>
      </trkpt>
      <trkpt lat="43.46044" lon="6.47517">
        <ele>119.1</ele>
        <time>2021-09-08T12:42:43.000Z</time>
      </trkpt>
      <trkpt lat="43.46048" lon="6.47522">
        <ele>118.7</ele>
        <time>2021-09-08T12:42:47.000Z</time>
      </trkpt>
      <trkpt lat="43.46052" lon="6.47527">
        <ele>118.3</ele>
        <time>2021-09-08T12:42:51.000Z</time>
      </trkpt>
      <trkpt lat="43.46055" lon="6.47532">
        <ele>117.8</ele>
        <time>2021-09-08T12:42:55.000Z</time>
      </trkpt>
      <trkpt lat="43.46059" lon="6.47537">
        <ele>117.2</ele>
        <time>2021-09-08T12:42:59.000Z</time>
      </trkpt>
      <trkpt lat="43.46063" lon="6.47542">
        <ele>116.6</ele>
        <time>2021-09-08T12:43:03.000Z</time>
      </trkpt>
      <trkpt lat="43.46066" lon="6.47546">
        <ele>116.3</ele>
        <time>2021-09-08T12:43:06.000Z</time>
      </trkpt>
      <trkpt lat="43.4607" lon="6.47552">
        <ele>115.9</ele>
        <time>2021-09-08T12:43:10.000Z</time>
      </trkpt>
      <trkpt lat="43.46074" lon="6.47557">
        <ele>115.7</ele>
        <time>2021-09-08T12:43:14.000Z</time>
      </trkpt>
      <trkpt lat="43.46077" lon="6.47561">
        <ele>115.5</ele>
        <time>2021-09-08T12:43:18.000Z</time>
      </trkpt>
      <trkpt lat="43.46081" lon="6.47566">
        <ele>115.2</ele>
        <time>2021-09-08T12:43:22.000Z</time>
      </trkpt>
      <trkpt lat="43.46085" lon="6.4757">
        <ele>115</ele>
        <time>2021-09-08T12:43:26.000Z</time>
      </trkpt>
      <trkpt lat="43.4609" lon="6.47573">
        <ele>114.8</ele>
        <time>2021-09-08T12:43:30.000Z</time>
      </trkpt>
      <trkpt lat="43.46095" lon="6.47575">
        <ele>114.7</ele>
        <time>2021-09-08T12:43:34.000Z</time>
      </trkpt>
      <trkpt lat="43.46099" lon="6.47576">
        <ele>114.5</ele>
        <time>2021-09-08T12:43:39.000Z</time>
      </trkpt>
      <trkpt lat="43.46102" lon="6.47582">
        <ele>114.2</ele>
        <time>2021-09-08T12:43:50.000Z</time>
      </trkpt>
      <trkpt lat="43.46105" lon="6.47576">
        <ele>114</ele>
        <time>2021-09-08T12:44:17.000Z</time>
      </trkpt>
      <trkpt lat="43.46102" lon="6.47581">
        <ele>114</ele>
        <time>2021-09-08T12:45:18.000Z</time>
      </trkpt>
      <trkpt lat="43.46102" lon="6.47574">
        <ele>113.9</ele>
        <time>2021-09-08T12:45:32.000Z</time>
      </trkpt>
      <trkpt lat="43.46098" lon="6.4757">
        <ele>114.2</ele>
        <time>2021-09-08T12:45:46.000Z</time>
      </trkpt>
      <trkpt lat="43.46103" lon="6.47566">
        <ele>116.5</ele>
        <time>2021-09-08T12:46:33.000Z</time>
      </trkpt>
      <trkpt lat="43.46108" lon="6.47562">
        <ele>117.1</ele>
        <time>2021-09-08T12:46:37.000Z</time>
      </trkpt>
      <trkpt lat="43.46113" lon="6.47561">
        <ele>117.6</ele>
        <time>2021-09-08T12:46:41.000Z</time>
      </trkpt>
      <trkpt lat="43.46117" lon="6.47558">
        <ele>118.6</ele>
        <time>2021-09-08T12:46:47.000Z</time>
      </trkpt>
      <trkpt lat="43.46122" lon="6.47556">
        <ele>120.2</ele>
        <time>2021-09-08T12:46:54.000Z</time>
      </trkpt>
      <trkpt lat="43.46125" lon="6.47551">
        <ele>121.2</ele>
        <time>2021-09-08T12:47:00.000Z</time>
      </trkpt>
      <trkpt lat="43.46126" lon="6.47545">
        <ele>122.4</ele>
        <time>2021-09-08T12:47:10.000Z</time>
      </trkpt>
      <trkpt lat="43.4613" lon="6.47541">
        <ele>123.1</ele>
        <time>2021-09-08T12:47:20.000Z</time>
      </trkpt>
      <trkpt lat="43.46134" lon="6.47536">
        <ele>123.4</ele>
        <time>2021-09-08T12:47:27.000Z</time>
      </trkpt>
      <trkpt lat="43.46137" lon="6.47532">
        <ele>123.6</ele>
        <time>2021-09-08T12:47:36.000Z</time>
      </trkpt>
      <trkpt lat="43.46142" lon="6.47528">
        <ele>123.7</ele>
        <time>2021-09-08T12:47:45.000Z</time>
      </trkpt>
      <trkpt lat="43.46144" lon="6.47523">
        <ele>123.7</ele>
        <time>2021-09-08T12:47:54.000Z</time>
      </trkpt>
      <trkpt lat="43.46149" lon="6.47525">
        <ele>124.4</ele>
        <time>2021-09-08T12:49:42.000Z</time>
      </trkpt>
      <trkpt lat="43.46152" lon="6.47531">
        <ele>124.4</ele>
        <time>2021-09-08T12:49:48.000Z</time>
      </trkpt>
      <trkpt lat="43.46155" lon="6.47535">
        <ele>124.3</ele>
        <time>2021-09-08T12:49:53.000Z</time>
      </trkpt>
      <trkpt lat="43.4616" lon="6.47536">
        <ele>124.2</ele>
        <time>2021-09-08T12:49:57.000Z</time>
      </trkpt>
      <trkpt lat="43.46165" lon="6.4754">
        <ele>123.9</ele>
        <time>2021-09-08T12:50:02.000Z</time>
      </trkpt>
      <trkpt lat="43.46166" lon="6.47547">
        <ele>123.7</ele>
        <time>2021-09-08T12:50:07.000Z</time>
      </trkpt>
      <trkpt lat="43.46168" lon="6.47553">
        <ele>123.5</ele>
        <time>2021-09-08T12:50:12.000Z</time>
      </trkpt>
      <trkpt lat="43.46172" lon="6.47558">
        <ele>123.3</ele>
        <time>2021-09-08T12:50:17.000Z</time>
      </trkpt>
      <trkpt lat="43.46175" lon="6.47563">
        <ele>123.2</ele>
        <time>2021-09-08T12:50:21.000Z</time>
      </trkpt>
      <trkpt lat="43.46178" lon="6.4757">
        <ele>122.8</ele>
        <time>2021-09-08T12:50:26.000Z</time>
      </trkpt>
      <trkpt lat="43.46178" lon="6.47576">
        <ele>122.2</ele>
        <time>2021-09-08T12:50:31.000Z</time>
      </trkpt>
      <trkpt lat="43.4618" lon="6.47584">
        <ele>121.6</ele>
        <time>2021-09-08T12:50:36.000Z</time>
      </trkpt>
      <trkpt lat="43.46181" lon="6.47591">
        <ele>120.9</ele>
        <time>2021-09-08T12:50:41.000Z</time>
      </trkpt>
      <trkpt lat="43.46184" lon="6.47598">
        <ele>120.2</ele>
        <time>2021-09-08T12:50:46.000Z</time>
      </trkpt>
      <trkpt lat="43.46185" lon="6.47604">
        <ele>119.7</ele>
        <time>2021-09-08T12:50:50.000Z</time>
      </trkpt>
      <trkpt lat="43.46186" lon="6.47611">
        <ele>119.1</ele>
        <time>2021-09-08T12:50:55.000Z</time>
      </trkpt>
      <trkpt lat="43.46187" lon="6.47618">
        <ele>118.2</ele>
        <time>2021-09-08T12:51:00.000Z</time>
      </trkpt>
      <trkpt lat="43.46187" lon="6.47625">
        <ele>117.5</ele>
        <time>2021-09-08T12:51:05.000Z</time>
      </trkpt>
      <trkpt lat="43.46187" lon="6.47632">
        <ele>116.7</ele>
        <time>2021-09-08T12:51:10.000Z</time>
      </trkpt>
      <trkpt lat="43.46186" lon="6.47639">
        <ele>116</ele>
        <time>2021-09-08T12:51:15.000Z</time>
      </trkpt>
      <trkpt lat="43.46183" lon="6.47644">
        <ele>115.3</ele>
        <time>2021-09-08T12:51:20.000Z</time>
      </trkpt>
      <trkpt lat="43.46183" lon="6.47651">
        <ele>114</ele>
        <time>2021-09-08T12:51:33.000Z</time>
      </trkpt>
      <trkpt lat="43.46182" lon="6.47657">
        <ele>112.8</ele>
        <time>2021-09-08T12:51:40.000Z</time>
      </trkpt>
      <trkpt lat="43.46182" lon="6.47665">
        <ele>111.5</ele>
        <time>2021-09-08T12:51:47.000Z</time>
      </trkpt>
      <trkpt lat="43.46184" lon="6.47672">
        <ele>110.9</ele>
        <time>2021-09-08T12:51:52.000Z</time>
      </trkpt>
      <trkpt lat="43.46187" lon="6.47678">
        <ele>110.3</ele>
        <time>2021-09-08T12:51:57.000Z</time>
      </trkpt>
      <trkpt lat="43.4619" lon="6.47683">
        <ele>109.7</ele>
        <time>2021-09-08T12:52:01.000Z</time>
      </trkpt>
      <trkpt lat="43.46194" lon="6.47688">
        <ele>109.3</ele>
        <time>2021-09-08T12:52:05.000Z</time>
      </trkpt>
      <trkpt lat="43.46198" lon="6.47692">
        <ele>108.9</ele>
        <time>2021-09-08T12:52:09.000Z</time>
      </trkpt>
      <trkpt lat="43.46202" lon="6.47696">
        <ele>108.4</ele>
        <time>2021-09-08T12:52:14.000Z</time>
      </trkpt>
      <trkpt lat="43.46206" lon="6.477">
        <ele>107.8</ele>
        <time>2021-09-08T12:52:18.000Z</time>
      </trkpt>
      <trkpt lat="43.4621" lon="6.47705">
        <ele>106.9</ele>
        <time>2021-09-08T12:52:23.000Z</time>
      </trkpt>
      <trkpt lat="43.46214" lon="6.47709">
        <ele>106.2</ele>
        <time>2021-09-08T12:52:27.000Z</time>
      </trkpt>
      <trkpt lat="43.46218" lon="6.47712">
        <ele>105.7</ele>
        <time>2021-09-08T12:52:31.000Z</time>
      </trkpt>
      <trkpt lat="43.46222" lon="6.47715">
        <ele>104.9</ele>
        <time>2021-09-08T12:52:36.000Z</time>
      </trkpt>
      <trkpt lat="43.46227" lon="6.47717">
        <ele>104.4</ele>
        <time>2021-09-08T12:52:40.000Z</time>
      </trkpt>
      <trkpt lat="43.46232" lon="6.4772">
        <ele>103.7</ele>
        <time>2021-09-08T12:52:44.000Z</time>
      </trkpt>
      <trkpt lat="43.46236" lon="6.47724">
        <ele>103.2</ele>
        <time>2021-09-08T12:52:48.000Z</time>
      </trkpt>
      <trkpt lat="43.4624" lon="6.47729">
        <ele>102.6</ele>
        <time>2021-09-08T12:52:53.000Z</time>
      </trkpt>
      <trkpt lat="43.46245" lon="6.47731">
        <ele>101.9</ele>
        <time>2021-09-08T12:52:58.000Z</time>
      </trkpt>
      <trkpt lat="43.4625" lon="6.47732">
        <ele>101.3</ele>
        <time>2021-09-08T12:53:02.000Z</time>
      </trkpt>
      <trkpt lat="43.46255" lon="6.47734">
        <ele>100.8</ele>
        <time>2021-09-08T12:53:06.000Z</time>
      </trkpt>
      <trkpt lat="43.4626" lon="6.47736">
        <ele>100</ele>
        <time>2021-09-08T12:53:11.000Z</time>
      </trkpt>
      <trkpt lat="43.46264" lon="6.47736">
        <ele>99.5</ele>
        <time>2021-09-08T12:53:14.000Z</time>
      </trkpt>
      <trkpt lat="43.46269" lon="6.47734">
        <ele>98.8</ele>
        <time>2021-09-08T12:53:18.000Z</time>
      </trkpt>
      <trkpt lat="43.46274" lon="6.47733">
        <ele>98.3</ele>
        <time>2021-09-08T12:53:22.000Z</time>
      </trkpt>
      <trkpt lat="43.46278" lon="6.47734">
        <ele>97.5</ele>
        <time>2021-09-08T12:53:27.000Z</time>
      </trkpt>
      <trkpt lat="43.46283" lon="6.47737">
        <ele>97</ele>
        <time>2021-09-08T12:53:31.000Z</time>
      </trkpt>
      <trkpt lat="43.46287" lon="6.4774">
        <ele>96.6</ele>
        <time>2021-09-08T12:53:35.000Z</time>
      </trkpt>
      <trkpt lat="43.46291" lon="6.47743">
        <ele>96.1</ele>
        <time>2021-09-08T12:53:39.000Z</time>
      </trkpt>
      <trkpt lat="43.46296" lon="6.47743">
        <ele>95.4</ele>
        <time>2021-09-08T12:53:43.000Z</time>
      </trkpt>
      <trkpt lat="43.46301" lon="6.47743">
        <ele>94.8</ele>
        <time>2021-09-08T12:53:47.000Z</time>
      </trkpt>
      <trkpt lat="43.46305" lon="6.47739">
        <ele>94</ele>
        <time>2021-09-08T12:53:52.000Z</time>
      </trkpt>
      <trkpt lat="43.46309" lon="6.47735">
        <ele>93.4</ele>
        <time>2021-09-08T12:53:57.000Z</time>
      </trkpt>
      <trkpt lat="43.46312" lon="6.47729">
        <ele>92.9</ele>
        <time>2021-09-08T12:54:03.000Z</time>
      </trkpt>
      <trkpt lat="43.46316" lon="6.47724">
        <ele>92.6</ele>
        <time>2021-09-08T12:54:08.000Z</time>
      </trkpt>
      <trkpt lat="43.46321" lon="6.47723">
        <ele>92.1</ele>
        <time>2021-09-08T12:54:19.000Z</time>
      </trkpt>
      <trkpt lat="43.46323" lon="6.47728">
        <ele>92</ele>
        <time>2021-09-08T12:54:23.000Z</time>
      </trkpt>
      <trkpt lat="43.46323" lon="6.47736">
        <ele>91.7</ele>
        <time>2021-09-08T12:54:30.000Z</time>
      </trkpt>
      <trkpt lat="43.46329" lon="6.47738">
        <ele>91.6</ele>
        <time>2021-09-08T12:54:33.000Z</time>
      </trkpt>
      <trkpt lat="43.46333" lon="6.47737">
        <ele>91.6</ele>
        <time>2021-09-08T12:54:35.000Z</time>
      </trkpt>
      <trkpt lat="43.46338" lon="6.47739">
        <ele>91.5</ele>
        <time>2021-09-08T12:54:38.000Z</time>
      </trkpt>
      <trkpt lat="43.4634" lon="6.47745">
        <ele>91.5</ele>
        <time>2021-09-08T12:54:41.000Z</time>
      </trkpt>
      <trkpt lat="43.46341" lon="6.47751">
        <ele>91.5</ele>
        <time>2021-09-08T12:54:47.000Z</time>
      </trkpt>
      <trkpt lat="43.46345" lon="6.47756">
        <ele>91.6</ele>
        <time>2021-09-08T12:55:11.000Z</time>
      </trkpt>
      <trkpt lat="43.46349" lon="6.47753">
        <ele>91.7</ele>
        <time>2021-09-08T12:55:26.000Z</time>
      </trkpt>
      <trkpt lat="43.46353" lon="6.47757">
        <ele>92.6</ele>
        <time>2021-09-08T12:57:24.000Z</time>
      </trkpt>
      <trkpt lat="43.46358" lon="6.47761">
        <ele>92.6</ele>
        <time>2021-09-08T12:57:54.000Z</time>
      </trkpt>
      <trkpt lat="43.46361" lon="6.47765">
        <ele>92.6</ele>
        <time>2021-09-08T12:57:59.000Z</time>
      </trkpt>
      <trkpt lat="43.4636" lon="6.47772">
        <ele>92.6</ele>
        <time>2021-09-08T12:58:05.000Z</time>
      </trkpt>
      <trkpt lat="43.46358" lon="6.47778">
        <ele>92.6</ele>
        <time>2021-09-08T12:58:09.000Z</time>
      </trkpt>
      <trkpt lat="43.46358" lon="6.47785">
        <ele>92.5</ele>
        <time>2021-09-08T12:58:15.000Z</time>
      </trkpt>
      <trkpt lat="43.46357" lon="6.47793">
        <ele>92.5</ele>
        <time>2021-09-08T12:58:20.000Z</time>
      </trkpt>
      <trkpt lat="43.46356" lon="6.47799">
        <ele>92.5</ele>
        <time>2021-09-08T12:58:25.000Z</time>
      </trkpt>
      <trkpt lat="43.46358" lon="6.47805">
        <ele>92.5</ele>
        <time>2021-09-08T12:58:30.000Z</time>
      </trkpt>
      <trkpt lat="43.46362" lon="6.47808">
        <ele>92.6</ele>
        <time>2021-09-08T12:58:35.000Z</time>
      </trkpt>
      <trkpt lat="43.46366" lon="6.47811">
        <ele>92.7</ele>
        <time>2021-09-08T12:58:39.000Z</time>
      </trkpt>
      <trkpt lat="43.46369" lon="6.47816">
        <ele>92.8</ele>
        <time>2021-09-08T12:58:46.000Z</time>
      </trkpt>
      <trkpt lat="43.46372" lon="6.47822">
        <ele>93.1</ele>
        <time>2021-09-08T12:58:53.000Z</time>
      </trkpt>
      <trkpt lat="43.46376" lon="6.47826">
        <ele>93.5</ele>
        <time>2021-09-08T12:58:58.000Z</time>
      </trkpt>
      <trkpt lat="43.4638" lon="6.4783">
        <ele>94</ele>
        <time>2021-09-08T12:59:03.000Z</time>
      </trkpt>
      <trkpt lat="43.46384" lon="6.47834">
        <ele>94.6</ele>
        <time>2021-09-08T12:59:08.000Z</time>
      </trkpt>
      <trkpt lat="43.46388" lon="6.47838">
        <ele>95.3</ele>
        <time>2021-09-08T12:59:15.000Z</time>
      </trkpt>
      <trkpt lat="43.46393" lon="6.4784">
        <ele>95.7</ele>
        <time>2021-09-08T12:59:19.000Z</time>
      </trkpt>
      <trkpt lat="43.46398" lon="6.47842">
        <ele>96.3</ele>
        <time>2021-09-08T12:59:24.000Z</time>
      </trkpt>
      <trkpt lat="43.46403" lon="6.47843">
        <ele>97.2</ele>
        <time>2021-09-08T12:59:34.000Z</time>
      </trkpt>
      <trkpt lat="43.46404" lon="6.4785">
        <ele>98.6</ele>
        <time>2021-09-08T13:00:24.000Z</time>
      </trkpt>
      <trkpt lat="43.46399" lon="6.47848">
        <ele>98.8</ele>
        <time>2021-09-08T13:00:43.000Z</time>
      </trkpt>
      <trkpt lat="43.46397" lon="6.47842">
        <ele>99.6</ele>
        <time>2021-09-08T13:01:57.000Z</time>
      </trkpt>
      <trkpt lat="43.46399" lon="6.47847">
        <ele>99.7</ele>
        <time>2021-09-08T13:02:21.000Z</time>
      </trkpt>
      <trkpt lat="43.46405" lon="6.47846">
        <ele>100.1</ele>
        <time>2021-09-08T13:03:22.000Z</time>
      </trkpt>
      <trkpt lat="43.46408" lon="6.47842">
        <ele>100.5</ele>
        <time>2021-09-08T13:03:26.000Z</time>
      </trkpt>
      <trkpt lat="43.46413" lon="6.47841">
        <ele>101.4</ele>
        <time>2021-09-08T13:03:33.000Z</time>
      </trkpt>
      <trkpt lat="43.46418" lon="6.47842">
        <ele>102.5</ele>
        <time>2021-09-08T13:03:41.000Z</time>
      </trkpt>
      <trkpt lat="43.46422" lon="6.47845">
        <ele>103.2</ele>
        <time>2021-09-08T13:03:46.000Z</time>
      </trkpt>
      <trkpt lat="43.46427" lon="6.47844">
        <ele>103.8</ele>
        <time>2021-09-08T13:03:50.000Z</time>
      </trkpt>
      <trkpt lat="43.46432" lon="6.47842">
        <ele>104.1</ele>
        <time>2021-09-08T13:03:53.000Z</time>
      </trkpt>
      <trkpt lat="43.46438" lon="6.47843">
        <ele>104.8</ele>
        <time>2021-09-08T13:03:59.000Z</time>
      </trkpt>
      <trkpt lat="43.46442" lon="6.47847">
        <ele>105.2</ele>
        <time>2021-09-08T13:04:03.000Z</time>
      </trkpt>
      <trkpt lat="43.46447" lon="6.47847">
        <ele>105.8</ele>
        <time>2021-09-08T13:04:09.000Z</time>
      </trkpt>
      <trkpt lat="43.46452" lon="6.47848">
        <ele>107.7</ele>
        <time>2021-09-08T13:04:28.000Z</time>
      </trkpt>
      <trkpt lat="43.46455" lon="6.47854">
        <ele>108.3</ele>
        <time>2021-09-08T13:04:36.000Z</time>
      </trkpt>
      <trkpt lat="43.46459" lon="6.47858">
        <ele>109.1</ele>
        <time>2021-09-08T13:04:46.000Z</time>
      </trkpt>
      <trkpt lat="43.46464" lon="6.47859">
        <ele>109.8</ele>
        <time>2021-09-08T13:04:55.000Z</time>
      </trkpt>
      <trkpt lat="43.46468" lon="6.47861">
        <ele>111</ele>
        <time>2021-09-08T13:05:12.000Z</time>
      </trkpt>
      <trkpt lat="43.46471" lon="6.47857">
        <ele>112.1</ele>
        <time>2021-09-08T13:05:30.000Z</time>
      </trkpt>
      <trkpt lat="43.46476" lon="6.47854">
        <ele>112.6</ele>
        <time>2021-09-08T13:05:37.000Z</time>
      </trkpt>
      <trkpt lat="43.4648" lon="6.47852">
        <ele>113</ele>
        <time>2021-09-08T13:05:42.000Z</time>
      </trkpt>
      <trkpt lat="43.46485" lon="6.4785">
        <ele>113.5</ele>
        <time>2021-09-08T13:05:47.000Z</time>
      </trkpt>
      <trkpt lat="43.46489" lon="6.47846">
        <ele>114.5</ele>
        <time>2021-09-08T13:05:55.000Z</time>
      </trkpt>
      <trkpt lat="43.46494" lon="6.47846">
        <ele>116.2</ele>
        <time>2021-09-08T13:06:20.000Z</time>
      </trkpt>
      <trkpt lat="43.46495" lon="6.47839">
        <ele>116.5</ele>
        <time>2021-09-08T13:06:26.000Z</time>
      </trkpt>
      <trkpt lat="43.465" lon="6.47838">
        <ele>117</ele>
        <time>2021-09-08T13:06:33.000Z</time>
      </trkpt>
      <trkpt lat="43.46505" lon="6.47837">
        <ele>117.9</ele>
        <time>2021-09-08T13:06:40.000Z</time>
      </trkpt>
      <trkpt lat="43.4651" lon="6.47837">
        <ele>118.4</ele>
        <time>2021-09-08T13:06:45.000Z</time>
      </trkpt>
      <trkpt lat="43.46515" lon="6.47836">
        <ele>119.2</ele>
        <time>2021-09-08T13:06:55.000Z</time>
      </trkpt>
      <trkpt lat="43.46519" lon="6.47832">
        <ele>119.8</ele>
        <time>2021-09-08T13:07:06.000Z</time>
      </trkpt>
      <trkpt lat="43.46523" lon="6.47828">
        <ele>120.4</ele>
        <time>2021-09-08T13:07:28.000Z</time>
      </trkpt>
      <trkpt lat="43.4652" lon="6.47824">
        <ele>122.6</ele>
        <time>2021-09-08T13:10:46.000Z</time>
      </trkpt>
      <trkpt lat="43.46519" lon="6.47816">
        <ele>123.3</ele>
        <time>2021-09-08T13:10:55.000Z</time>
      </trkpt>
      <trkpt lat="43.46519" lon="6.47809">
        <ele>123.7</ele>
        <time>2021-09-08T13:11:00.000Z</time>
      </trkpt>
      <trkpt lat="43.46518" lon="6.47802">
        <ele>124.5</ele>
        <time>2021-09-08T13:11:09.000Z</time>
      </trkpt>
      <trkpt lat="43.46519" lon="6.47796">
        <ele>125.3</ele>
        <time>2021-09-08T13:11:15.000Z</time>
      </trkpt>
      <trkpt lat="43.46517" lon="6.4779">
        <ele>126.7</ele>
        <time>2021-09-08T13:11:30.000Z</time>
      </trkpt>
      <trkpt lat="43.46518" lon="6.47783">
        <ele>127.2</ele>
        <time>2021-09-08T13:11:38.000Z</time>
      </trkpt>
      <trkpt lat="43.46515" lon="6.47779">
        <ele>127.7</ele>
        <time>2021-09-08T13:11:49.000Z</time>
      </trkpt>
      <trkpt lat="43.46512" lon="6.47773">
        <ele>128.2</ele>
        <time>2021-09-08T13:12:14.000Z</time>
      </trkpt>
      <trkpt lat="43.46508" lon="6.47771">
        <ele>128.4</ele>
        <time>2021-09-08T13:12:35.000Z</time>
      </trkpt>
      <trkpt lat="43.46502" lon="6.47771">
        <ele>128.3</ele>
        <time>2021-09-08T13:12:41.000Z</time>
      </trkpt>
      <trkpt lat="43.46497" lon="6.47772">
        <ele>128.2</ele>
        <time>2021-09-08T13:12:44.000Z</time>
      </trkpt>
      <trkpt lat="43.46492" lon="6.47771">
        <ele>127.9</ele>
        <time>2021-09-08T13:12:49.000Z</time>
      </trkpt>
      <trkpt lat="43.46488" lon="6.47775">
        <ele>127.7</ele>
        <time>2021-09-08T13:12:53.000Z</time>
      </trkpt>
      <trkpt lat="43.46485" lon="6.47779">
        <ele>127.5</ele>
        <time>2021-09-08T13:12:56.000Z</time>
      </trkpt>
      <trkpt lat="43.4648" lon="6.47782">
        <ele>127.3</ele>
        <time>2021-09-08T13:13:01.000Z</time>
      </trkpt>
      <trkpt lat="43.46475" lon="6.47784">
        <ele>126.9</ele>
        <time>2021-09-08T13:13:06.000Z</time>
      </trkpt>
      <trkpt lat="43.4647" lon="6.47785">
        <ele>126.5</ele>
        <time>2021-09-08T13:13:11.000Z</time>
      </trkpt>
      <trkpt lat="43.46466" lon="6.47789">
        <ele>125.8</ele>
        <time>2021-09-08T13:13:21.000Z</time>
      </trkpt>
      <trkpt lat="43.46463" lon="6.47793">
        <ele>125</ele>
        <time>2021-09-08T13:13:33.000Z</time>
      </trkpt>
      <trkpt lat="43.46458" lon="6.47794">
        <ele>124.6</ele>
        <time>2021-09-08T13:13:43.000Z</time>
      </trkpt>
      <trkpt lat="43.46454" lon="6.47793">
        <ele>124.4</ele>
        <time>2021-09-08T13:13:56.000Z</time>
      </trkpt>
      <trkpt lat="43.46449" lon="6.47795">
        <ele>124.3</ele>
        <time>2021-09-08T13:14:04.000Z</time>
      </trkpt>
      <trkpt lat="43.46453" lon="6.47798">
        <ele>124.1</ele>
        <time>2021-09-08T13:14:29.000Z</time>
      </trkpt>
      <trkpt lat="43.46458" lon="6.47797">
        <ele>124.3</ele>
        <time>2021-09-08T13:14:36.000Z</time>
      </trkpt>
      <trkpt lat="43.46463" lon="6.47794">
        <ele>124.4</ele>
        <time>2021-09-08T13:14:44.000Z</time>
      </trkpt>
      <trkpt lat="43.46465" lon="6.47788">
        <ele>124.5</ele>
        <time>2021-09-08T13:14:51.000Z</time>
      </trkpt>
      <trkpt lat="43.46469" lon="6.47784">
        <ele>124.9</ele>
        <time>2021-09-08T13:15:22.000Z</time>
      </trkpt>
      <trkpt lat="43.46474" lon="6.47783">
        <ele>125.4</ele>
        <time>2021-09-08T13:16:07.000Z</time>
      </trkpt>
      <trkpt lat="43.46478" lon="6.4778">
        <ele>125.7</ele>
        <time>2021-09-08T13:16:16.000Z</time>
      </trkpt>
      <trkpt lat="43.46482" lon="6.47776">
        <ele>125.8</ele>
        <time>2021-09-08T13:16:23.000Z</time>
      </trkpt>
      <trkpt lat="43.46486" lon="6.47773">
        <ele>125.9</ele>
        <time>2021-09-08T13:16:31.000Z</time>
      </trkpt>
      <trkpt lat="43.46489" lon="6.47768">
        <ele>125.9</ele>
        <time>2021-09-08T13:16:36.000Z</time>
      </trkpt>
      <trkpt lat="43.46493" lon="6.47763">
        <ele>125.8</ele>
        <time>2021-09-08T13:16:41.000Z</time>
      </trkpt>
      <trkpt lat="43.46498" lon="6.4776">
        <ele>125.7</ele>
        <time>2021-09-08T13:16:46.000Z</time>
      </trkpt>
      <trkpt lat="43.46502" lon="6.47757">
        <ele>125.3</ele>
        <time>2021-09-08T13:16:51.000Z</time>
      </trkpt>
      <trkpt lat="43.46507" lon="6.47754">
        <ele>124.8</ele>
        <time>2021-09-08T13:16:57.000Z</time>
      </trkpt>
      <trkpt lat="43.46512" lon="6.47752">
        <ele>124.4</ele>
        <time>2021-09-08T13:17:02.000Z</time>
      </trkpt>
      <trkpt lat="43.46517" lon="6.4775">
        <ele>124.2</ele>
        <time>2021-09-08T13:17:07.000Z</time>
      </trkpt>
      <trkpt lat="43.46521" lon="6.47747">
        <ele>123.9</ele>
        <time>2021-09-08T13:17:11.000Z</time>
      </trkpt>
      <trkpt lat="43.46525" lon="6.47744">
        <ele>122.9</ele>
        <time>2021-09-08T13:17:18.000Z</time>
      </trkpt>
      <trkpt lat="43.46529" lon="6.4774">
        <ele>122.2</ele>
        <time>2021-09-08T13:17:24.000Z</time>
      </trkpt>
      <trkpt lat="43.46533" lon="6.47738">
        <ele>121.8</ele>
        <time>2021-09-08T13:17:29.000Z</time>
      </trkpt>
      <trkpt lat="43.46538" lon="6.47736">
        <ele>121.5</ele>
        <time>2021-09-08T13:17:33.000Z</time>
      </trkpt>
      <trkpt lat="43.46543" lon="6.47734">
        <ele>121.3</ele>
        <time>2021-09-08T13:17:37.000Z</time>
      </trkpt>
      <trkpt lat="43.46548" lon="6.47732">
        <ele>121.1</ele>
        <time>2021-09-08T13:17:41.000Z</time>
      </trkpt>
      <trkpt lat="43.46552" lon="6.47729">
        <ele>120.9</ele>
        <time>2021-09-08T13:17:45.000Z</time>
      </trkpt>
      <trkpt lat="43.46557" lon="6.47725">
        <ele>120.7</ele>
        <time>2021-09-08T13:17:50.000Z</time>
      </trkpt>
      <trkpt lat="43.46562" lon="6.47724">
        <ele>120.4</ele>
        <time>2021-09-08T13:17:55.000Z</time>
      </trkpt>
      <trkpt lat="43.46566" lon="6.47721">
        <ele>120.1</ele>
        <time>2021-09-08T13:18:00.000Z</time>
      </trkpt>
      <trkpt lat="43.46571" lon="6.47718">
        <ele>120</ele>
        <time>2021-09-08T13:18:04.000Z</time>
      </trkpt>
      <trkpt lat="43.46575" lon="6.47714">
        <ele>119.8</ele>
        <time>2021-09-08T13:18:08.000Z</time>
      </trkpt>
      <trkpt lat="43.46577" lon="6.47709">
        <ele>119.6</ele>
        <time>2021-09-08T13:18:13.000Z</time>
      </trkpt>
      <trkpt lat="43.46581" lon="6.47703">
        <ele>119.4</ele>
        <time>2021-09-08T13:18:20.000Z</time>
      </trkpt>
      <trkpt lat="43.46583" lon="6.47698">
        <ele>119.3</ele>
        <time>2021-09-08T13:18:27.000Z</time>
      </trkpt>
      <trkpt lat="43.46585" lon="6.47691">
        <ele>119.3</ele>
        <time>2021-09-08T13:18:34.000Z</time>
      </trkpt>
      <trkpt lat="43.46587" lon="6.47684">
        <ele>119.6</ele>
        <time>2021-09-08T13:18:41.000Z</time>
      </trkpt>
      <trkpt lat="43.46589" lon="6.47678">
        <ele>120</ele>
        <time>2021-09-08T13:18:47.000Z</time>
      </trkpt>
      <trkpt lat="43.46591" lon="6.47671">
        <ele>120.3</ele>
        <time>2021-09-08T13:18:53.000Z</time>
      </trkpt>
      <trkpt lat="43.46593" lon="6.47664">
        <ele>120.4</ele>
        <time>2021-09-08T13:18:59.000Z</time>
      </trkpt>
      <trkpt lat="43.46595" lon="6.47658">
        <ele>120.4</ele>
        <time>2021-09-08T13:19:04.000Z</time>
      </trkpt>
      <trkpt lat="43.46597" lon="6.47652">
        <ele>120.5</ele>
        <time>2021-09-08T13:19:10.000Z</time>
      </trkpt>
      <trkpt lat="43.46599" lon="6.47647">
        <ele>120.7</ele>
        <time>2021-09-08T13:19:17.000Z</time>
      </trkpt>
      <trkpt lat="43.46603" lon="6.47642">
        <ele>121.1</ele>
        <time>2021-09-08T13:19:26.000Z</time>
      </trkpt>
      <trkpt lat="43.46607" lon="6.47639">
        <ele>121.6</ele>
        <time>2021-09-08T13:19:37.000Z</time>
      </trkpt>
      <trkpt lat="43.46608" lon="6.47633">
        <ele>122</ele>
        <time>2021-09-08T13:19:56.000Z</time>
      </trkpt>
      <trkpt lat="43.46608" lon="6.47626">
        <ele>121.6</ele>
        <time>2021-09-08T13:20:04.000Z</time>
      </trkpt>
      <trkpt lat="43.46609" lon="6.47619">
        <ele>121.3</ele>
        <time>2021-09-08T13:20:09.000Z</time>
      </trkpt>
      <trkpt lat="43.4661" lon="6.47613">
        <ele>121</ele>
        <time>2021-09-08T13:20:14.000Z</time>
      </trkpt>
      <trkpt lat="43.46608" lon="6.47606">
        <ele>120.6</ele>
        <time>2021-09-08T13:20:19.000Z</time>
      </trkpt>
      <trkpt lat="43.46607" lon="6.476">
        <ele>120.4</ele>
        <time>2021-09-08T13:20:23.000Z</time>
      </trkpt>
      <trkpt lat="43.46607" lon="6.47592">
        <ele>120.2</ele>
        <time>2021-09-08T13:20:28.000Z</time>
      </trkpt>
      <trkpt lat="43.46605" lon="6.47585">
        <ele>119.8</ele>
        <time>2021-09-08T13:20:33.000Z</time>
      </trkpt>
      <trkpt lat="43.46605" lon="6.47578">
        <ele>119.4</ele>
        <time>2021-09-08T13:20:38.000Z</time>
      </trkpt>
      <trkpt lat="43.46606" lon="6.47572">
        <ele>119.2</ele>
        <time>2021-09-08T13:20:42.000Z</time>
      </trkpt>
      <trkpt lat="43.46606" lon="6.47565">
        <ele>119.1</ele>
        <time>2021-09-08T13:20:47.000Z</time>
      </trkpt>
      <trkpt lat="43.46605" lon="6.47558">
        <ele>118.8</ele>
        <time>2021-09-08T13:20:53.000Z</time>
      </trkpt>
      <trkpt lat="43.46603" lon="6.47552">
        <ele>118.5</ele>
        <time>2021-09-08T13:20:58.000Z</time>
      </trkpt>
      <trkpt lat="43.46603" lon="6.47545">
        <ele>118.3</ele>
        <time>2021-09-08T13:21:02.000Z</time>
      </trkpt>
      <trkpt lat="43.46604" lon="6.47538">
        <ele>118.1</ele>
        <time>2021-09-08T13:21:06.000Z</time>
      </trkpt>
      <trkpt lat="43.46602" lon="6.47532">
        <ele>117.9</ele>
        <time>2021-09-08T13:21:11.000Z</time>
      </trkpt>
      <trkpt lat="43.46601" lon="6.47525">
        <ele>117.5</ele>
        <time>2021-09-08T13:21:17.000Z</time>
      </trkpt>
      <trkpt lat="43.46601" lon="6.47519">
        <ele>116.6</ele>
        <time>2021-09-08T13:21:24.000Z</time>
      </trkpt>
      <trkpt lat="43.466" lon="6.47513">
        <ele>115.8</ele>
        <time>2021-09-08T13:21:33.000Z</time>
      </trkpt>
      <trkpt lat="43.46598" lon="6.47507">
        <ele>115.3</ele>
        <time>2021-09-08T13:21:40.000Z</time>
      </trkpt>
      <trkpt lat="43.46595" lon="6.47502">
        <ele>115.2</ele>
        <time>2021-09-08T13:21:57.000Z</time>
      </trkpt>
      <trkpt lat="43.46591" lon="6.47498">
        <ele>115.3</ele>
        <time>2021-09-08T13:22:21.000Z</time>
      </trkpt>
      <trkpt lat="43.46587" lon="6.47502">
        <ele>115.3</ele>
        <time>2021-09-08T13:22:33.000Z</time>
      </trkpt>
      <trkpt lat="43.46583" lon="6.47506">
        <ele>117.2</ele>
        <time>2021-09-08T13:23:25.000Z</time>
      </trkpt>
      <trkpt lat="43.4658" lon="6.47511">
        <ele>117.2</ele>
        <time>2021-09-08T13:24:07.000Z</time>
      </trkpt>
      <trkpt lat="43.46576" lon="6.47509">
        <ele>117.2</ele>
        <time>2021-09-08T13:24:15.000Z</time>
      </trkpt>
      <trkpt lat="43.46571" lon="6.47506">
        <ele>117.2</ele>
        <time>2021-09-08T13:24:22.000Z</time>
      </trkpt>
      <trkpt lat="43.46567" lon="6.4751">
        <ele>117.4</ele>
        <time>2021-09-08T13:24:30.000Z</time>
      </trkpt>
      <trkpt lat="43.46562" lon="6.47512">
        <ele>118.6</ele>
        <time>2021-09-08T13:24:47.000Z</time>
      </trkpt>
      <trkpt lat="43.46558" lon="6.4751">
        <ele>119</ele>
        <time>2021-09-08T13:24:52.000Z</time>
      </trkpt>
      <trkpt lat="43.46554" lon="6.47509">
        <ele>119.5</ele>
        <time>2021-09-08T13:24:59.000Z</time>
      </trkpt>
      <trkpt lat="43.46549" lon="6.47511">
        <ele>120.9</ele>
        <time>2021-09-08T13:25:10.000Z</time>
      </trkpt>
      <trkpt lat="43.46545" lon="6.47514">
        <ele>121.7</ele>
        <time>2021-09-08T13:25:16.000Z</time>
      </trkpt>
      <trkpt lat="43.4654" lon="6.47517">
        <ele>122.5</ele>
        <time>2021-09-08T13:25:23.000Z</time>
      </trkpt>
      <trkpt lat="43.46534" lon="6.47518">
        <ele>123</ele>
        <time>2021-09-08T13:25:28.000Z</time>
      </trkpt>
      <trkpt lat="43.4653" lon="6.47519">
        <ele>123.4</ele>
        <time>2021-09-08T13:25:32.000Z</time>
      </trkpt>
      <trkpt lat="43.46525" lon="6.47519">
        <ele>124.2</ele>
        <time>2021-09-08T13:25:39.000Z</time>
      </trkpt>
      <trkpt lat="43.4652" lon="6.47516">
        <ele>124.9</ele>
        <time>2021-09-08T13:25:47.000Z</time>
      </trkpt>
      <trkpt lat="43.46518" lon="6.4751">
        <ele>125.5</ele>
        <time>2021-09-08T13:25:58.000Z</time>
      </trkpt>
      <trkpt lat="43.46514" lon="6.47506">
        <ele>125.8</ele>
        <time>2021-09-08T13:26:05.000Z</time>
      </trkpt>
      <trkpt lat="43.46512" lon="6.47501">
        <ele>125.9</ele>
        <time>2021-09-08T13:26:12.000Z</time>
      </trkpt>
      <trkpt lat="43.46511" lon="6.47494">
        <ele>126</ele>
        <time>2021-09-08T13:26:18.000Z</time>
      </trkpt>
      <trkpt lat="43.46508" lon="6.47488">
        <ele>126.1</ele>
        <time>2021-09-08T13:26:24.000Z</time>
      </trkpt>
      <trkpt lat="43.46504" lon="6.47484">
        <ele>126.4</ele>
        <time>2021-09-08T13:26:30.000Z</time>
      </trkpt>
      <trkpt lat="43.46501" lon="6.4748">
        <ele>126.6</ele>
        <time>2021-09-08T13:26:37.000Z</time>
      </trkpt>
      <trkpt lat="43.46498" lon="6.47474">
        <ele>127</ele>
        <time>2021-09-08T13:26:45.000Z</time>
      </trkpt>
      <trkpt lat="43.46495" lon="6.4747">
        <ele>127.3</ele>
        <time>2021-09-08T13:26:53.000Z</time>
      </trkpt>
      <trkpt lat="43.46492" lon="6.47464">
        <ele>127.5</ele>
        <time>2021-09-08T13:26:59.000Z</time>
      </trkpt>
      <trkpt lat="43.46491" lon="6.47458">
        <ele>127.6</ele>
        <time>2021-09-08T13:27:04.000Z</time>
      </trkpt>
      <trkpt lat="43.4649" lon="6.47451">
        <ele>127.5</ele>
        <time>2021-09-08T13:27:09.000Z</time>
      </trkpt>
      <trkpt lat="43.46488" lon="6.47444">
        <ele>127.5</ele>
        <time>2021-09-08T13:27:15.000Z</time>
      </trkpt>
      <trkpt lat="43.46489" lon="6.47437">
        <ele>127.4</ele>
        <time>2021-09-08T13:27:20.000Z</time>
      </trkpt>
      <trkpt lat="43.46487" lon="6.47431">
        <ele>127.3</ele>
        <time>2021-09-08T13:27:25.000Z</time>
      </trkpt>
      <trkpt lat="43.46485" lon="6.47425">
        <ele>127.2</ele>
        <time>2021-09-08T13:27:30.000Z</time>
      </trkpt>
      <trkpt lat="43.46484" lon="6.47419">
        <ele>127.2</ele>
        <time>2021-09-08T13:27:34.000Z</time>
      </trkpt>
      <trkpt lat="43.46482" lon="6.47413">
        <ele>127.1</ele>
        <time>2021-09-08T13:27:39.000Z</time>
      </trkpt>
      <trkpt lat="43.46481" lon="6.47405">
        <ele>126.9</ele>
        <time>2021-09-08T13:27:45.000Z</time>
      </trkpt>
      <trkpt lat="43.46479" lon="6.47399">
        <ele>126.7</ele>
        <time>2021-09-08T13:27:50.000Z</time>
      </trkpt>
      <trkpt lat="43.46479" lon="6.47392">
        <ele>126.7</ele>
        <time>2021-09-08T13:27:55.000Z</time>
      </trkpt>
      <trkpt lat="43.46477" lon="6.47386">
        <ele>126.8</ele>
        <time>2021-09-08T13:28:00.000Z</time>
      </trkpt>
      <trkpt lat="43.46476" lon="6.4738">
        <ele>126.9</ele>
        <time>2021-09-08T13:28:05.000Z</time>
      </trkpt>
      <trkpt lat="43.46473" lon="6.47374">
        <ele>127</ele>
        <time>2021-09-08T13:28:09.000Z</time>
      </trkpt>
      <trkpt lat="43.46471" lon="6.47367">
        <ele>127.2</ele>
        <time>2021-09-08T13:28:14.000Z</time>
      </trkpt>
      <trkpt lat="43.46469" lon="6.47361">
        <ele>127.2</ele>
        <time>2021-09-08T13:28:18.000Z</time>
      </trkpt>
      <trkpt lat="43.46468" lon="6.47355">
        <ele>127.1</ele>
        <time>2021-09-08T13:28:23.000Z</time>
      </trkpt>
      <trkpt lat="43.46467" lon="6.47348">
        <ele>127.1</ele>
        <time>2021-09-08T13:28:29.000Z</time>
      </trkpt>
      <trkpt lat="43.46467" lon="6.47341">
        <ele>127.1</ele>
        <time>2021-09-08T13:28:36.000Z</time>
      </trkpt>
      <trkpt lat="43.46465" lon="6.47335">
        <ele>127.1</ele>
        <time>2021-09-08T13:28:41.000Z</time>
      </trkpt>
      <trkpt lat="43.46465" lon="6.47328">
        <ele>127.1</ele>
        <time>2021-09-08T13:28:46.000Z</time>
      </trkpt>
      <trkpt lat="43.46468" lon="6.47322">
        <ele>127.1</ele>
        <time>2021-09-08T13:28:51.000Z</time>
      </trkpt>
      <trkpt lat="43.46471" lon="6.47317">
        <ele>127.2</ele>
        <time>2021-09-08T13:28:55.000Z</time>
      </trkpt>
      <trkpt lat="43.46472" lon="6.47311">
        <ele>127.3</ele>
        <time>2021-09-08T13:29:00.000Z</time>
      </trkpt>
      <trkpt lat="43.46474" lon="6.47305">
        <ele>127.4</ele>
        <time>2021-09-08T13:29:06.000Z</time>
      </trkpt>
      <trkpt lat="43.46477" lon="6.47299">
        <ele>127.4</ele>
        <time>2021-09-08T13:29:11.000Z</time>
      </trkpt>
      <trkpt lat="43.46477" lon="6.47293">
        <ele>127.4</ele>
        <time>2021-09-08T13:29:17.000Z</time>
      </trkpt>
      <trkpt lat="43.46481" lon="6.47287">
        <ele>127.5</ele>
        <time>2021-09-08T13:29:24.000Z</time>
      </trkpt>
      <trkpt lat="43.46485" lon="6.47283">
        <ele>127.6</ele>
        <time>2021-09-08T13:29:29.000Z</time>
      </trkpt>
      <trkpt lat="43.46489" lon="6.47281">
        <ele>127.6</ele>
        <time>2021-09-08T13:29:33.000Z</time>
      </trkpt>
      <trkpt lat="43.46494" lon="6.47279">
        <ele>127.7</ele>
        <time>2021-09-08T13:29:37.000Z</time>
      </trkpt>
      <trkpt lat="43.46499" lon="6.47282">
        <ele>127.8</ele>
        <time>2021-09-08T13:29:43.000Z</time>
      </trkpt>
      <trkpt lat="43.46503" lon="6.47283">
        <ele>127.6</ele>
        <time>2021-09-08T13:31:42.000Z</time>
      </trkpt>
      <trkpt lat="43.46507" lon="6.47279">
        <ele>127.5</ele>
        <time>2021-09-08T13:31:55.000Z</time>
      </trkpt>
      <trkpt lat="43.46509" lon="6.47273">
        <ele>126.8</ele>
        <time>2021-09-08T13:32:04.000Z</time>
      </trkpt>
      <trkpt lat="43.4651" lon="6.47267">
        <ele>126.5</ele>
        <time>2021-09-08T13:32:10.000Z</time>
      </trkpt>
      <trkpt lat="43.4651" lon="6.4726">
        <ele>126.4</ele>
        <time>2021-09-08T13:32:16.000Z</time>
      </trkpt>
      <trkpt lat="43.46512" lon="6.47254">
        <ele>126.1</ele>
        <time>2021-09-08T13:32:26.000Z</time>
      </trkpt>
      <trkpt lat="43.46514" lon="6.47247">
        <ele>126.1</ele>
        <time>2021-09-08T13:32:32.000Z</time>
      </trkpt>
      <trkpt lat="43.46517" lon="6.47242">
        <ele>126.2</ele>
        <time>2021-09-08T13:32:38.000Z</time>
      </trkpt>
      <trkpt lat="43.46516" lon="6.47235">
        <ele>126.3</ele>
        <time>2021-09-08T13:32:49.000Z</time>
      </trkpt>
      <trkpt lat="43.46517" lon="6.47229">
        <ele>126.4</ele>
        <time>2021-09-08T13:32:56.000Z</time>
      </trkpt>
      <trkpt lat="43.46516" lon="6.47223">
        <ele>126.4</ele>
        <time>2021-09-08T13:33:03.000Z</time>
      </trkpt>
      <trkpt lat="43.46517" lon="6.47217">
        <ele>126.5</ele>
        <time>2021-09-08T13:33:16.000Z</time>
      </trkpt>
      <trkpt lat="43.46521" lon="6.47212">
        <ele>126.5</ele>
        <time>2021-09-08T13:33:30.000Z</time>
      </trkpt>
      <trkpt lat="43.46522" lon="6.47206">
        <ele>126.5</ele>
        <time>2021-09-08T13:33:36.000Z</time>
      </trkpt>
      <trkpt lat="43.46523" lon="6.47199">
        <ele>126.5</ele>
        <time>2021-09-08T13:33:42.000Z</time>
      </trkpt>
      <trkpt lat="43.46527" lon="6.47194">
        <ele>126.6</ele>
        <time>2021-09-08T13:33:48.000Z</time>
      </trkpt>
      <trkpt lat="43.46531" lon="6.47189">
        <ele>126.6</ele>
        <time>2021-09-08T13:33:53.000Z</time>
      </trkpt>
      <trkpt lat="43.46535" lon="6.47185">
        <ele>126.7</ele>
        <time>2021-09-08T13:33:58.000Z</time>
      </trkpt>
      <trkpt lat="43.46538" lon="6.47181">
        <ele>126.8</ele>
        <time>2021-09-08T13:34:07.000Z</time>
      </trkpt>
      <trkpt lat="43.4654" lon="6.47175">
        <ele>127</ele>
        <time>2021-09-08T13:34:18.000Z</time>
      </trkpt>
      <trkpt lat="43.46543" lon="6.4717">
        <ele>127.2</ele>
        <time>2021-09-08T13:34:32.000Z</time>
      </trkpt>
      <trkpt lat="43.46547" lon="6.47167">
        <ele>127.5</ele>
        <time>2021-09-08T13:34:51.000Z</time>
      </trkpt>
      <trkpt lat="43.46549" lon="6.47162">
        <ele>127.6</ele>
        <time>2021-09-08T13:35:16.000Z</time>
      </trkpt>
      <trkpt lat="43.46554" lon="6.47159">
        <ele>127.4</ele>
        <time>2021-09-08T13:35:39.000Z</time>
      </trkpt>
      <trkpt lat="43.46558" lon="6.47156">
        <ele>127.4</ele>
        <time>2021-09-08T13:35:54.000Z</time>
      </trkpt>
      <trkpt lat="43.46561" lon="6.47151">
        <ele>127.3</ele>
        <time>2021-09-08T13:36:04.000Z</time>
      </trkpt>
      <trkpt lat="43.4656" lon="6.47145">
        <ele>127.3</ele>
        <time>2021-09-08T13:36:10.000Z</time>
      </trkpt>
      <trkpt lat="43.46559" lon="6.47138">
        <ele>127.4</ele>
        <time>2021-09-08T13:36:16.000Z</time>
      </trkpt>
      <trkpt lat="43.46559" lon="6.47132">
        <ele>127.4</ele>
        <time>2021-09-08T13:36:21.000Z</time>
      </trkpt>
      <trkpt lat="43.46559" lon="6.47125">
        <ele>127.6</ele>
        <time>2021-09-08T13:36:26.000Z</time>
      </trkpt>
      <trkpt lat="43.46558" lon="6.47119">
        <ele>128.4</ele>
        <time>2021-09-08T13:37:04.000Z</time>
      </trkpt>
      <trkpt lat="43.46563" lon="6.47117">
        <ele>128.5</ele>
        <time>2021-09-08T13:37:19.000Z</time>
      </trkpt>
      <trkpt lat="43.46562" lon="6.47111">
        <ele>128.5</ele>
        <time>2021-09-08T13:37:30.000Z</time>
      </trkpt>
      <trkpt lat="43.46565" lon="6.47106">
        <ele>128.6</ele>
        <time>2021-09-08T13:37:38.000Z</time>
      </trkpt>
      <trkpt lat="43.46569" lon="6.47102">
        <ele>128.7</ele>
        <time>2021-09-08T13:37:50.000Z</time>
      </trkpt>
      <trkpt lat="43.46571" lon="6.47097">
        <ele>128.7</ele>
        <time>2021-09-08T13:37:57.000Z</time>
      </trkpt>
      <trkpt lat="43.46572" lon="6.4709">
        <ele>128.9</ele>
        <time>2021-09-08T13:38:06.000Z</time>
      </trkpt>
      <trkpt lat="43.46575" lon="6.47085">
        <ele>129.1</ele>
        <time>2021-09-08T13:38:13.000Z</time>
      </trkpt>
      <trkpt lat="43.46577" lon="6.4708">
        <ele>129.2</ele>
        <time>2021-09-08T13:38:20.000Z</time>
      </trkpt>
      <trkpt lat="43.46581" lon="6.47074">
        <ele>129.2</ele>
        <time>2021-09-08T13:38:25.000Z</time>
      </trkpt>
      <trkpt lat="43.46586" lon="6.47072">
        <ele>129.3</ele>
        <time>2021-09-08T13:38:29.000Z</time>
      </trkpt>
      <trkpt lat="43.4659" lon="6.47069">
        <ele>129.3</ele>
        <time>2021-09-08T13:38:35.000Z</time>
      </trkpt>
      <trkpt lat="43.46594" lon="6.47065">
        <ele>129.5</ele>
        <time>2021-09-08T13:38:42.000Z</time>
      </trkpt>
      <trkpt lat="43.46597" lon="6.4706">
        <ele>129.5</ele>
        <time>2021-09-08T13:38:49.000Z</time>
      </trkpt>
      <trkpt lat="43.46599" lon="6.47054">
        <ele>129.5</ele>
        <time>2021-09-08T13:38:56.000Z</time>
      </trkpt>
      <trkpt lat="43.46602" lon="6.47049">
        <ele>129.4</ele>
        <time>2021-09-08T13:39:00.000Z</time>
      </trkpt>
      <trkpt lat="43.46606" lon="6.47046">
        <ele>129.4</ele>
        <time>2021-09-08T13:39:04.000Z</time>
      </trkpt>
      <trkpt lat="43.4661" lon="6.47042">
        <ele>129.3</ele>
        <time>2021-09-08T13:39:09.000Z</time>
      </trkpt>
      <trkpt lat="43.46614" lon="6.47037">
        <ele>129.2</ele>
        <time>2021-09-08T13:39:14.000Z</time>
      </trkpt>
      <trkpt lat="43.46618" lon="6.47032">
        <ele>129.2</ele>
        <time>2021-09-08T13:39:18.000Z</time>
      </trkpt>
      <trkpt lat="43.46622" lon="6.47027">
        <ele>129.2</ele>
        <time>2021-09-08T13:39:22.000Z</time>
      </trkpt>
      <trkpt lat="43.46626" lon="6.47024">
        <ele>129.2</ele>
        <time>2021-09-08T13:39:25.000Z</time>
      </trkpt>
      <trkpt lat="43.4663" lon="6.4702">
        <ele>129.3</ele>
        <time>2021-09-08T13:39:29.000Z</time>
      </trkpt>
      <trkpt lat="43.46635" lon="6.47016">
        <ele>129.4</ele>
        <time>2021-09-08T13:39:34.000Z</time>
      </trkpt>
      <trkpt lat="43.4664" lon="6.47012">
        <ele>129.6</ele>
        <time>2021-09-08T13:39:39.000Z</time>
      </trkpt>
      <trkpt lat="43.46645" lon="6.4701">
        <ele>129.8</ele>
        <time>2021-09-08T13:39:43.000Z</time>
      </trkpt>
      <trkpt lat="43.46651" lon="6.47008">
        <ele>129.9</ele>
        <time>2021-09-08T13:39:47.000Z</time>
      </trkpt>
      <trkpt lat="43.46653" lon="6.47003">
        <ele>130.1</ele>
        <time>2021-09-08T13:39:53.000Z</time>
      </trkpt>
      <trkpt lat="43.46654" lon="6.46996">
        <ele>130.1</ele>
        <time>2021-09-08T13:39:58.000Z</time>
      </trkpt>
      <trkpt lat="43.46655" lon="6.4699">
        <ele>130.2</ele>
        <time>2021-09-08T13:40:03.000Z</time>
      </trkpt>
      <trkpt lat="43.46654" lon="6.46983">
        <ele>130.2</ele>
        <time>2021-09-08T13:40:09.000Z</time>
      </trkpt>
      <trkpt lat="43.46652" lon="6.46977">
        <ele>130.1</ele>
        <time>2021-09-08T13:40:15.000Z</time>
      </trkpt>
      <trkpt lat="43.4665" lon="6.46971">
        <ele>130.1</ele>
        <time>2021-09-08T13:40:20.000Z</time>
      </trkpt>
      <trkpt lat="43.46647" lon="6.46966">
        <ele>130.1</ele>
        <time>2021-09-08T13:40:25.000Z</time>
      </trkpt>
      <trkpt lat="43.46645" lon="6.4696">
        <ele>130</ele>
        <time>2021-09-08T13:40:30.000Z</time>
      </trkpt>
      <trkpt lat="43.46643" lon="6.46953">
        <ele>129.8</ele>
        <time>2021-09-08T13:40:36.000Z</time>
      </trkpt>
      <trkpt lat="43.4664" lon="6.46948">
        <ele>129.6</ele>
        <time>2021-09-08T13:40:41.000Z</time>
      </trkpt>
      <trkpt lat="43.46638" lon="6.46942">
        <ele>129.4</ele>
        <time>2021-09-08T13:40:47.000Z</time>
      </trkpt>
      <trkpt lat="43.46635" lon="6.46936">
        <ele>129.4</ele>
        <time>2021-09-08T13:40:52.000Z</time>
      </trkpt>
      <trkpt lat="43.46633" lon="6.4693">
        <ele>129.4</ele>
        <time>2021-09-08T13:40:57.000Z</time>
      </trkpt>
      <trkpt lat="43.46631" lon="6.46925">
        <ele>129.4</ele>
        <time>2021-09-08T13:41:02.000Z</time>
      </trkpt>
      <trkpt lat="43.46627" lon="6.4692">
        <ele>129.4</ele>
        <time>2021-09-08T13:41:08.000Z</time>
      </trkpt>
      <trkpt lat="43.46624" lon="6.46914">
        <ele>129.3</ele>
        <time>2021-09-08T13:41:14.000Z</time>
      </trkpt>
      <trkpt lat="43.46621" lon="6.46908">
        <ele>129.3</ele>
        <time>2021-09-08T13:41:19.000Z</time>
      </trkpt>
      <trkpt lat="43.46618" lon="6.46902">
        <ele>129.2</ele>
        <time>2021-09-08T13:41:24.000Z</time>
      </trkpt>
      <trkpt lat="43.46615" lon="6.46896">
        <ele>129.2</ele>
        <time>2021-09-08T13:41:29.000Z</time>
      </trkpt>
      <trkpt lat="43.46613" lon="6.46889">
        <ele>129.2</ele>
        <time>2021-09-08T13:41:34.000Z</time>
      </trkpt>
      <trkpt lat="43.46615" lon="6.46882">
        <ele>129.2</ele>
        <time>2021-09-08T13:41:40.000Z</time>
      </trkpt>
      <trkpt lat="43.46617" lon="6.46877">
        <ele>129.2</ele>
        <time>2021-09-08T13:41:46.000Z</time>
      </trkpt>
      <trkpt lat="43.46621" lon="6.46873">
        <ele>129.2</ele>
        <time>2021-09-08T13:41:51.000Z</time>
      </trkpt>
      <trkpt lat="43.46625" lon="6.46869">
        <ele>129.3</ele>
        <time>2021-09-08T13:41:56.000Z</time>
      </trkpt>
      <trkpt lat="43.4663" lon="6.46865">
        <ele>129.3</ele>
        <time>2021-09-08T13:42:02.000Z</time>
      </trkpt>
      <trkpt lat="43.46634" lon="6.46861">
        <ele>129.4</ele>
        <time>2021-09-08T13:42:06.000Z</time>
      </trkpt>
      <trkpt lat="43.46637" lon="6.46857">
        <ele>129.4</ele>
        <time>2021-09-08T13:42:11.000Z</time>
      </trkpt>
      <trkpt lat="43.46641" lon="6.46851">
        <ele>129.3</ele>
        <time>2021-09-08T13:42:17.000Z</time>
      </trkpt>
      <trkpt lat="43.46645" lon="6.46848">
        <ele>129.2</ele>
        <time>2021-09-08T13:42:22.000Z</time>
      </trkpt>
      <trkpt lat="43.46648" lon="6.46843">
        <ele>129.2</ele>
        <time>2021-09-08T13:42:27.000Z</time>
      </trkpt>
      <trkpt lat="43.46652" lon="6.4684">
        <ele>129.3</ele>
        <time>2021-09-08T13:42:31.000Z</time>
      </trkpt>
      <trkpt lat="43.46656" lon="6.46836">
        <ele>129.2</ele>
        <time>2021-09-08T13:42:36.000Z</time>
      </trkpt>
      <trkpt lat="43.4666" lon="6.46832">
        <ele>129.2</ele>
        <time>2021-09-08T13:42:40.000Z</time>
      </trkpt>
      <trkpt lat="43.46665" lon="6.46829">
        <ele>129.3</ele>
        <time>2021-09-08T13:42:44.000Z</time>
      </trkpt>
      <trkpt lat="43.46669" lon="6.46825">
        <ele>129.4</ele>
        <time>2021-09-08T13:42:49.000Z</time>
      </trkpt>
      <trkpt lat="43.46673" lon="6.4682">
        <ele>129.4</ele>
        <time>2021-09-08T13:42:54.000Z</time>
      </trkpt>
      <trkpt lat="43.46677" lon="6.46816">
        <ele>129.5</ele>
        <time>2021-09-08T13:42:59.000Z</time>
      </trkpt>
      <trkpt lat="43.46681" lon="6.46813">
        <ele>129.5</ele>
        <time>2021-09-08T13:43:03.000Z</time>
      </trkpt>
      <trkpt lat="43.46685" lon="6.46809">
        <ele>129.6</ele>
        <time>2021-09-08T13:43:08.000Z</time>
      </trkpt>
      <trkpt lat="43.4669" lon="6.46805">
        <ele>129.7</ele>
        <time>2021-09-08T13:43:13.000Z</time>
      </trkpt>
      <trkpt lat="43.46694" lon="6.468">
        <ele>129.8</ele>
        <time>2021-09-08T13:43:18.000Z</time>
      </trkpt>
      <trkpt lat="43.46698" lon="6.46795">
        <ele>129.8</ele>
        <time>2021-09-08T13:43:23.000Z</time>
      </trkpt>
      <trkpt lat="43.467" lon="6.46789">
        <ele>129.9</ele>
        <time>2021-09-08T13:43:28.000Z</time>
      </trkpt>
      <trkpt lat="43.46701" lon="6.46782">
        <ele>130.1</ele>
        <time>2021-09-08T13:43:33.000Z</time>
      </trkpt>
      <trkpt lat="43.46701" lon="6.46775">
        <ele>130.4</ele>
        <time>2021-09-08T13:43:38.000Z</time>
      </trkpt>
      <trkpt lat="43.46702" lon="6.46768">
        <ele>130.5</ele>
        <time>2021-09-08T13:43:43.000Z</time>
      </trkpt>
      <trkpt lat="43.46702" lon="6.46762">
        <ele>130.7</ele>
        <time>2021-09-08T13:43:48.000Z</time>
      </trkpt>
      <trkpt lat="43.46704" lon="6.46754">
        <ele>131</ele>
        <time>2021-09-08T13:43:53.000Z</time>
      </trkpt>
      <trkpt lat="43.46705" lon="6.46748">
        <ele>131.3</ele>
        <time>2021-09-08T13:43:59.000Z</time>
      </trkpt>
      <trkpt lat="43.46707" lon="6.46742">
        <ele>131.8</ele>
        <time>2021-09-08T13:44:05.000Z</time>
      </trkpt>
      <trkpt lat="43.46707" lon="6.46735">
        <ele>132.8</ele>
        <time>2021-09-08T13:44:15.000Z</time>
      </trkpt>
      <trkpt lat="43.4671" lon="6.46729">
        <ele>133.3</ele>
        <time>2021-09-08T13:44:20.000Z</time>
      </trkpt>
      <trkpt lat="43.4671" lon="6.46722">
        <ele>134.1</ele>
        <time>2021-09-08T13:44:28.000Z</time>
      </trkpt>
      <trkpt lat="43.46712" lon="6.46716">
        <ele>134.9</ele>
        <time>2021-09-08T13:44:42.000Z</time>
      </trkpt>
      <trkpt lat="43.46712" lon="6.4671">
        <ele>135.2</ele>
        <time>2021-09-08T13:44:54.000Z</time>
      </trkpt>
      <trkpt lat="43.46707" lon="6.46713">
        <ele>135.7</ele>
        <time>2021-09-08T13:45:24.000Z</time>
      </trkpt>
      <trkpt lat="43.46702" lon="6.46713">
        <ele>135.8</ele>
        <time>2021-09-08T13:45:29.000Z</time>
      </trkpt>
      <trkpt lat="43.46697" lon="6.46714">
        <ele>136</ele>
        <time>2021-09-08T13:45:34.000Z</time>
      </trkpt>
      <trkpt lat="43.46693" lon="6.46714">
        <ele>136.1</ele>
        <time>2021-09-08T13:45:38.000Z</time>
      </trkpt>
      <trkpt lat="43.46687" lon="6.46714">
        <ele>136.2</ele>
        <time>2021-09-08T13:45:44.000Z</time>
      </trkpt>
      <trkpt lat="43.46683" lon="6.46717">
        <ele>136.2</ele>
        <time>2021-09-08T13:45:50.000Z</time>
      </trkpt>
      <trkpt lat="43.46678" lon="6.46719">
        <ele>136.1</ele>
        <time>2021-09-08T13:45:55.000Z</time>
      </trkpt>
      <trkpt lat="43.46672" lon="6.4672">
        <ele>136</ele>
        <time>2021-09-08T13:46:00.000Z</time>
      </trkpt>
      <trkpt lat="43.46667" lon="6.46722">
        <ele>136</ele>
        <time>2021-09-08T13:46:04.000Z</time>
      </trkpt>
      <trkpt lat="43.46662" lon="6.46723">
        <ele>135.9</ele>
        <time>2021-09-08T13:46:09.000Z</time>
      </trkpt>
      <trkpt lat="43.46657" lon="6.46723">
        <ele>135.7</ele>
        <time>2021-09-08T13:46:14.000Z</time>
      </trkpt>
      <trkpt lat="43.46652" lon="6.46723">
        <ele>135.5</ele>
        <time>2021-09-08T13:46:19.000Z</time>
      </trkpt>
      <trkpt lat="43.46648" lon="6.46725">
        <ele>135.3</ele>
        <time>2021-09-08T13:46:23.000Z</time>
      </trkpt>
      <trkpt lat="43.46642" lon="6.46726">
        <ele>135.1</ele>
        <time>2021-09-08T13:46:28.000Z</time>
      </trkpt>
      <trkpt lat="43.46637" lon="6.46728">
        <ele>135.1</ele>
        <time>2021-09-08T13:46:32.000Z</time>
      </trkpt>
      <trkpt lat="43.46632" lon="6.46729">
        <ele>135</ele>
        <time>2021-09-08T13:46:36.000Z</time>
      </trkpt>
      <trkpt lat="43.46627" lon="6.46731">
        <ele>134.9</ele>
        <time>2021-09-08T13:46:40.000Z</time>
      </trkpt>
      <trkpt lat="43.46622" lon="6.46733">
        <ele>134.9</ele>
        <time>2021-09-08T13:46:44.000Z</time>
      </trkpt>
      <trkpt lat="43.46616" lon="6.46735">
        <ele>134.9</ele>
        <time>2021-09-08T13:46:48.000Z</time>
      </trkpt>
      <trkpt lat="43.46611" lon="6.46736">
        <ele>135</ele>
        <time>2021-09-08T13:46:52.000Z</time>
      </trkpt>
      <trkpt lat="43.46605" lon="6.46738">
        <ele>135.1</ele>
        <time>2021-09-08T13:46:57.000Z</time>
      </trkpt>
      <trkpt lat="43.46601" lon="6.46739">
        <ele>135.2</ele>
        <time>2021-09-08T13:47:01.000Z</time>
      </trkpt>
      <trkpt lat="43.46596" lon="6.46739">
        <ele>135.3</ele>
        <time>2021-09-08T13:47:05.000Z</time>
      </trkpt>
      <trkpt lat="43.46592" lon="6.46742">
        <ele>135.4</ele>
        <time>2021-09-08T13:47:09.000Z</time>
      </trkpt>
      <trkpt lat="43.46587" lon="6.46744">
        <ele>135.5</ele>
        <time>2021-09-08T13:47:13.000Z</time>
      </trkpt>
      <trkpt lat="43.46582" lon="6.46746">
        <ele>135.5</ele>
        <time>2021-09-08T13:47:17.000Z</time>
      </trkpt>
      <trkpt lat="43.46577" lon="6.46747">
        <ele>135.6</ele>
        <time>2021-09-08T13:47:20.000Z</time>
      </trkpt>
      <trkpt lat="43.46572" lon="6.46748">
        <ele>135.7</ele>
        <time>2021-09-08T13:47:25.000Z</time>
      </trkpt>
      <trkpt lat="43.46568" lon="6.4675">
        <ele>135.9</ele>
        <time>2021-09-08T13:47:30.000Z</time>
      </trkpt>
      <trkpt lat="43.46563" lon="6.46748">
        <ele>136.2</ele>
        <time>2021-09-08T13:47:36.000Z</time>
      </trkpt>
      <trkpt lat="43.4656" lon="6.46742">
        <ele>136.7</ele>
        <time>2021-09-08T13:47:42.000Z</time>
      </trkpt>
      <trkpt lat="43.46557" lon="6.46738">
        <ele>137.8</ele>
        <time>2021-09-08T13:47:54.000Z</time>
      </trkpt>
      <trkpt lat="43.46556" lon="6.46732">
        <ele>138.7</ele>
        <time>2021-09-08T13:48:06.000Z</time>
      </trkpt>
      <trkpt lat="43.46555" lon="6.46725">
        <ele>140.3</ele>
        <time>2021-09-08T13:48:19.000Z</time>
      </trkpt>
      <trkpt lat="43.46555" lon="6.46719">
        <ele>141.5</ele>
        <time>2021-09-08T13:48:29.000Z</time>
      </trkpt>
      <trkpt lat="43.46556" lon="6.46713">
        <ele>142.5</ele>
        <time>2021-09-08T13:48:38.000Z</time>
      </trkpt>
      <trkpt lat="43.46558" lon="6.46706">
        <ele>144.1</ele>
        <time>2021-09-08T13:48:47.000Z</time>
      </trkpt>
      <trkpt lat="43.4656" lon="6.467">
        <ele>145.7</ele>
        <time>2021-09-08T13:48:59.000Z</time>
      </trkpt>
      <trkpt lat="43.46563" lon="6.46694">
        <ele>147.1</ele>
        <time>2021-09-08T13:49:08.000Z</time>
      </trkpt>
      <trkpt lat="43.46565" lon="6.46689">
        <ele>148.2</ele>
        <time>2021-09-08T13:49:16.000Z</time>
      </trkpt>
      <trkpt lat="43.46569" lon="6.46684">
        <ele>149.2</ele>
        <time>2021-09-08T13:49:23.000Z</time>
      </trkpt>
      <trkpt lat="43.4657" lon="6.46679">
        <ele>150.3</ele>
        <time>2021-09-08T13:49:33.000Z</time>
      </trkpt>
      <trkpt lat="43.46574" lon="6.46675">
        <ele>151</ele>
        <time>2021-09-08T13:49:40.000Z</time>
      </trkpt>
      <trkpt lat="43.46576" lon="6.46669">
        <ele>152.4</ele>
        <time>2021-09-08T13:49:52.000Z</time>
      </trkpt>
      <trkpt lat="43.4658" lon="6.46666">
        <ele>153.7</ele>
        <time>2021-09-08T13:50:02.000Z</time>
      </trkpt>
      <trkpt lat="43.46585" lon="6.46667">
        <ele>154.4</ele>
        <time>2021-09-08T13:50:08.000Z</time>
      </trkpt>
      <trkpt lat="43.46586" lon="6.4666">
        <ele>155.6</ele>
        <time>2021-09-08T13:50:19.000Z</time>
      </trkpt>
      <trkpt lat="43.46585" lon="6.46654">
        <ele>157.1</ele>
        <time>2021-09-08T13:50:30.000Z</time>
      </trkpt>
      <trkpt lat="43.46583" lon="6.46648">
        <ele>158.4</ele>
        <time>2021-09-08T13:50:40.000Z</time>
      </trkpt>
      <trkpt lat="43.46585" lon="6.46643">
        <ele>159.4</ele>
        <time>2021-09-08T13:50:48.000Z</time>
      </trkpt>
      <trkpt lat="43.46589" lon="6.4664">
        <ele>159.9</ele>
        <time>2021-09-08T13:50:53.000Z</time>
      </trkpt>
      <trkpt lat="43.46593" lon="6.46635">
        <ele>160.8</ele>
        <time>2021-09-08T13:51:01.000Z</time>
      </trkpt>
      <trkpt lat="43.46598" lon="6.46632">
        <ele>161.4</ele>
        <time>2021-09-08T13:51:06.000Z</time>
      </trkpt>
      <trkpt lat="43.46601" lon="6.46627">
        <ele>161.8</ele>
        <time>2021-09-08T13:51:11.000Z</time>
      </trkpt>
      <trkpt lat="43.46606" lon="6.46625">
        <ele>162.5</ele>
        <time>2021-09-08T13:51:17.000Z</time>
      </trkpt>
      <trkpt lat="43.46611" lon="6.46624">
        <ele>163</ele>
        <time>2021-09-08T13:51:21.000Z</time>
      </trkpt>
      <trkpt lat="43.46614" lon="6.4662">
        <ele>163.9</ele>
        <time>2021-09-08T13:51:28.000Z</time>
      </trkpt>
      <trkpt lat="43.46616" lon="6.46614">
        <ele>165.1</ele>
        <time>2021-09-08T13:51:37.000Z</time>
      </trkpt>
      <trkpt lat="43.46621" lon="6.46613">
        <ele>165.8</ele>
        <time>2021-09-08T13:51:44.000Z</time>
      </trkpt>
      <trkpt lat="43.4662" lon="6.46607">
        <ele>167.4</ele>
        <time>2021-09-08T13:51:56.000Z</time>
      </trkpt>
      <trkpt lat="43.4662" lon="6.46601">
        <ele>169</ele>
        <time>2021-09-08T13:52:08.000Z</time>
      </trkpt>
      <trkpt lat="43.46623" lon="6.46595">
        <ele>170.2</ele>
        <time>2021-09-08T13:52:17.000Z</time>
      </trkpt>
      <trkpt lat="43.46626" lon="6.4659">
        <ele>171.3</ele>
        <time>2021-09-08T13:52:26.000Z</time>
      </trkpt>
      <trkpt lat="43.4663" lon="6.46586">
        <ele>172.1</ele>
        <time>2021-09-08T13:52:35.000Z</time>
      </trkpt>
      <trkpt lat="43.46634" lon="6.46582">
        <ele>173.7</ele>
        <time>2021-09-08T13:52:46.000Z</time>
      </trkpt>
      <trkpt lat="43.46636" lon="6.46576">
        <ele>175.6</ele>
        <time>2021-09-08T13:52:58.000Z</time>
      </trkpt>
      <trkpt lat="43.46639" lon="6.46571">
        <ele>176.7</ele>
        <time>2021-09-08T13:53:05.000Z</time>
      </trkpt>
      <trkpt lat="43.46641" lon="6.46565">
        <ele>177.5</ele>
        <time>2021-09-08T13:53:12.000Z</time>
      </trkpt>
      <trkpt lat="43.46645" lon="6.4656">
        <ele>178.2</ele>
        <time>2021-09-08T13:53:18.000Z</time>
      </trkpt>
      <trkpt lat="43.4665" lon="6.46555">
        <ele>178.5</ele>
        <time>2021-09-08T13:53:21.000Z</time>
      </trkpt>
      <trkpt lat="43.46654" lon="6.46551">
        <ele>178.8</ele>
        <time>2021-09-08T13:53:24.000Z</time>
      </trkpt>
      <trkpt lat="43.4666" lon="6.46546">
        <ele>179.1</ele>
        <time>2021-09-08T13:53:27.000Z</time>
      </trkpt>
      <trkpt lat="43.46665" lon="6.46541">
        <ele>179.4</ele>
        <time>2021-09-08T13:53:30.000Z</time>
      </trkpt>
      <trkpt lat="43.46669" lon="6.46537">
        <ele>179.6</ele>
        <time>2021-09-08T13:53:33.000Z</time>
      </trkpt>
      <trkpt lat="43.46672" lon="6.46531">
        <ele>180.2</ele>
        <time>2021-09-08T13:53:39.000Z</time>
      </trkpt>
      <trkpt lat="43.46675" lon="6.46526">
        <ele>180.6</ele>
        <time>2021-09-08T13:53:44.000Z</time>
      </trkpt>
      <trkpt lat="43.46677" lon="6.46519">
        <ele>181.2</ele>
        <time>2021-09-08T13:53:51.000Z</time>
      </trkpt>
      <trkpt lat="43.46681" lon="6.46513">
        <ele>181.4</ele>
        <time>2021-09-08T13:53:55.000Z</time>
      </trkpt>
      <trkpt lat="43.46684" lon="6.46506">
        <ele>181.8</ele>
        <time>2021-09-08T13:54:01.000Z</time>
      </trkpt>
      <trkpt lat="43.46687" lon="6.46501">
        <ele>182</ele>
        <time>2021-09-08T13:54:06.000Z</time>
      </trkpt>
      <trkpt lat="43.4669" lon="6.46495">
        <ele>182.2</ele>
        <time>2021-09-08T13:54:11.000Z</time>
      </trkpt>
      <trkpt lat="43.46694" lon="6.4649">
        <ele>182.3</ele>
        <time>2021-09-08T13:54:15.000Z</time>
      </trkpt>
      <trkpt lat="43.46698" lon="6.46485">
        <ele>182.6</ele>
        <time>2021-09-08T13:54:20.000Z</time>
      </trkpt>
      <trkpt lat="43.467" lon="6.4648">
        <ele>182.9</ele>
        <time>2021-09-08T13:54:25.000Z</time>
      </trkpt>
      <trkpt lat="43.46701" lon="6.46473">
        <ele>183</ele>
        <time>2021-09-08T13:54:31.000Z</time>
      </trkpt>
      <trkpt lat="43.467" lon="6.46467">
        <ele>183.4</ele>
        <time>2021-09-08T13:54:37.000Z</time>
      </trkpt>
      <trkpt lat="43.467" lon="6.4646">
        <ele>183.5</ele>
        <time>2021-09-08T13:54:43.000Z</time>
      </trkpt>
      <trkpt lat="43.46698" lon="6.46454">
        <ele>183.5</ele>
        <time>2021-09-08T13:54:50.000Z</time>
      </trkpt>
      <trkpt lat="43.46699" lon="6.46448">
        <ele>183.6</ele>
        <time>2021-09-08T13:54:54.000Z</time>
      </trkpt>
      <trkpt lat="43.46698" lon="6.46441">
        <ele>183.6</ele>
        <time>2021-09-08T13:54:59.000Z</time>
      </trkpt>
      <trkpt lat="43.46698" lon="6.46435">
        <ele>183.8</ele>
        <time>2021-09-08T13:55:05.000Z</time>
      </trkpt>
      <trkpt lat="43.46695" lon="6.46429">
        <ele>184.2</ele>
        <time>2021-09-08T13:55:18.000Z</time>
      </trkpt>
      <trkpt lat="43.46691" lon="6.46424">
        <ele>184.5</ele>
        <time>2021-09-08T13:55:35.000Z</time>
      </trkpt>
      <trkpt lat="43.46687" lon="6.46426">
        <ele>184.3</ele>
        <time>2021-09-08T13:55:50.000Z</time>
      </trkpt>
      <trkpt lat="43.46691" lon="6.46425">
        <ele>184.3</ele>
        <time>2021-09-08T13:55:56.000Z</time>
      </trkpt>
      <trkpt lat="43.46696" lon="6.46426">
        <ele>184.3</ele>
        <time>2021-09-08T13:56:13.000Z</time>
      </trkpt>
      <trkpt lat="43.46694" lon="6.4642">
        <ele>184.2</ele>
        <time>2021-09-08T13:56:48.000Z</time>
      </trkpt>
      <trkpt lat="43.46695" lon="6.46426">
        <ele>185.7</ele>
        <time>2021-09-08T13:57:52.000Z</time>
      </trkpt>
      <trkpt lat="43.46692" lon="6.4643">
        <ele>185.9</ele>
        <time>2021-09-08T13:58:07.000Z</time>
      </trkpt>
      <trkpt lat="43.46687" lon="6.46431">
        <ele>186.1</ele>
        <time>2021-09-08T13:58:15.000Z</time>
      </trkpt>
      <trkpt lat="43.46683" lon="6.4643">
        <ele>186.4</ele>
        <time>2021-09-08T13:58:23.000Z</time>
      </trkpt>
      <trkpt lat="43.46677" lon="6.46429">
        <ele>186.6</ele>
        <time>2021-09-08T13:58:30.000Z</time>
      </trkpt>
      <trkpt lat="43.46673" lon="6.46429">
        <ele>186.8</ele>
        <time>2021-09-08T13:58:42.000Z</time>
      </trkpt>
      <trkpt lat="43.46668" lon="6.46429">
        <ele>187.7</ele>
        <time>2021-09-08T13:58:53.000Z</time>
      </trkpt>
      <trkpt lat="43.46664" lon="6.46427">
        <ele>188.7</ele>
        <time>2021-09-08T13:59:02.000Z</time>
      </trkpt>
      <trkpt lat="43.4666" lon="6.46424">
        <ele>189.1</ele>
        <time>2021-09-08T13:59:08.000Z</time>
      </trkpt>
      <trkpt lat="43.46655" lon="6.46422">
        <ele>189.4</ele>
        <time>2021-09-08T13:59:12.000Z</time>
      </trkpt>
      <trkpt lat="43.46651" lon="6.46418">
        <ele>189.9</ele>
        <time>2021-09-08T13:59:17.000Z</time>
      </trkpt>
      <trkpt lat="43.46646" lon="6.46417">
        <ele>190.4</ele>
        <time>2021-09-08T13:59:21.000Z</time>
      </trkpt>
      <trkpt lat="43.46641" lon="6.46415">
        <ele>191.1</ele>
        <time>2021-09-08T13:59:26.000Z</time>
      </trkpt>
      <trkpt lat="43.46636" lon="6.46413">
        <ele>191.9</ele>
        <time>2021-09-08T13:59:33.000Z</time>
      </trkpt>
      <trkpt lat="43.46632" lon="6.4641">
        <ele>192.5</ele>
        <time>2021-09-08T13:59:39.000Z</time>
      </trkpt>
      <trkpt lat="43.46628" lon="6.46408">
        <ele>193.2</ele>
        <time>2021-09-08T13:59:44.000Z</time>
      </trkpt>
      <trkpt lat="43.46623" lon="6.46405">
        <ele>194.3</ele>
        <time>2021-09-08T13:59:53.000Z</time>
      </trkpt>
      <trkpt lat="43.46618" lon="6.46403">
        <ele>195.3</ele>
        <time>2021-09-08T14:00:00.000Z</time>
      </trkpt>
      <trkpt lat="43.46614" lon="6.46401">
        <ele>196.2</ele>
        <time>2021-09-08T14:00:07.000Z</time>
      </trkpt>
      <trkpt lat="43.46609" lon="6.46398">
        <ele>196.8</ele>
        <time>2021-09-08T14:00:13.000Z</time>
      </trkpt>
      <trkpt lat="43.46605" lon="6.46396">
        <ele>197.5</ele>
        <time>2021-09-08T14:00:20.000Z</time>
      </trkpt>
      <trkpt lat="43.46601" lon="6.46392">
        <ele>198.2</ele>
        <time>2021-09-08T14:00:26.000Z</time>
      </trkpt>
      <trkpt lat="43.46597" lon="6.46389">
        <ele>198.8</ele>
        <time>2021-09-08T14:00:31.000Z</time>
      </trkpt>
      <trkpt lat="43.46592" lon="6.46387">
        <ele>199.4</ele>
        <time>2021-09-08T14:00:36.000Z</time>
      </trkpt>
      <trkpt lat="43.46588" lon="6.46385">
        <ele>200</ele>
        <time>2021-09-08T14:00:41.000Z</time>
      </trkpt>
      <trkpt lat="43.46584" lon="6.46383">
        <ele>200.7</ele>
        <time>2021-09-08T14:00:49.000Z</time>
      </trkpt>
      <trkpt lat="43.4658" lon="6.46379">
        <ele>201.1</ele>
        <time>2021-09-08T14:00:55.000Z</time>
      </trkpt>
      <trkpt lat="43.46577" lon="6.46373">
        <ele>201.5</ele>
        <time>2021-09-08T14:01:02.000Z</time>
      </trkpt>
      <trkpt lat="43.46574" lon="6.46367">
        <ele>202</ele>
        <time>2021-09-08T14:01:10.000Z</time>
      </trkpt>
      <trkpt lat="43.46571" lon="6.46363">
        <ele>202.5</ele>
        <time>2021-09-08T14:01:16.000Z</time>
      </trkpt>
      <trkpt lat="43.46566" lon="6.4636">
        <ele>203.1</ele>
        <time>2021-09-08T14:01:22.000Z</time>
      </trkpt>
      <trkpt lat="43.46562" lon="6.46357">
        <ele>203.7</ele>
        <time>2021-09-08T14:01:28.000Z</time>
      </trkpt>
      <trkpt lat="43.46558" lon="6.46353">
        <ele>204.2</ele>
        <time>2021-09-08T14:01:32.000Z</time>
      </trkpt>
      <trkpt lat="43.46555" lon="6.46348">
        <ele>204.6</ele>
        <time>2021-09-08T14:01:36.000Z</time>
      </trkpt>
      <trkpt lat="43.46552" lon="6.46344">
        <ele>204.9</ele>
        <time>2021-09-08T14:01:40.000Z</time>
      </trkpt>
      <trkpt lat="43.46548" lon="6.46339">
        <ele>205.2</ele>
        <time>2021-09-08T14:01:44.000Z</time>
      </trkpt>
      <trkpt lat="43.46546" lon="6.46334">
        <ele>205.4</ele>
        <time>2021-09-08T14:01:48.000Z</time>
      </trkpt>
      <trkpt lat="43.46543" lon="6.46329">
        <ele>205.5</ele>
        <time>2021-09-08T14:01:52.000Z</time>
      </trkpt>
      <trkpt lat="43.46541" lon="6.46323">
        <ele>205.7</ele>
        <time>2021-09-08T14:01:56.000Z</time>
      </trkpt>
      <trkpt lat="43.46538" lon="6.46317">
        <ele>205.9</ele>
        <time>2021-09-08T14:02:00.000Z</time>
      </trkpt>
      <trkpt lat="43.46536" lon="6.46312">
        <ele>206.4</ele>
        <time>2021-09-08T14:02:05.000Z</time>
      </trkpt>
      <trkpt lat="43.46533" lon="6.46306">
        <ele>206.7</ele>
        <time>2021-09-08T14:02:10.000Z</time>
      </trkpt>
      <trkpt lat="43.46532" lon="6.46299">
        <ele>206.9</ele>
        <time>2021-09-08T14:02:15.000Z</time>
      </trkpt>
      <trkpt lat="43.46533" lon="6.46292">
        <ele>207</ele>
        <time>2021-09-08T14:02:20.000Z</time>
      </trkpt>
      <trkpt lat="43.46532" lon="6.46286">
        <ele>207</ele>
        <time>2021-09-08T14:02:24.000Z</time>
      </trkpt>
      <trkpt lat="43.4653" lon="6.46279">
        <ele>207.4</ele>
        <time>2021-09-08T14:02:30.000Z</time>
      </trkpt>
      <trkpt lat="43.46527" lon="6.46274">
        <ele>207.6</ele>
        <time>2021-09-08T14:02:34.000Z</time>
      </trkpt>
      <trkpt lat="43.46525" lon="6.46268">
        <ele>207.9</ele>
        <time>2021-09-08T14:02:40.000Z</time>
      </trkpt>
      <trkpt lat="43.46523" lon="6.46261">
        <ele>208.3</ele>
        <time>2021-09-08T14:02:47.000Z</time>
      </trkpt>
      <trkpt lat="43.4652" lon="6.46255">
        <ele>208.7</ele>
        <time>2021-09-08T14:02:54.000Z</time>
      </trkpt>
      <trkpt lat="43.46515" lon="6.46251">
        <ele>208.9</ele>
        <time>2021-09-08T14:02:59.000Z</time>
      </trkpt>
      <trkpt lat="43.46512" lon="6.46248">
        <ele>209</ele>
        <time>2021-09-08T14:03:03.000Z</time>
      </trkpt>
      <trkpt lat="43.46508" lon="6.46244">
        <ele>209.3</ele>
        <time>2021-09-08T14:03:07.000Z</time>
      </trkpt>
      <trkpt lat="43.46504" lon="6.46242">
        <ele>209.5</ele>
        <time>2021-09-08T14:03:12.000Z</time>
      </trkpt>
      <trkpt lat="43.46498" lon="6.46239">
        <ele>209.7</ele>
        <time>2021-09-08T14:03:16.000Z</time>
      </trkpt>
      <trkpt lat="43.46494" lon="6.46235">
        <ele>209.7</ele>
        <time>2021-09-08T14:03:20.000Z</time>
      </trkpt>
      <trkpt lat="43.46491" lon="6.46231">
        <ele>209.8</ele>
        <time>2021-09-08T14:03:26.000Z</time>
      </trkpt>
      <trkpt lat="43.46486" lon="6.4623">
        <ele>209.7</ele>
        <time>2021-09-08T14:03:42.000Z</time>
      </trkpt>
      <trkpt lat="43.46481" lon="6.46232">
        <ele>209.3</ele>
        <time>2021-09-08T14:04:08.000Z</time>
      </trkpt>
      <trkpt lat="43.46485" lon="6.46236">
        <ele>209.4</ele>
        <time>2021-09-08T14:06:01.000Z</time>
      </trkpt>
      <trkpt lat="43.46489" lon="6.4624">
        <ele>209.3</ele>
        <time>2021-09-08T14:06:42.000Z</time>
      </trkpt>
      <trkpt lat="43.46484" lon="6.46241">
        <ele>209.1</ele>
        <time>2021-09-08T14:06:56.000Z</time>
      </trkpt>
      <trkpt lat="43.4648" lon="6.46237">
        <ele>209.2</ele>
        <time>2021-09-08T14:07:48.000Z</time>
      </trkpt>
      <trkpt lat="43.46475" lon="6.46238">
        <ele>209.2</ele>
        <time>2021-09-08T14:07:57.000Z</time>
      </trkpt>
      <trkpt lat="43.46479" lon="6.46238">
        <ele>209.3</ele>
        <time>2021-09-08T14:08:38.000Z</time>
      </trkpt>
      <trkpt lat="43.46484" lon="6.4624">
        <ele>209.3</ele>
        <time>2021-09-08T14:09:02.000Z</time>
      </trkpt>
      <trkpt lat="43.46479" lon="6.46239">
        <ele>209.3</ele>
        <time>2021-09-08T14:09:42.000Z</time>
      </trkpt>
      <trkpt lat="43.46484" lon="6.46238">
        <ele>209.5</ele>
        <time>2021-09-08T14:10:40.000Z</time>
      </trkpt>
      <trkpt lat="43.46479" lon="6.46238">
        <ele>209.4</ele>
        <time>2021-09-08T14:12:27.000Z</time>
      </trkpt>
      <trkpt lat="43.46476" lon="6.46242">
        <ele>209.4</ele>
        <time>2021-09-08T14:12:36.000Z</time>
      </trkpt>
      <trkpt lat="43.46471" lon="6.46245">
        <ele>209.1</ele>
        <time>2021-09-08T14:12:45.000Z</time>
      </trkpt>
      <trkpt lat="43.46466" lon="6.46247">
        <ele>208.8</ele>
        <time>2021-09-08T14:12:50.000Z</time>
      </trkpt>
      <trkpt lat="43.46461" lon="6.46248">
        <ele>208.5</ele>
        <time>2021-09-08T14:12:55.000Z</time>
      </trkpt>
      <trkpt lat="43.46457" lon="6.4625">
        <ele>208.1</ele>
        <time>2021-09-08T14:13:00.000Z</time>
      </trkpt>
      <trkpt lat="43.46452" lon="6.46252">
        <ele>207.2</ele>
        <time>2021-09-08T14:13:07.000Z</time>
      </trkpt>
      <trkpt lat="43.46448" lon="6.46254">
        <ele>206.2</ele>
        <time>2021-09-08T14:13:13.000Z</time>
      </trkpt>
      <trkpt lat="43.46443" lon="6.46257">
        <ele>205.1</ele>
        <time>2021-09-08T14:13:20.000Z</time>
      </trkpt>
      <trkpt lat="43.46438" lon="6.46259">
        <ele>204</ele>
        <time>2021-09-08T14:13:27.000Z</time>
      </trkpt>
      <trkpt lat="43.46434" lon="6.4626">
        <ele>202.8</ele>
        <time>2021-09-08T14:13:34.000Z</time>
      </trkpt>
      <trkpt lat="43.46428" lon="6.46262">
        <ele>201.8</ele>
        <time>2021-09-08T14:13:40.000Z</time>
      </trkpt>
      <trkpt lat="43.46424" lon="6.46263">
        <ele>200.3</ele>
        <time>2021-09-08T14:13:47.000Z</time>
      </trkpt>
      <trkpt lat="43.46419" lon="6.46266">
        <ele>198.6</ele>
        <time>2021-09-08T14:13:58.000Z</time>
      </trkpt>
      <trkpt lat="43.46414" lon="6.46267">
        <ele>196.8</ele>
        <time>2021-09-08T14:14:12.000Z</time>
      </trkpt>
      <trkpt lat="43.4641" lon="6.46268">
        <ele>195.7</ele>
        <time>2021-09-08T14:14:20.000Z</time>
      </trkpt>
      <trkpt lat="43.46406" lon="6.46273">
        <ele>194.1</ele>
        <time>2021-09-08T14:14:32.000Z</time>
      </trkpt>
      <trkpt lat="43.46402" lon="6.46277">
        <ele>192.3</ele>
        <time>2021-09-08T14:14:46.000Z</time>
      </trkpt>
      <trkpt lat="43.46399" lon="6.4628">
        <ele>189.9</ele>
        <time>2021-09-08T14:15:01.000Z</time>
      </trkpt>
      <trkpt lat="43.46395" lon="6.46284">
        <ele>188.7</ele>
        <time>2021-09-08T14:15:10.000Z</time>
      </trkpt>
      <trkpt lat="43.46392" lon="6.46289">
        <ele>186</ele>
        <time>2021-09-08T14:15:35.000Z</time>
      </trkpt>
      <trkpt lat="43.46388" lon="6.46292">
        <ele>183.5</ele>
        <time>2021-09-08T14:15:51.000Z</time>
      </trkpt>
      <trkpt lat="43.46384" lon="6.46295">
        <ele>182.2</ele>
        <time>2021-09-08T14:15:58.000Z</time>
      </trkpt>
      <trkpt lat="43.46379" lon="6.46296">
        <ele>180.3</ele>
        <time>2021-09-08T14:16:09.000Z</time>
      </trkpt>
      <trkpt lat="43.46374" lon="6.46297">
        <ele>179.4</ele>
        <time>2021-09-08T14:16:15.000Z</time>
      </trkpt>
      <trkpt lat="43.46369" lon="6.46301">
        <ele>177.8</ele>
        <time>2021-09-08T14:16:25.000Z</time>
      </trkpt>
      <trkpt lat="43.46365" lon="6.46301">
        <ele>177.1</ele>
        <time>2021-09-08T14:16:30.000Z</time>
      </trkpt>
      <trkpt lat="43.4636" lon="6.46302">
        <ele>176.1</ele>
        <time>2021-09-08T14:16:39.000Z</time>
      </trkpt>
      <trkpt lat="43.46356" lon="6.46299">
        <ele>175.8</ele>
        <time>2021-09-08T14:16:43.000Z</time>
      </trkpt>
      <trkpt lat="43.46352" lon="6.46295">
        <ele>175.7</ele>
        <time>2021-09-08T14:16:47.000Z</time>
      </trkpt>
      <trkpt lat="43.46348" lon="6.46291">
        <ele>175.4</ele>
        <time>2021-09-08T14:17:00.000Z</time>
      </trkpt>
      <trkpt lat="43.46345" lon="6.46296">
        <ele>175.1</ele>
        <time>2021-09-08T14:17:53.000Z</time>
      </trkpt>
      <trkpt lat="43.46343" lon="6.46302">
        <ele>175.1</ele>
        <time>2021-09-08T14:18:00.000Z</time>
      </trkpt>
      <trkpt lat="43.46341" lon="6.46308">
        <ele>175.1</ele>
        <time>2021-09-08T14:18:10.000Z</time>
      </trkpt>
      <trkpt lat="43.46339" lon="6.46313">
        <ele>175.2</ele>
        <time>2021-09-08T14:18:22.000Z</time>
      </trkpt>
      <trkpt lat="43.46341" lon="6.46319">
        <ele>175.3</ele>
        <time>2021-09-08T14:18:27.000Z</time>
      </trkpt>
      <trkpt lat="43.46344" lon="6.46323">
        <ele>175</ele>
        <time>2021-09-08T14:18:33.000Z</time>
      </trkpt>
      <trkpt lat="43.46338" lon="6.46328">
        <ele>175</ele>
        <time>2021-09-08T14:18:39.000Z</time>
      </trkpt>
      <trkpt lat="43.46335" lon="6.46333">
        <ele>176.3</ele>
        <time>2021-09-08T14:18:50.000Z</time>
      </trkpt>
      <trkpt lat="43.46331" lon="6.46335">
        <ele>178.6</ele>
        <time>2021-09-08T14:19:09.000Z</time>
      </trkpt>
      <trkpt lat="43.46327" lon="6.46331">
        <ele>179.1</ele>
        <time>2021-09-08T14:19:16.000Z</time>
      </trkpt>
      <trkpt lat="43.46323" lon="6.46327">
        <ele>180.2</ele>
        <time>2021-09-08T14:19:29.000Z</time>
      </trkpt>
      <trkpt lat="43.46318" lon="6.46325">
        <ele>181.2</ele>
        <time>2021-09-08T14:19:38.000Z</time>
      </trkpt>
      <trkpt lat="43.46313" lon="6.46325">
        <ele>182.6</ele>
        <time>2021-09-08T14:19:51.000Z</time>
      </trkpt>
      <trkpt lat="43.46308" lon="6.46324">
        <ele>183.6</ele>
        <time>2021-09-08T14:19:59.000Z</time>
      </trkpt>
      <trkpt lat="43.46303" lon="6.46324">
        <ele>184.6</ele>
        <time>2021-09-08T14:20:07.000Z</time>
      </trkpt>
      <trkpt lat="43.46299" lon="6.46324">
        <ele>185.3</ele>
        <time>2021-09-08T14:20:12.000Z</time>
      </trkpt>
      <trkpt lat="43.46294" lon="6.46326">
        <ele>186.7</ele>
        <time>2021-09-08T14:20:20.000Z</time>
      </trkpt>
      <trkpt lat="43.46289" lon="6.46323">
        <ele>187.4</ele>
        <time>2021-09-08T14:20:25.000Z</time>
      </trkpt>
      <trkpt lat="43.46284" lon="6.46323">
        <ele>188.2</ele>
        <time>2021-09-08T14:20:32.000Z</time>
      </trkpt>
      <trkpt lat="43.46279" lon="6.46324">
        <ele>188.7</ele>
        <time>2021-09-08T14:20:37.000Z</time>
      </trkpt>
      <trkpt lat="43.46275" lon="6.46324">
        <ele>189.1</ele>
        <time>2021-09-08T14:20:42.000Z</time>
      </trkpt>
      <trkpt lat="43.46271" lon="6.46327">
        <ele>191.2</ele>
        <time>2021-09-08T14:21:03.000Z</time>
      </trkpt>
      <trkpt lat="43.46266" lon="6.46327">
        <ele>191.5</ele>
        <time>2021-09-08T14:21:11.000Z</time>
      </trkpt>
      <trkpt lat="43.46261" lon="6.46327">
        <ele>192.2</ele>
        <time>2021-09-08T14:21:28.000Z</time>
      </trkpt>
      <trkpt lat="43.46257" lon="6.46329">
        <ele>193</ele>
        <time>2021-09-08T14:21:41.000Z</time>
      </trkpt>
      <trkpt lat="43.46253" lon="6.46331">
        <ele>194.4</ele>
        <time>2021-09-08T14:21:53.000Z</time>
      </trkpt>
      <trkpt lat="43.46247" lon="6.46331">
        <ele>195.3</ele>
        <time>2021-09-08T14:22:02.000Z</time>
      </trkpt>
      <trkpt lat="43.46242" lon="6.46331">
        <ele>196</ele>
        <time>2021-09-08T14:22:07.000Z</time>
      </trkpt>
      <trkpt lat="43.46237" lon="6.46332">
        <ele>196.6</ele>
        <time>2021-09-08T14:22:12.000Z</time>
      </trkpt>
      <trkpt lat="43.46233" lon="6.46332">
        <ele>197.5</ele>
        <time>2021-09-08T14:22:19.000Z</time>
      </trkpt>
      <trkpt lat="43.46228" lon="6.46334">
        <ele>199.6</ele>
        <time>2021-09-08T14:22:33.000Z</time>
      </trkpt>
      <trkpt lat="43.46224" lon="6.46338">
        <ele>201</ele>
        <time>2021-09-08T14:22:43.000Z</time>
      </trkpt>
      <trkpt lat="43.4622" lon="6.4634">
        <ele>201.8</ele>
        <time>2021-09-08T14:22:51.000Z</time>
      </trkpt>
      <trkpt lat="43.46216" lon="6.46343">
        <ele>202.8</ele>
        <time>2021-09-08T14:23:00.000Z</time>
      </trkpt>
      <trkpt lat="43.46212" lon="6.46347">
        <ele>204.4</ele>
        <time>2021-09-08T14:23:13.000Z</time>
      </trkpt>
      <trkpt lat="43.46208" lon="6.46351">
        <ele>205.4</ele>
        <time>2021-09-08T14:23:21.000Z</time>
      </trkpt>
      <trkpt lat="43.46204" lon="6.46356">
        <ele>207.5</ele>
        <time>2021-09-08T14:23:37.000Z</time>
      </trkpt>
      <trkpt lat="43.462" lon="6.46358">
        <ele>208.8</ele>
        <time>2021-09-08T14:23:45.000Z</time>
      </trkpt>
      <trkpt lat="43.46196" lon="6.46361">
        <ele>210.4</ele>
        <time>2021-09-08T14:23:54.000Z</time>
      </trkpt>
      <trkpt lat="43.4619" lon="6.46363">
        <ele>211.2</ele>
        <time>2021-09-08T14:24:00.000Z</time>
      </trkpt>
      <trkpt lat="43.46185" lon="6.46362">
        <ele>211.7</ele>
        <time>2021-09-08T14:24:03.000Z</time>
      </trkpt>
      <trkpt lat="43.46179" lon="6.46362">
        <ele>212.2</ele>
        <time>2021-09-08T14:24:07.000Z</time>
      </trkpt>
      <trkpt lat="43.46174" lon="6.46363">
        <ele>212.8</ele>
        <time>2021-09-08T14:24:11.000Z</time>
      </trkpt>
      <trkpt lat="43.46168" lon="6.46365">
        <ele>213.5</ele>
        <time>2021-09-08T14:24:16.000Z</time>
      </trkpt>
      <trkpt lat="43.46163" lon="6.46365">
        <ele>214</ele>
        <time>2021-09-08T14:24:20.000Z</time>
      </trkpt>
      <trkpt lat="43.46158" lon="6.46366">
        <ele>214.4</ele>
        <time>2021-09-08T14:24:24.000Z</time>
      </trkpt>
      <trkpt lat="43.46153" lon="6.46366">
        <ele>215</ele>
        <time>2021-09-08T14:24:28.000Z</time>
      </trkpt>
      <trkpt lat="43.46149" lon="6.46367">
        <ele>215.5</ele>
        <time>2021-09-08T14:24:33.000Z</time>
      </trkpt>
      <trkpt lat="43.46143" lon="6.46368">
        <ele>216.4</ele>
        <time>2021-09-08T14:24:40.000Z</time>
      </trkpt>
      <trkpt lat="43.46138" lon="6.4637">
        <ele>216.8</ele>
        <time>2021-09-08T14:24:44.000Z</time>
      </trkpt>
      <trkpt lat="43.46134" lon="6.46372">
        <ele>217.5</ele>
        <time>2021-09-08T14:24:50.000Z</time>
      </trkpt>
      <trkpt lat="43.46129" lon="6.46374">
        <ele>218.3</ele>
        <time>2021-09-08T14:24:58.000Z</time>
      </trkpt>
      <trkpt lat="43.46124" lon="6.46375">
        <ele>218.9</ele>
        <time>2021-09-08T14:25:04.000Z</time>
      </trkpt>
      <trkpt lat="43.4612" lon="6.46378">
        <ele>219.4</ele>
        <time>2021-09-08T14:25:09.000Z</time>
      </trkpt>
      <trkpt lat="43.46116" lon="6.46378">
        <ele>220.3</ele>
        <time>2021-09-08T14:25:16.000Z</time>
      </trkpt>
      <trkpt lat="43.46111" lon="6.46378">
        <ele>221</ele>
        <time>2021-09-08T14:25:23.000Z</time>
      </trkpt>
      <trkpt lat="43.46106" lon="6.46378">
        <ele>221.5</ele>
        <time>2021-09-08T14:25:29.000Z</time>
      </trkpt>
      <trkpt lat="43.46101" lon="6.46376">
        <ele>222.2</ele>
        <time>2021-09-08T14:25:39.000Z</time>
      </trkpt>
      <trkpt lat="43.46097" lon="6.46373">
        <ele>222.6</ele>
        <time>2021-09-08T14:25:47.000Z</time>
      </trkpt>
      <trkpt lat="43.46094" lon="6.46369">
        <ele>222.9</ele>
        <time>2021-09-08T14:25:53.000Z</time>
      </trkpt>
      <trkpt lat="43.46089" lon="6.46371">
        <ele>223.2</ele>
        <time>2021-09-08T14:26:00.000Z</time>
      </trkpt>
      <trkpt lat="43.46085" lon="6.46373">
        <ele>223.5</ele>
        <time>2021-09-08T14:26:05.000Z</time>
      </trkpt>
      <trkpt lat="43.4608" lon="6.46374">
        <ele>223.9</ele>
        <time>2021-09-08T14:26:11.000Z</time>
      </trkpt>
      <trkpt lat="43.46075" lon="6.46371">
        <ele>224.3</ele>
        <time>2021-09-08T14:26:18.000Z</time>
      </trkpt>
      <trkpt lat="43.46071" lon="6.46371">
        <ele>224.6</ele>
        <time>2021-09-08T14:26:25.000Z</time>
      </trkpt>
      <trkpt lat="43.46067" lon="6.46367">
        <ele>224.9</ele>
        <time>2021-09-08T14:26:32.000Z</time>
      </trkpt>
      <trkpt lat="43.46064" lon="6.46362">
        <ele>225.3</ele>
        <time>2021-09-08T14:26:46.000Z</time>
      </trkpt>
      <trkpt lat="43.46061" lon="6.46358">
        <ele>226.2</ele>
        <time>2021-09-08T14:27:54.000Z</time>
      </trkpt>
      <trkpt lat="43.46066" lon="6.46359">
        <ele>226.4</ele>
        <time>2021-09-08T14:28:23.000Z</time>
      </trkpt>
      <trkpt lat="43.46064" lon="6.46353">
        <ele>226.6</ele>
        <time>2021-09-08T14:28:55.000Z</time>
      </trkpt>
      <trkpt lat="43.4606" lon="6.46349">
        <ele>226.6</ele>
        <time>2021-09-08T14:29:14.000Z</time>
      </trkpt>
      <trkpt lat="43.46058" lon="6.46344">
        <ele>226.6</ele>
        <time>2021-09-08T14:29:47.000Z</time>
      </trkpt>
      <trkpt lat="43.4606" lon="6.46337">
        <ele>226.8</ele>
        <time>2021-09-08T14:31:06.000Z</time>
      </trkpt>
      <trkpt lat="43.46059" lon="6.4633">
        <ele>226.9</ele>
        <time>2021-09-08T14:31:12.000Z</time>
      </trkpt>
      <trkpt lat="43.46057" lon="6.46324">
        <ele>226.9</ele>
        <time>2021-09-08T14:31:18.000Z</time>
      </trkpt>
      <trkpt lat="43.46056" lon="6.46317">
        <ele>227</ele>
        <time>2021-09-08T14:31:24.000Z</time>
      </trkpt>
      <trkpt lat="43.46055" lon="6.4631">
        <ele>227</ele>
        <time>2021-09-08T14:31:29.000Z</time>
      </trkpt>
      <trkpt lat="43.46053" lon="6.46303">
        <ele>227.1</ele>
        <time>2021-09-08T14:31:35.000Z</time>
      </trkpt>
      <trkpt lat="43.46052" lon="6.46296">
        <ele>227.2</ele>
        <time>2021-09-08T14:31:40.000Z</time>
      </trkpt>
      <trkpt lat="43.46051" lon="6.46289">
        <ele>227.4</ele>
        <time>2021-09-08T14:31:45.000Z</time>
      </trkpt>
      <trkpt lat="43.46049" lon="6.46282">
        <ele>227.5</ele>
        <time>2021-09-08T14:31:50.000Z</time>
      </trkpt>
      <trkpt lat="43.46048" lon="6.46276">
        <ele>227.6</ele>
        <time>2021-09-08T14:31:55.000Z</time>
      </trkpt>
      <trkpt lat="43.46047" lon="6.4627">
        <ele>227.6</ele>
        <time>2021-09-08T14:31:59.000Z</time>
      </trkpt>
      <trkpt lat="43.46045" lon="6.46264">
        <ele>227.7</ele>
        <time>2021-09-08T14:32:04.000Z</time>
      </trkpt>
      <trkpt lat="43.46045" lon="6.46257">
        <ele>227.9</ele>
        <time>2021-09-08T14:32:10.000Z</time>
      </trkpt>
      <trkpt lat="43.46044" lon="6.4625">
        <ele>228</ele>
        <time>2021-09-08T14:32:15.000Z</time>
      </trkpt>
      <trkpt lat="43.46043" lon="6.46243">
        <ele>228.2</ele>
        <time>2021-09-08T14:32:21.000Z</time>
      </trkpt>
      <trkpt lat="43.46042" lon="6.46236">
        <ele>228.3</ele>
        <time>2021-09-08T14:32:25.000Z</time>
      </trkpt>
      <trkpt lat="43.4604" lon="6.46229">
        <ele>228.2</ele>
        <time>2021-09-08T14:32:31.000Z</time>
      </trkpt>
      <trkpt lat="43.4604" lon="6.46223">
        <ele>228.1</ele>
        <time>2021-09-08T14:32:37.000Z</time>
      </trkpt>
      <trkpt lat="43.46039" lon="6.46216">
        <ele>228.1</ele>
        <time>2021-09-08T14:32:42.900Z</time>
      </trkpt>
      <trkpt lat="43.46038" lon="6.46209">
        <ele>228</ele>
        <time>2021-09-08T14:32:49.000Z</time>
      </trkpt>
      <trkpt lat="43.46037" lon="6.46202">
        <ele>228</ele>
        <time>2021-09-08T14:32:54.000Z</time>
      </trkpt>
      <trkpt lat="43.46037" lon="6.46196">
        <ele>228.1</ele>
        <time>2021-09-08T14:32:59.000Z</time>
      </trkpt>
      <trkpt lat="43.46036" lon="6.4619">
        <ele>228.2</ele>
        <time>2021-09-08T14:33:04.000Z</time>
      </trkpt>
      <trkpt lat="43.46035" lon="6.46183">
        <ele>228.3</ele>
        <time>2021-09-08T14:33:10.000Z</time>
      </trkpt>
      <trkpt lat="43.46035" lon="6.46176">
        <ele>228.4</ele>
        <time>2021-09-08T14:33:16.000Z</time>
      </trkpt>
      <trkpt lat="43.46035" lon="6.46169">
        <ele>228.5</ele>
        <time>2021-09-08T14:33:20.000Z</time>
      </trkpt>
      <trkpt lat="43.46033" lon="6.46163">
        <ele>228.5</ele>
        <time>2021-09-08T14:33:26.000Z</time>
      </trkpt>
      <trkpt lat="43.46033" lon="6.46156">
        <ele>228.4</ele>
        <time>2021-09-08T14:33:31.000Z</time>
      </trkpt>
      <trkpt lat="43.46034" lon="6.46149">
        <ele>228.4</ele>
        <time>2021-09-08T14:33:35.000Z</time>
      </trkpt>
      <trkpt lat="43.46035" lon="6.46142">
        <ele>228.3</ele>
        <time>2021-09-08T14:33:39.000Z</time>
      </trkpt>
      <trkpt lat="43.46036" lon="6.46135">
        <ele>228.3</ele>
        <time>2021-09-08T14:33:43.000Z</time>
      </trkpt>
      <trkpt lat="43.46035" lon="6.46129">
        <ele>228.3</ele>
        <time>2021-09-08T14:33:47.000Z</time>
      </trkpt>
      <trkpt lat="43.46033" lon="6.46122">
        <ele>228.3</ele>
        <time>2021-09-08T14:33:52.000Z</time>
      </trkpt>
      <trkpt lat="43.46032" lon="6.46115">
        <ele>228.2</ele>
        <time>2021-09-08T14:33:56.000Z</time>
      </trkpt>
      <trkpt lat="43.4603" lon="6.46109">
        <ele>228.3</ele>
        <time>2021-09-08T14:34:01.000Z</time>
      </trkpt>
      <trkpt lat="43.46027" lon="6.46104">
        <ele>228.3</ele>
        <time>2021-09-08T14:34:05.000Z</time>
      </trkpt>
      <trkpt lat="43.46023" lon="6.46099">
        <ele>228.4</ele>
        <time>2021-09-08T14:34:10.000Z</time>
      </trkpt>
      <trkpt lat="43.4602" lon="6.46094">
        <ele>228.4</ele>
        <time>2021-09-08T14:34:15.000Z</time>
      </trkpt>
      <trkpt lat="43.4602" lon="6.46087">
        <ele>228.6</ele>
        <time>2021-09-08T14:34:22.000Z</time>
      </trkpt>
      <trkpt lat="43.4602" lon="6.4608">
        <ele>228.8</ele>
        <time>2021-09-08T14:34:28.000Z</time>
      </trkpt>
      <trkpt lat="43.46019" lon="6.46073">
        <ele>229</ele>
        <time>2021-09-08T14:34:33.000Z</time>
      </trkpt>
      <trkpt lat="43.46018" lon="6.46067">
        <ele>229.2</ele>
        <time>2021-09-08T14:34:37.000Z</time>
      </trkpt>
      <trkpt lat="43.46017" lon="6.4606">
        <ele>229.4</ele>
        <time>2021-09-08T14:34:42.000Z</time>
      </trkpt>
      <trkpt lat="43.46017" lon="6.46054">
        <ele>229.6</ele>
        <time>2021-09-08T14:34:46.000Z</time>
      </trkpt>
      <trkpt lat="43.46017" lon="6.46047">
        <ele>229.7</ele>
        <time>2021-09-08T14:34:50.000Z</time>
      </trkpt>
      <trkpt lat="43.46017" lon="6.4604">
        <ele>229.8</ele>
        <time>2021-09-08T14:34:55.000Z</time>
      </trkpt>
      <trkpt lat="43.46019" lon="6.46033">
        <ele>229.8</ele>
        <time>2021-09-08T14:34:59.000Z</time>
      </trkpt>
      <trkpt lat="43.46021" lon="6.46028">
        <ele>229.9</ele>
        <time>2021-09-08T14:35:03.000Z</time>
      </trkpt>
      <trkpt lat="43.46022" lon="6.46021">
        <ele>230</ele>
        <time>2021-09-08T14:35:07.000Z</time>
      </trkpt>
      <trkpt lat="43.46022" lon="6.46014">
        <ele>230</ele>
        <time>2021-09-08T14:35:12.000Z</time>
      </trkpt>
      <trkpt lat="43.46024" lon="6.46006">
        <ele>230.2</ele>
        <time>2021-09-08T14:35:17.000Z</time>
      </trkpt>
      <trkpt lat="43.46024" lon="6.46">
        <ele>230.3</ele>
        <time>2021-09-08T14:35:21.000Z</time>
      </trkpt>
      <trkpt lat="43.46027" lon="6.45994">
        <ele>230.5</ele>
        <time>2021-09-08T14:35:25.000Z</time>
      </trkpt>
      <trkpt lat="43.46028" lon="6.45987">
        <ele>230.6</ele>
        <time>2021-09-08T14:35:29.000Z</time>
      </trkpt>
      <trkpt lat="43.46029" lon="6.4598">
        <ele>230.8</ele>
        <time>2021-09-08T14:35:33.000Z</time>
      </trkpt>
      <trkpt lat="43.46029" lon="6.45973">
        <ele>231</ele>
        <time>2021-09-08T14:35:37.000Z</time>
      </trkpt>
      <trkpt lat="43.46029" lon="6.45966">
        <ele>231.2</ele>
        <time>2021-09-08T14:35:41.000Z</time>
      </trkpt>
      <trkpt lat="43.46027" lon="6.45958">
        <ele>231.5</ele>
        <time>2021-09-08T14:35:45.000Z</time>
      </trkpt>
      <trkpt lat="43.46025" lon="6.45953">
        <ele>231.8</ele>
        <time>2021-09-08T14:35:49.000Z</time>
      </trkpt>
      <trkpt lat="43.46024" lon="6.45947">
        <ele>232</ele>
        <time>2021-09-08T14:35:53.000Z</time>
      </trkpt>
      <trkpt lat="43.46023" lon="6.4594">
        <ele>232.2</ele>
        <time>2021-09-08T14:35:57.000Z</time>
      </trkpt>
      <trkpt lat="43.46021" lon="6.45934">
        <ele>232.6</ele>
        <time>2021-09-08T14:36:01.000Z</time>
      </trkpt>
      <trkpt lat="43.46021" lon="6.45926">
        <ele>232.9</ele>
        <time>2021-09-08T14:36:05.000Z</time>
      </trkpt>
      <trkpt lat="43.46019" lon="6.4592">
        <ele>233.1</ele>
        <time>2021-09-08T14:36:09.000Z</time>
      </trkpt>
      <trkpt lat="43.46018" lon="6.45913">
        <ele>233.3</ele>
        <time>2021-09-08T14:36:13.000Z</time>
      </trkpt>
      <trkpt lat="43.46016" lon="6.45906">
        <ele>233.4</ele>
        <time>2021-09-08T14:36:18.000Z</time>
      </trkpt>
      <trkpt lat="43.46014" lon="6.45899">
        <ele>233.7</ele>
        <time>2021-09-08T14:36:23.000Z</time>
      </trkpt>
      <trkpt lat="43.46013" lon="6.45893">
        <ele>234</ele>
        <time>2021-09-08T14:36:28.000Z</time>
      </trkpt>
      <trkpt lat="43.46014" lon="6.45885">
        <ele>234.2</ele>
        <time>2021-09-08T14:36:33.000Z</time>
      </trkpt>
      <trkpt lat="43.46015" lon="6.45879">
        <ele>234.4</ele>
        <time>2021-09-08T14:36:37.000Z</time>
      </trkpt>
      <trkpt lat="43.46017" lon="6.45873">
        <ele>234.4</ele>
        <time>2021-09-08T14:36:41.000Z</time>
      </trkpt>
      <trkpt lat="43.46019" lon="6.45867">
        <ele>234.5</ele>
        <time>2021-09-08T14:36:45.000Z</time>
      </trkpt>
      <trkpt lat="43.46021" lon="6.4586">
        <ele>234.6</ele>
        <time>2021-09-08T14:36:50.000Z</time>
      </trkpt>
      <trkpt lat="43.46022" lon="6.45854">
        <ele>234.6</ele>
        <time>2021-09-08T14:36:55.000Z</time>
      </trkpt>
      <trkpt lat="43.46025" lon="6.45848">
        <ele>234.5</ele>
        <time>2021-09-08T14:37:00.000Z</time>
      </trkpt>
      <trkpt lat="43.46026" lon="6.45841">
        <ele>234.4</ele>
        <time>2021-09-08T14:37:05.000Z</time>
      </trkpt>
      <trkpt lat="43.46027" lon="6.45834">
        <ele>234.3</ele>
        <time>2021-09-08T14:37:09.000Z</time>
      </trkpt>
      <trkpt lat="43.46028" lon="6.45827">
        <ele>234.3</ele>
        <time>2021-09-08T14:37:13.000Z</time>
      </trkpt>
      <trkpt lat="43.46028" lon="6.4582">
        <ele>234.2</ele>
        <time>2021-09-08T14:37:17.000Z</time>
      </trkpt>
      <trkpt lat="43.46028" lon="6.45813">
        <ele>234.2</ele>
        <time>2021-09-08T14:37:21.000Z</time>
      </trkpt>
      <trkpt lat="43.46027" lon="6.45806">
        <ele>234.2</ele>
        <time>2021-09-08T14:37:25.000Z</time>
      </trkpt>
      <trkpt lat="43.46028" lon="6.458">
        <ele>234.2</ele>
        <time>2021-09-08T14:37:29.000Z</time>
      </trkpt>
      <trkpt lat="43.46029" lon="6.45792">
        <ele>234.3</ele>
        <time>2021-09-08T14:37:33.000Z</time>
      </trkpt>
      <trkpt lat="43.46028" lon="6.45784">
        <ele>234.3</ele>
        <time>2021-09-08T14:37:38.000Z</time>
      </trkpt>
      <trkpt lat="43.46028" lon="6.45777">
        <ele>234.3</ele>
        <time>2021-09-08T14:37:43.000Z</time>
      </trkpt>
      <trkpt lat="43.46028" lon="6.4577">
        <ele>234.3</ele>
        <time>2021-09-08T14:37:47.000Z</time>
      </trkpt>
      <trkpt lat="43.4603" lon="6.45764">
        <ele>234.4</ele>
        <time>2021-09-08T14:37:51.000Z</time>
      </trkpt>
      <trkpt lat="43.46032" lon="6.45757">
        <ele>234.4</ele>
        <time>2021-09-08T14:37:55.000Z</time>
      </trkpt>
      <trkpt lat="43.46033" lon="6.45751">
        <ele>234.4</ele>
        <time>2021-09-08T14:38:00.000Z</time>
      </trkpt>
      <trkpt lat="43.46032" lon="6.45744">
        <ele>234.3</ele>
        <time>2021-09-08T14:38:05.000Z</time>
      </trkpt>
      <trkpt lat="43.46036" lon="6.45737">
        <ele>234.2</ele>
        <time>2021-09-08T14:38:10.000Z</time>
      </trkpt>
      <trkpt lat="43.46038" lon="6.4573">
        <ele>234.1</ele>
        <time>2021-09-08T14:38:14.000Z</time>
      </trkpt>
      <trkpt lat="43.46038" lon="6.45723">
        <ele>233.9</ele>
        <time>2021-09-08T14:38:19.000Z</time>
      </trkpt>
      <trkpt lat="43.46038" lon="6.45715">
        <ele>233.8</ele>
        <time>2021-09-08T14:38:24.000Z</time>
      </trkpt>
      <trkpt lat="43.46038" lon="6.45708">
        <ele>233.8</ele>
        <time>2021-09-08T14:38:27.000Z</time>
      </trkpt>
      <trkpt lat="43.46038" lon="6.45701">
        <ele>233.7</ele>
        <time>2021-09-08T14:38:31.000Z</time>
      </trkpt>
      <trkpt lat="43.46038" lon="6.45694">
        <ele>233.6</ele>
        <time>2021-09-08T14:38:34.000Z</time>
      </trkpt>
      <trkpt lat="43.46038" lon="6.45688">
        <ele>233.5</ele>
        <time>2021-09-08T14:38:37.000Z</time>
      </trkpt>
      <trkpt lat="43.46038" lon="6.4568">
        <ele>233.3</ele>
        <time>2021-09-08T14:38:41.000Z</time>
      </trkpt>
      <trkpt lat="43.46038" lon="6.45673">
        <ele>233.2</ele>
        <time>2021-09-08T14:38:45.000Z</time>
      </trkpt>
      <trkpt lat="43.46038" lon="6.45667">
        <ele>233.1</ele>
        <time>2021-09-08T14:38:50.000Z</time>
      </trkpt>
      <trkpt lat="43.46037" lon="6.45659">
        <ele>233</ele>
        <time>2021-09-08T14:38:55.000Z</time>
      </trkpt>
      <trkpt lat="43.46038" lon="6.45652">
        <ele>233</ele>
        <time>2021-09-08T14:39:00.000Z</time>
      </trkpt>
      <trkpt lat="43.46038" lon="6.45644">
        <ele>232.9</ele>
        <time>2021-09-08T14:39:05.000Z</time>
      </trkpt>
      <trkpt lat="43.46038" lon="6.45636">
        <ele>232.8</ele>
        <time>2021-09-08T14:39:10.000Z</time>
      </trkpt>
      <trkpt lat="43.46037" lon="6.45629">
        <ele>232.8</ele>
        <time>2021-09-08T14:39:15.000Z</time>
      </trkpt>
      <trkpt lat="43.46036" lon="6.45623">
        <ele>232.7</ele>
        <time>2021-09-08T14:39:19.000Z</time>
      </trkpt>
      <trkpt lat="43.46035" lon="6.45616">
        <ele>232.7</ele>
        <time>2021-09-08T14:39:24.000Z</time>
      </trkpt>
      <trkpt lat="43.46035" lon="6.45609">
        <ele>232.6</ele>
        <time>2021-09-08T14:39:29.000Z</time>
      </trkpt>
      <trkpt lat="43.46034" lon="6.45602">
        <ele>232.4</ele>
        <time>2021-09-08T14:39:34.000Z</time>
      </trkpt>
      <trkpt lat="43.46034" lon="6.45594">
        <ele>232.1</ele>
        <time>2021-09-08T14:39:40.000Z</time>
      </trkpt>
      <trkpt lat="43.46033" lon="6.45588">
        <ele>232</ele>
        <time>2021-09-08T14:39:44.000Z</time>
      </trkpt>
      <trkpt lat="43.46033" lon="6.45581">
        <ele>231.8</ele>
        <time>2021-09-08T14:39:49.000Z</time>
      </trkpt>
      <trkpt lat="43.46032" lon="6.45574">
        <ele>231.7</ele>
        <time>2021-09-08T14:39:53.000Z</time>
      </trkpt>
      <trkpt lat="43.46031" lon="6.45567">
        <ele>231.7</ele>
        <time>2021-09-08T14:39:57.000Z</time>
      </trkpt>
      <trkpt lat="43.4603" lon="6.4556">
        <ele>231.6</ele>
        <time>2021-09-08T14:40:01.000Z</time>
      </trkpt>
      <trkpt lat="43.46031" lon="6.45553">
        <ele>231.6</ele>
        <time>2021-09-08T14:40:05.000Z</time>
      </trkpt>
      <trkpt lat="43.46031" lon="6.45545">
        <ele>231.7</ele>
        <time>2021-09-08T14:40:09.000Z</time>
      </trkpt>
      <trkpt lat="43.4603" lon="6.45539">
        <ele>231.7</ele>
        <time>2021-09-08T14:40:13.000Z</time>
      </trkpt>
      <trkpt lat="43.46027" lon="6.45532">
        <ele>231.6</ele>
        <time>2021-09-08T14:40:18.000Z</time>
      </trkpt>
      <trkpt lat="43.46024" lon="6.45528">
        <ele>231.5</ele>
        <time>2021-09-08T14:40:23.000Z</time>
      </trkpt>
      <trkpt lat="43.46018" lon="6.45527">
        <ele>231.5</ele>
        <time>2021-09-08T14:40:29.000Z</time>
      </trkpt>
      <trkpt lat="43.46014" lon="6.45523">
        <ele>231.5</ele>
        <time>2021-09-08T14:40:33.000Z</time>
      </trkpt>
      <trkpt lat="43.46012" lon="6.45518">
        <ele>231.5</ele>
        <time>2021-09-08T14:40:37.000Z</time>
      </trkpt>
      <trkpt lat="43.4601" lon="6.45511">
        <ele>231.5</ele>
        <time>2021-09-08T14:40:42.000Z</time>
      </trkpt>
      <trkpt lat="43.46009" lon="6.45504">
        <ele>231.5</ele>
        <time>2021-09-08T14:40:47.000Z</time>
      </trkpt>
      <trkpt lat="43.46007" lon="6.45497">
        <ele>231.5</ele>
        <time>2021-09-08T14:40:52.000Z</time>
      </trkpt>
      <trkpt lat="43.46006" lon="6.45491">
        <ele>231.5</ele>
        <time>2021-09-08T14:40:56.000Z</time>
      </trkpt>
      <trkpt lat="43.46004" lon="6.45485">
        <ele>231.5</ele>
        <time>2021-09-08T14:41:00.000Z</time>
      </trkpt>
      <trkpt lat="43.46003" lon="6.45477">
        <ele>231.5</ele>
        <time>2021-09-08T14:41:05.000Z</time>
      </trkpt>
      <trkpt lat="43.46003" lon="6.4547">
        <ele>231.5</ele>
        <time>2021-09-08T14:41:10.000Z</time>
      </trkpt>
      <trkpt lat="43.46003" lon="6.45463">
        <ele>231.5</ele>
        <time>2021-09-08T14:41:15.000Z</time>
      </trkpt>
      <trkpt lat="43.46002" lon="6.45456">
        <ele>231.5</ele>
        <time>2021-09-08T14:41:21.000Z</time>
      </trkpt>
      <trkpt lat="43.46003" lon="6.45449">
        <ele>231.5</ele>
        <time>2021-09-08T14:41:26.000Z</time>
      </trkpt>
      <trkpt lat="43.46003" lon="6.45442">
        <ele>231.5</ele>
        <time>2021-09-08T14:41:30.000Z</time>
      </trkpt>
      <trkpt lat="43.46002" lon="6.45434">
        <ele>231.3</ele>
        <time>2021-09-08T14:41:34.000Z</time>
      </trkpt>
      <trkpt lat="43.46001" lon="6.45428">
        <ele>231.2</ele>
        <time>2021-09-08T14:41:37.000Z</time>
      </trkpt>
      <trkpt lat="43.46" lon="6.45422">
        <ele>231</ele>
        <time>2021-09-08T14:41:41.000Z</time>
      </trkpt>
      <trkpt lat="43.45999" lon="6.45415">
        <ele>230.7</ele>
        <time>2021-09-08T14:41:46.000Z</time>
      </trkpt>
      <trkpt lat="43.45999" lon="6.45408">
        <ele>230.5</ele>
        <time>2021-09-08T14:41:52.000Z</time>
      </trkpt>
      <trkpt lat="43.46" lon="6.45402">
        <ele>230.4</ele>
        <time>2021-09-08T14:41:57.000Z</time>
      </trkpt>
      <trkpt lat="43.46" lon="6.45394">
        <ele>230.3</ele>
        <time>2021-09-08T14:42:02.000Z</time>
      </trkpt>
      <trkpt lat="43.46002" lon="6.45387">
        <ele>230.2</ele>
        <time>2021-09-08T14:42:08.000Z</time>
      </trkpt>
      <trkpt lat="43.46004" lon="6.45381">
        <ele>230.1</ele>
        <time>2021-09-08T14:42:14.000Z</time>
      </trkpt>
      <trkpt lat="43.46007" lon="6.45375">
        <ele>230.1</ele>
        <time>2021-09-08T14:42:20.000Z</time>
      </trkpt>
      <trkpt lat="43.46009" lon="6.4537">
        <ele>229.9</ele>
        <time>2021-09-08T14:42:25.000Z</time>
      </trkpt>
      <trkpt lat="43.4601" lon="6.45362">
        <ele>229.6</ele>
        <time>2021-09-08T14:42:30.000Z</time>
      </trkpt>
      <trkpt lat="43.4601" lon="6.45355">
        <ele>229.2</ele>
        <time>2021-09-08T14:42:35.000Z</time>
      </trkpt>
      <trkpt lat="43.4601" lon="6.45348">
        <ele>228.9</ele>
        <time>2021-09-08T14:42:39.000Z</time>
      </trkpt>
      <trkpt lat="43.46012" lon="6.45342">
        <ele>228.6</ele>
        <time>2021-09-08T14:42:43.000Z</time>
      </trkpt>
      <trkpt lat="43.46015" lon="6.45336">
        <ele>228.3</ele>
        <time>2021-09-08T14:42:48.000Z</time>
      </trkpt>
      <trkpt lat="43.46018" lon="6.45331">
        <ele>228.1</ele>
        <time>2021-09-08T14:42:52.000Z</time>
      </trkpt>
      <trkpt lat="43.46021" lon="6.45326">
        <ele>228</ele>
        <time>2021-09-08T14:42:56.000Z</time>
      </trkpt>
      <trkpt lat="43.46024" lon="6.45321">
        <ele>228.1</ele>
        <time>2021-09-08T14:43:01.000Z</time>
      </trkpt>
      <trkpt lat="43.46027" lon="6.45314">
        <ele>228.2</ele>
        <time>2021-09-08T14:43:06.000Z</time>
      </trkpt>
      <trkpt lat="43.46029" lon="6.45308">
        <ele>228.3</ele>
        <time>2021-09-08T14:43:11.000Z</time>
      </trkpt>
      <trkpt lat="43.46031" lon="6.45302">
        <ele>228.6</ele>
        <time>2021-09-08T14:43:16.000Z</time>
      </trkpt>
      <trkpt lat="43.46033" lon="6.45296">
        <ele>228.8</ele>
        <time>2021-09-08T14:43:20.000Z</time>
      </trkpt>
      <trkpt lat="43.46037" lon="6.4529">
        <ele>229.1</ele>
        <time>2021-09-08T14:43:24.000Z</time>
      </trkpt>
      <trkpt lat="43.46041" lon="6.45287">
        <ele>229.4</ele>
        <time>2021-09-08T14:43:29.000Z</time>
      </trkpt>
      <trkpt lat="43.46044" lon="6.45282">
        <ele>229.7</ele>
        <time>2021-09-08T14:43:33.000Z</time>
      </trkpt>
      <trkpt lat="43.46048" lon="6.45277">
        <ele>230</ele>
        <time>2021-09-08T14:43:38.000Z</time>
      </trkpt>
      <trkpt lat="43.46051" lon="6.45272">
        <ele>230.3</ele>
        <time>2021-09-08T14:43:42.000Z</time>
      </trkpt>
      <trkpt lat="43.46054" lon="6.45266">
        <ele>230.8</ele>
        <time>2021-09-08T14:43:47.000Z</time>
      </trkpt>
      <trkpt lat="43.46055" lon="6.45259">
        <ele>231.2</ele>
        <time>2021-09-08T14:43:52.000Z</time>
      </trkpt>
      <trkpt lat="43.46057" lon="6.45253">
        <ele>231.5</ele>
        <time>2021-09-08T14:43:56.000Z</time>
      </trkpt>
      <trkpt lat="43.46058" lon="6.45246">
        <ele>231.8</ele>
        <time>2021-09-08T14:44:00.000Z</time>
      </trkpt>
      <trkpt lat="43.4606" lon="6.45239">
        <ele>232.1</ele>
        <time>2021-09-08T14:44:05.000Z</time>
      </trkpt>
      <trkpt lat="43.46061" lon="6.45233">
        <ele>232.3</ele>
        <time>2021-09-08T14:44:10.000Z</time>
      </trkpt>
      <trkpt lat="43.46063" lon="6.45227">
        <ele>232.4</ele>
        <time>2021-09-08T14:44:14.000Z</time>
      </trkpt>
      <trkpt lat="43.46065" lon="6.45221">
        <ele>232.5</ele>
        <time>2021-09-08T14:44:18.000Z</time>
      </trkpt>
      <trkpt lat="43.46068" lon="6.45215">
        <ele>232.5</ele>
        <time>2021-09-08T14:44:22.000Z</time>
      </trkpt>
      <trkpt lat="43.46071" lon="6.4521">
        <ele>232.6</ele>
        <time>2021-09-08T14:44:26.000Z</time>
      </trkpt>
      <trkpt lat="43.46074" lon="6.45205">
        <ele>232.6</ele>
        <time>2021-09-08T14:44:30.000Z</time>
      </trkpt>
      <trkpt lat="43.46078" lon="6.452">
        <ele>232.6</ele>
        <time>2021-09-08T14:44:34.000Z</time>
      </trkpt>
      <trkpt lat="43.46081" lon="6.45195">
        <ele>232.6</ele>
        <time>2021-09-08T14:44:38.000Z</time>
      </trkpt>
      <trkpt lat="43.46084" lon="6.45189">
        <ele>232.6</ele>
        <time>2021-09-08T14:44:42.000Z</time>
      </trkpt>
      <trkpt lat="43.46086" lon="6.45183">
        <ele>232.6</ele>
        <time>2021-09-08T14:44:47.000Z</time>
      </trkpt>
      <trkpt lat="43.46088" lon="6.45177">
        <ele>232.6</ele>
        <time>2021-09-08T14:44:51.000Z</time>
      </trkpt>
      <trkpt lat="43.4609" lon="6.45172">
        <ele>232.6</ele>
        <time>2021-09-08T14:44:55.000Z</time>
      </trkpt>
      <trkpt lat="43.46093" lon="6.45166">
        <ele>232.5</ele>
        <time>2021-09-08T14:44:59.000Z</time>
      </trkpt>
      <trkpt lat="43.46095" lon="6.4516">
        <ele>232.3</ele>
        <time>2021-09-08T14:45:03.000Z</time>
      </trkpt>
      <trkpt lat="43.46097" lon="6.45154">
        <ele>232.1</ele>
        <time>2021-09-08T14:45:07.000Z</time>
      </trkpt>
      <trkpt lat="43.46099" lon="6.45146">
        <ele>231.8</ele>
        <time>2021-09-08T14:45:12.000Z</time>
      </trkpt>
      <trkpt lat="43.46101" lon="6.4514">
        <ele>231.3</ele>
        <time>2021-09-08T14:45:17.000Z</time>
      </trkpt>
      <trkpt lat="43.46101" lon="6.45133">
        <ele>230.7</ele>
        <time>2021-09-08T14:45:22.000Z</time>
      </trkpt>
      <trkpt lat="43.46103" lon="6.45127">
        <ele>230.1</ele>
        <time>2021-09-08T14:45:26.000Z</time>
      </trkpt>
      <trkpt lat="43.46103" lon="6.4512">
        <ele>229.1</ele>
        <time>2021-09-08T14:45:31.000Z</time>
      </trkpt>
      <trkpt lat="43.46105" lon="6.45114">
        <ele>228.4</ele>
        <time>2021-09-08T14:45:35.000Z</time>
      </trkpt>
      <trkpt lat="43.46107" lon="6.45107">
        <ele>227.8</ele>
        <time>2021-09-08T14:45:39.000Z</time>
      </trkpt>
      <trkpt lat="43.46109" lon="6.45101">
        <ele>227.3</ele>
        <time>2021-09-08T14:45:43.000Z</time>
      </trkpt>
      <trkpt lat="43.46111" lon="6.45093">
        <ele>226.9</ele>
        <time>2021-09-08T14:45:47.000Z</time>
      </trkpt>
      <trkpt lat="43.46113" lon="6.45087">
        <ele>226.6</ele>
        <time>2021-09-08T14:45:50.000Z</time>
      </trkpt>
      <trkpt lat="43.46116" lon="6.45081">
        <ele>226.2</ele>
        <time>2021-09-08T14:45:54.000Z</time>
      </trkpt>
      <trkpt lat="43.46117" lon="6.45074">
        <ele>225.6</ele>
        <time>2021-09-08T14:45:58.000Z</time>
      </trkpt>
      <trkpt lat="43.46118" lon="6.45067">
        <ele>225</ele>
        <time>2021-09-08T14:46:02.000Z</time>
      </trkpt>
      <trkpt lat="43.46118" lon="6.4506">
        <ele>224.6</ele>
        <time>2021-09-08T14:46:06.000Z</time>
      </trkpt>
      <trkpt lat="43.46119" lon="6.45053">
        <ele>224.3</ele>
        <time>2021-09-08T14:46:10.000Z</time>
      </trkpt>
      <trkpt lat="43.46119" lon="6.45046">
        <ele>224</ele>
        <time>2021-09-08T14:46:14.000Z</time>
      </trkpt>
      <trkpt lat="43.46118" lon="6.45039">
        <ele>223.8</ele>
        <time>2021-09-08T14:46:18.000Z</time>
      </trkpt>
      <trkpt lat="43.46117" lon="6.45032">
        <ele>223.7</ele>
        <time>2021-09-08T14:46:23.000Z</time>
      </trkpt>
      <trkpt lat="43.46117" lon="6.45025">
        <ele>223.5</ele>
        <time>2021-09-08T14:46:27.000Z</time>
      </trkpt>
      <trkpt lat="43.46117" lon="6.45018">
        <ele>223.5</ele>
        <time>2021-09-08T14:46:31.000Z</time>
      </trkpt>
      <trkpt lat="43.46116" lon="6.45012">
        <ele>223.4</ele>
        <time>2021-09-08T14:46:35.000Z</time>
      </trkpt>
      <trkpt lat="43.46115" lon="6.45005">
        <ele>223.4</ele>
        <time>2021-09-08T14:46:39.000Z</time>
      </trkpt>
      <trkpt lat="43.46115" lon="6.44999">
        <ele>223.3</ele>
        <time>2021-09-08T14:46:43.000Z</time>
      </trkpt>
      <trkpt lat="43.46114" lon="6.44993">
        <ele>223.3</ele>
        <time>2021-09-08T14:46:47.000Z</time>
      </trkpt>
      <trkpt lat="43.46115" lon="6.44986">
        <ele>223.3</ele>
        <time>2021-09-08T14:46:51.000Z</time>
      </trkpt>
      <trkpt lat="43.46115" lon="6.44979">
        <ele>223.2</ele>
        <time>2021-09-08T14:46:55.000Z</time>
      </trkpt>
      <trkpt lat="43.46114" lon="6.44972">
        <ele>223.2</ele>
        <time>2021-09-08T14:47:00.000Z</time>
      </trkpt>
      <trkpt lat="43.46114" lon="6.44964">
        <ele>223.2</ele>
        <time>2021-09-08T14:47:04.000Z</time>
      </trkpt>
      <trkpt lat="43.46115" lon="6.44958">
        <ele>223.2</ele>
        <time>2021-09-08T14:47:07.000Z</time>
      </trkpt>
      <trkpt lat="43.46114" lon="6.4495">
        <ele>223.2</ele>
        <time>2021-09-08T14:47:11.000Z</time>
      </trkpt>
      <trkpt lat="43.46113" lon="6.44944">
        <ele>223.2</ele>
        <time>2021-09-08T14:47:15.000Z</time>
      </trkpt>
      <trkpt lat="43.46112" lon="6.44937">
        <ele>223.2</ele>
        <time>2021-09-08T14:47:19.000Z</time>
      </trkpt>
      <trkpt lat="43.46111" lon="6.4493">
        <ele>223.2</ele>
        <time>2021-09-08T14:47:23.000Z</time>
      </trkpt>
      <trkpt lat="43.4611" lon="6.44924">
        <ele>223.2</ele>
        <time>2021-09-08T14:47:27.000Z</time>
      </trkpt>
      <trkpt lat="43.46109" lon="6.44917">
        <ele>223.3</ele>
        <time>2021-09-08T14:47:31.000Z</time>
      </trkpt>
      <trkpt lat="43.46108" lon="6.44911">
        <ele>223.4</ele>
        <time>2021-09-08T14:47:35.000Z</time>
      </trkpt>
      <trkpt lat="43.46106" lon="6.44905">
        <ele>223.5</ele>
        <time>2021-09-08T14:47:39.000Z</time>
      </trkpt>
      <trkpt lat="43.46104" lon="6.44898">
        <ele>223.6</ele>
        <time>2021-09-08T14:47:44.000Z</time>
      </trkpt>
      <trkpt lat="43.46103" lon="6.44892">
        <ele>223.7</ele>
        <time>2021-09-08T14:47:48.000Z</time>
      </trkpt>
      <trkpt lat="43.46101" lon="6.44885">
        <ele>223.9</ele>
        <time>2021-09-08T14:47:53.000Z</time>
      </trkpt>
      <trkpt lat="43.46101" lon="6.44879">
        <ele>224</ele>
        <time>2021-09-08T14:47:57.000Z</time>
      </trkpt>
      <trkpt lat="43.461" lon="6.44872">
        <ele>224.1</ele>
        <time>2021-09-08T14:48:02.000Z</time>
      </trkpt>
      <trkpt lat="43.46099" lon="6.44865">
        <ele>224.5</ele>
        <time>2021-09-08T14:48:07.000Z</time>
      </trkpt>
      <trkpt lat="43.46097" lon="6.44858">
        <ele>224.7</ele>
        <time>2021-09-08T14:48:11.000Z</time>
      </trkpt>
      <trkpt lat="43.46096" lon="6.44852">
        <ele>224.9</ele>
        <time>2021-09-08T14:48:15.000Z</time>
      </trkpt>
      <trkpt lat="43.46095" lon="6.44846">
        <ele>225.1</ele>
        <time>2021-09-08T14:48:19.000Z</time>
      </trkpt>
      <trkpt lat="43.46094" lon="6.44838">
        <ele>225.3</ele>
        <time>2021-09-08T14:48:24.000Z</time>
      </trkpt>
      <trkpt lat="43.46093" lon="6.44831">
        <ele>225.4</ele>
        <time>2021-09-08T14:48:29.000Z</time>
      </trkpt>
      <trkpt lat="43.46092" lon="6.44824">
        <ele>225.5</ele>
        <time>2021-09-08T14:48:33.000Z</time>
      </trkpt>
      <trkpt lat="43.4609" lon="6.44817">
        <ele>225.6</ele>
        <time>2021-09-08T14:48:37.000Z</time>
      </trkpt>
      <trkpt lat="43.46087" lon="6.44812">
        <ele>225.7</ele>
        <time>2021-09-08T14:48:41.000Z</time>
      </trkpt>
      <trkpt lat="43.46084" lon="6.44807">
        <ele>225.9</ele>
        <time>2021-09-08T14:48:45.000Z</time>
      </trkpt>
      <trkpt lat="43.46081" lon="6.44802">
        <ele>226.1</ele>
        <time>2021-09-08T14:48:50.000Z</time>
      </trkpt>
      <trkpt lat="43.46079" lon="6.44796">
        <ele>226.3</ele>
        <time>2021-09-08T14:48:55.000Z</time>
      </trkpt>
      <trkpt lat="43.46077" lon="6.44789">
        <ele>226.5</ele>
        <time>2021-09-08T14:49:00.000Z</time>
      </trkpt>
      <trkpt lat="43.46076" lon="6.44783">
        <ele>226.7</ele>
        <time>2021-09-08T14:49:05.000Z</time>
      </trkpt>
      <trkpt lat="43.46075" lon="6.44775">
        <ele>227</ele>
        <time>2021-09-08T14:49:10.000Z</time>
      </trkpt>
      <trkpt lat="43.46074" lon="6.44768">
        <ele>227.3</ele>
        <time>2021-09-08T14:49:14.000Z</time>
      </trkpt>
      <trkpt lat="43.46073" lon="6.44761">
        <ele>227.6</ele>
        <time>2021-09-08T14:49:19.000Z</time>
      </trkpt>
      <trkpt lat="43.46071" lon="6.44753">
        <ele>227.8</ele>
        <time>2021-09-08T14:49:23.000Z</time>
      </trkpt>
      <trkpt lat="43.4607" lon="6.44746">
        <ele>228</ele>
        <time>2021-09-08T14:49:27.000Z</time>
      </trkpt>
      <trkpt lat="43.46068" lon="6.4474">
        <ele>228.2</ele>
        <time>2021-09-08T14:49:32.000Z</time>
      </trkpt>
      <trkpt lat="43.46066" lon="6.44733">
        <ele>228.6</ele>
        <time>2021-09-08T14:49:37.000Z</time>
      </trkpt>
      <trkpt lat="43.46065" lon="6.44726">
        <ele>228.9</ele>
        <time>2021-09-08T14:49:41.000Z</time>
      </trkpt>
      <trkpt lat="43.46065" lon="6.44719">
        <ele>229.2</ele>
        <time>2021-09-08T14:49:47.000Z</time>
      </trkpt>
      <trkpt lat="43.46064" lon="6.44712">
        <ele>229.5</ele>
        <time>2021-09-08T14:49:51.000Z</time>
      </trkpt>
      <trkpt lat="43.46063" lon="6.44705">
        <ele>229.7</ele>
        <time>2021-09-08T14:49:55.000Z</time>
      </trkpt>
      <trkpt lat="43.46062" lon="6.44698">
        <ele>230.2</ele>
        <time>2021-09-08T14:50:00.000Z</time>
      </trkpt>
      <trkpt lat="43.4606" lon="6.44692">
        <ele>230.6</ele>
        <time>2021-09-08T14:50:05.000Z</time>
      </trkpt>
      <trkpt lat="43.46058" lon="6.44686">
        <ele>230.9</ele>
        <time>2021-09-08T14:50:11.000Z</time>
      </trkpt>
      <trkpt lat="43.46057" lon="6.44679">
        <ele>231.3</ele>
        <time>2021-09-08T14:50:16.000Z</time>
      </trkpt>
      <trkpt lat="43.46055" lon="6.44672">
        <ele>231.7</ele>
        <time>2021-09-08T14:50:21.000Z</time>
      </trkpt>
      <trkpt lat="43.46054" lon="6.44666">
        <ele>232</ele>
        <time>2021-09-08T14:50:26.000Z</time>
      </trkpt>
      <trkpt lat="43.46052" lon="6.44659">
        <ele>232.2</ele>
        <time>2021-09-08T14:50:31.000Z</time>
      </trkpt>
      <trkpt lat="43.46051" lon="6.44652">
        <ele>232.5</ele>
        <time>2021-09-08T14:50:36.000Z</time>
      </trkpt>
      <trkpt lat="43.46048" lon="6.44646">
        <ele>233.1</ele>
        <time>2021-09-08T14:50:41.000Z</time>
      </trkpt>
      <trkpt lat="43.46048" lon="6.44638">
        <ele>233.4</ele>
        <time>2021-09-08T14:50:45.000Z</time>
      </trkpt>
      <trkpt lat="43.46047" lon="6.44631">
        <ele>233.6</ele>
        <time>2021-09-08T14:50:49.000Z</time>
      </trkpt>
      <trkpt lat="43.46045" lon="6.44624">
        <ele>233.9</ele>
        <time>2021-09-08T14:50:54.000Z</time>
      </trkpt>
      <trkpt lat="43.46044" lon="6.44617">
        <ele>234</ele>
        <time>2021-09-08T14:50:59.000Z</time>
      </trkpt>
      <trkpt lat="43.46043" lon="6.4461">
        <ele>234.3</ele>
        <time>2021-09-08T14:51:05.000Z</time>
      </trkpt>
      <trkpt lat="43.46043" lon="6.44604">
        <ele>234.6</ele>
        <time>2021-09-08T14:51:11.000Z</time>
      </trkpt>
      <trkpt lat="43.46043" lon="6.44597">
        <ele>234.9</ele>
        <time>2021-09-08T14:51:17.000Z</time>
      </trkpt>
      <trkpt lat="43.46043" lon="6.4459">
        <ele>235.2</ele>
        <time>2021-09-08T14:51:21.000Z</time>
      </trkpt>
      <trkpt lat="43.46044" lon="6.44584">
        <ele>235.5</ele>
        <time>2021-09-08T14:51:25.000Z</time>
      </trkpt>
      <trkpt lat="43.46043" lon="6.44577">
        <ele>235.7</ele>
        <time>2021-09-08T14:51:30.000Z</time>
      </trkpt>
      <trkpt lat="43.46043" lon="6.4457">
        <ele>235.9</ele>
        <time>2021-09-08T14:51:35.000Z</time>
      </trkpt>
      <trkpt lat="43.46041" lon="6.44563">
        <ele>236.2</ele>
        <time>2021-09-08T14:51:42.000Z</time>
      </trkpt>
      <trkpt lat="43.46039" lon="6.44557">
        <ele>236.6</ele>
        <time>2021-09-08T14:51:48.000Z</time>
      </trkpt>
      <trkpt lat="43.46038" lon="6.4455">
        <ele>237</ele>
        <time>2021-09-08T14:51:54.000Z</time>
      </trkpt>
      <trkpt lat="43.46036" lon="6.44545">
        <ele>237.7</ele>
        <time>2021-09-08T14:52:02.000Z</time>
      </trkpt>
      <trkpt lat="43.46033" lon="6.4454">
        <ele>238.4</ele>
        <time>2021-09-08T14:52:09.000Z</time>
      </trkpt>
      <trkpt lat="43.4603" lon="6.44535">
        <ele>239.1</ele>
        <time>2021-09-08T14:52:17.000Z</time>
      </trkpt>
      <trkpt lat="43.46027" lon="6.4453">
        <ele>239.6</ele>
        <time>2021-09-08T14:52:23.000Z</time>
      </trkpt>
      <trkpt lat="43.46024" lon="6.44525">
        <ele>239.9</ele>
        <time>2021-09-08T14:52:29.000Z</time>
      </trkpt>
      <trkpt lat="43.46022" lon="6.44519">
        <ele>240.3</ele>
        <time>2021-09-08T14:52:34.000Z</time>
      </trkpt>
      <trkpt lat="43.46019" lon="6.44514">
        <ele>240.7</ele>
        <time>2021-09-08T14:52:39.000Z</time>
      </trkpt>
      <trkpt lat="43.46016" lon="6.44509">
        <ele>240.9</ele>
        <time>2021-09-08T14:52:44.000Z</time>
      </trkpt>
      <trkpt lat="43.46014" lon="6.44503">
        <ele>241.2</ele>
        <time>2021-09-08T14:52:51.000Z</time>
      </trkpt>
      <trkpt lat="43.46013" lon="6.44496">
        <ele>241.3</ele>
        <time>2021-09-08T14:52:58.000Z</time>
      </trkpt>
      <trkpt lat="43.46013" lon="6.4449">
        <ele>241.4</ele>
        <time>2021-09-08T14:53:04.000Z</time>
      </trkpt>
      <trkpt lat="43.46014" lon="6.44483">
        <ele>241.6</ele>
        <time>2021-09-08T14:53:09.000Z</time>
      </trkpt>
      <trkpt lat="43.46015" lon="6.44476">
        <ele>241.7</ele>
        <time>2021-09-08T14:53:14.000Z</time>
      </trkpt>
      <trkpt lat="43.46017" lon="6.4447">
        <ele>241.8</ele>
        <time>2021-09-08T14:53:20.000Z</time>
      </trkpt>
      <trkpt lat="43.46019" lon="6.44464">
        <ele>241.8</ele>
        <time>2021-09-08T14:53:24.000Z</time>
      </trkpt>
      <trkpt lat="43.46021" lon="6.44458">
        <ele>241.8</ele>
        <time>2021-09-08T14:53:28.000Z</time>
      </trkpt>
      <trkpt lat="43.46023" lon="6.44451">
        <ele>241.9</ele>
        <time>2021-09-08T14:53:33.000Z</time>
      </trkpt>
      <trkpt lat="43.46025" lon="6.44444">
        <ele>241.9</ele>
        <time>2021-09-08T14:53:38.000Z</time>
      </trkpt>
      <trkpt lat="43.46027" lon="6.44438">
        <ele>241.9</ele>
        <time>2021-09-08T14:53:43.000Z</time>
      </trkpt>
      <trkpt lat="43.4603" lon="6.44433">
        <ele>241.9</ele>
        <time>2021-09-08T14:53:47.000Z</time>
      </trkpt>
      <trkpt lat="43.46032" lon="6.44427">
        <ele>241.9</ele>
        <time>2021-09-08T14:53:52.000Z</time>
      </trkpt>
      <trkpt lat="43.46034" lon="6.44421">
        <ele>241.5</ele>
        <time>2021-09-08T14:53:58.000Z</time>
      </trkpt>
      <trkpt lat="43.46036" lon="6.44415">
        <ele>241.2</ele>
        <time>2021-09-08T14:54:03.000Z</time>
      </trkpt>
      <trkpt lat="43.46037" lon="6.44408">
        <ele>241</ele>
        <time>2021-09-08T14:54:09.000Z</time>
      </trkpt>
      <trkpt lat="43.46039" lon="6.44401">
        <ele>240.9</ele>
        <time>2021-09-08T14:54:14.000Z</time>
      </trkpt>
      <trkpt lat="43.4604" lon="6.44394">
        <ele>240.8</ele>
        <time>2021-09-08T14:54:21.000Z</time>
      </trkpt>
      <trkpt lat="43.46041" lon="6.44388">
        <ele>240.6</ele>
        <time>2021-09-08T14:54:26.000Z</time>
      </trkpt>
      <trkpt lat="43.46042" lon="6.44382">
        <ele>240.3</ele>
        <time>2021-09-08T14:54:30.000Z</time>
      </trkpt>
      <trkpt lat="43.46044" lon="6.44374">
        <ele>239.9</ele>
        <time>2021-09-08T14:54:35.000Z</time>
      </trkpt>
      <trkpt lat="43.46044" lon="6.44368">
        <ele>239.4</ele>
        <time>2021-09-08T14:54:41.000Z</time>
      </trkpt>
      <trkpt lat="43.46045" lon="6.4436">
        <ele>238.7</ele>
        <time>2021-09-08T14:54:47.000Z</time>
      </trkpt>
      <trkpt lat="43.46046" lon="6.44354">
        <ele>238.2</ele>
        <time>2021-09-08T14:54:52.000Z</time>
      </trkpt>
      <trkpt lat="43.46047" lon="6.44347">
        <ele>237.8</ele>
        <time>2021-09-08T14:54:57.000Z</time>
      </trkpt>
      <trkpt lat="43.46049" lon="6.4434">
        <ele>237.6</ele>
        <time>2021-09-08T14:55:02.000Z</time>
      </trkpt>
      <trkpt lat="43.46051" lon="6.44334">
        <ele>237.4</ele>
        <time>2021-09-08T14:55:07.000Z</time>
      </trkpt>
      <trkpt lat="43.46053" lon="6.44328">
        <ele>237.3</ele>
        <time>2021-09-08T14:55:11.000Z</time>
      </trkpt>
      <trkpt lat="43.46055" lon="6.44322">
        <ele>237.1</ele>
        <time>2021-09-08T14:55:16.000Z</time>
      </trkpt>
      <trkpt lat="43.46057" lon="6.44316">
        <ele>237</ele>
        <time>2021-09-08T14:55:21.000Z</time>
      </trkpt>
      <trkpt lat="43.4606" lon="6.4431">
        <ele>236.7</ele>
        <time>2021-09-08T14:55:26.000Z</time>
      </trkpt>
      <trkpt lat="43.46062" lon="6.44303">
        <ele>236.6</ele>
        <time>2021-09-08T14:55:31.000Z</time>
      </trkpt>
      <trkpt lat="43.46064" lon="6.44297">
        <ele>236.4</ele>
        <time>2021-09-08T14:55:36.000Z</time>
      </trkpt>
      <trkpt lat="43.46067" lon="6.44291">
        <ele>236.4</ele>
        <time>2021-09-08T14:55:41.000Z</time>
      </trkpt>
      <trkpt lat="43.46069" lon="6.44284">
        <ele>236.2</ele>
        <time>2021-09-08T14:55:46.000Z</time>
      </trkpt>
      <trkpt lat="43.46071" lon="6.44279">
        <ele>235.9</ele>
        <time>2021-09-08T14:55:51.000Z</time>
      </trkpt>
      <trkpt lat="43.46074" lon="6.44272">
        <ele>235.6</ele>
        <time>2021-09-08T14:55:57.000Z</time>
      </trkpt>
      <trkpt lat="43.46076" lon="6.44265">
        <ele>235.4</ele>
        <time>2021-09-08T14:56:02.000Z</time>
      </trkpt>
      <trkpt lat="43.46078" lon="6.44259">
        <ele>235.1</ele>
        <time>2021-09-08T14:56:06.000Z</time>
      </trkpt>
      <trkpt lat="43.46079" lon="6.44252">
        <ele>234.9</ele>
        <time>2021-09-08T14:56:10.000Z</time>
      </trkpt>
      <trkpt lat="43.46081" lon="6.44246">
        <ele>234.6</ele>
        <time>2021-09-08T14:56:15.000Z</time>
      </trkpt>
      <trkpt lat="43.46083" lon="6.44239">
        <ele>234.4</ele>
        <time>2021-09-08T14:56:20.000Z</time>
      </trkpt>
      <trkpt lat="43.46085" lon="6.44232">
        <ele>234</ele>
        <time>2021-09-08T14:56:25.000Z</time>
      </trkpt>
      <trkpt lat="43.46087" lon="6.44225">
        <ele>233.6</ele>
        <time>2021-09-08T14:56:30.000Z</time>
      </trkpt>
      <trkpt lat="43.46088" lon="6.44219">
        <ele>233.2</ele>
        <time>2021-09-08T14:56:34.000Z</time>
      </trkpt>
      <trkpt lat="43.4609" lon="6.44213">
        <ele>232.2</ele>
        <time>2021-09-08T14:56:40.000Z</time>
      </trkpt>
      <trkpt lat="43.46091" lon="6.44206">
        <ele>231.6</ele>
        <time>2021-09-08T14:56:44.000Z</time>
      </trkpt>
      <trkpt lat="43.46093" lon="6.44199">
        <ele>231.1</ele>
        <time>2021-09-08T14:56:48.000Z</time>
      </trkpt>
      <trkpt lat="43.46095" lon="6.44191">
        <ele>230.8</ele>
        <time>2021-09-08T14:56:52.000Z</time>
      </trkpt>
      <trkpt lat="43.46098" lon="6.44185">
        <ele>230.5</ele>
        <time>2021-09-08T14:56:56.000Z</time>
      </trkpt>
      <trkpt lat="43.461" lon="6.4418">
        <ele>230.3</ele>
        <time>2021-09-08T14:57:00.000Z</time>
      </trkpt>
      <trkpt lat="43.46103" lon="6.44173">
        <ele>230.1</ele>
        <time>2021-09-08T14:57:04.000Z</time>
      </trkpt>
      <trkpt lat="43.46105" lon="6.44167">
        <ele>230</ele>
        <time>2021-09-08T14:57:08.000Z</time>
      </trkpt>
      <trkpt lat="43.46108" lon="6.44161">
        <ele>229.9</ele>
        <time>2021-09-08T14:57:13.000Z</time>
      </trkpt>
      <trkpt lat="43.4611" lon="6.44154">
        <ele>229.6</ele>
        <time>2021-09-08T14:57:18.000Z</time>
      </trkpt>
      <trkpt lat="43.46112" lon="6.44149">
        <ele>229.4</ele>
        <time>2021-09-08T14:57:23.000Z</time>
      </trkpt>
      <trkpt lat="43.46115" lon="6.44142">
        <ele>229.2</ele>
        <time>2021-09-08T14:57:28.000Z</time>
      </trkpt>
      <trkpt lat="43.46117" lon="6.44136">
        <ele>229.1</ele>
        <time>2021-09-08T14:57:33.000Z</time>
      </trkpt>
      <trkpt lat="43.46119" lon="6.4413">
        <ele>228.9</ele>
        <time>2021-09-08T14:57:38.000Z</time>
      </trkpt>
      <trkpt lat="43.46121" lon="6.44123">
        <ele>228.5</ele>
        <time>2021-09-08T14:57:43.000Z</time>
      </trkpt>
      <trkpt lat="43.46121" lon="6.44116">
        <ele>228.1</ele>
        <time>2021-09-08T14:57:48.000Z</time>
      </trkpt>
      <trkpt lat="43.46122" lon="6.4411">
        <ele>227.8</ele>
        <time>2021-09-08T14:57:55.000Z</time>
      </trkpt>
      <trkpt lat="43.46123" lon="6.44103">
        <ele>227.4</ele>
        <time>2021-09-08T14:58:01.000Z</time>
      </trkpt>
      <trkpt lat="43.46123" lon="6.44096">
        <ele>227.2</ele>
        <time>2021-09-08T14:58:05.000Z</time>
      </trkpt>
      <trkpt lat="43.46124" lon="6.4409">
        <ele>227.1</ele>
        <time>2021-09-08T14:58:08.000Z</time>
      </trkpt>
      <trkpt lat="43.46126" lon="6.44084">
        <ele>227</ele>
        <time>2021-09-08T14:58:12.000Z</time>
      </trkpt>
      <trkpt lat="43.46128" lon="6.44077">
        <ele>226.9</ele>
        <time>2021-09-08T14:58:16.000Z</time>
      </trkpt>
      <trkpt lat="43.4613" lon="6.4407">
        <ele>226.6</ele>
        <time>2021-09-08T14:58:20.000Z</time>
      </trkpt>
      <trkpt lat="43.46132" lon="6.44064">
        <ele>226.4</ele>
        <time>2021-09-08T14:58:24.000Z</time>
      </trkpt>
      <trkpt lat="43.46134" lon="6.44058">
        <ele>226.3</ele>
        <time>2021-09-08T14:58:28.000Z</time>
      </trkpt>
      <trkpt lat="43.46137" lon="6.44051">
        <ele>226</ele>
        <time>2021-09-08T14:58:33.000Z</time>
      </trkpt>
      <trkpt lat="43.46139" lon="6.44044">
        <ele>225.6</ele>
        <time>2021-09-08T14:58:37.000Z</time>
      </trkpt>
      <trkpt lat="43.46141" lon="6.44037">
        <ele>225.3</ele>
        <time>2021-09-08T14:58:41.000Z</time>
      </trkpt>
      <trkpt lat="43.46143" lon="6.44031">
        <ele>225.1</ele>
        <time>2021-09-08T14:58:44.000Z</time>
      </trkpt>
      <trkpt lat="43.46145" lon="6.44024">
        <ele>224.9</ele>
        <time>2021-09-08T14:58:49.000Z</time>
      </trkpt>
      <trkpt lat="43.46146" lon="6.44018">
        <ele>224.7</ele>
        <time>2021-09-08T14:58:53.000Z</time>
      </trkpt>
      <trkpt lat="43.46147" lon="6.44012">
        <ele>224.5</ele>
        <time>2021-09-08T14:58:56.000Z</time>
      </trkpt>
      <trkpt lat="43.46149" lon="6.44005">
        <ele>224.3</ele>
        <time>2021-09-08T14:59:01.000Z</time>
      </trkpt>
      <trkpt lat="43.46151" lon="6.43999">
        <ele>224.2</ele>
        <time>2021-09-08T14:59:07.000Z</time>
      </trkpt>
      <trkpt lat="43.46154" lon="6.43993">
        <ele>224</ele>
        <time>2021-09-08T14:59:11.000Z</time>
      </trkpt>
      <trkpt lat="43.46154" lon="6.43986">
        <ele>223.9</ele>
        <time>2021-09-08T14:59:17.000Z</time>
      </trkpt>
      <trkpt lat="43.46157" lon="6.4398">
        <ele>223.7</ele>
        <time>2021-09-08T14:59:21.000Z</time>
      </trkpt>
      <trkpt lat="43.46159" lon="6.43972">
        <ele>223.6</ele>
        <time>2021-09-08T14:59:25.000Z</time>
      </trkpt>
      <trkpt lat="43.4616" lon="6.43965">
        <ele>223.5</ele>
        <time>2021-09-08T14:59:29.000Z</time>
      </trkpt>
      <trkpt lat="43.46162" lon="6.43958">
        <ele>223.4</ele>
        <time>2021-09-08T14:59:33.000Z</time>
      </trkpt>
      <trkpt lat="43.46163" lon="6.43951">
        <ele>223.3</ele>
        <time>2021-09-08T14:59:37.000Z</time>
      </trkpt>
      <trkpt lat="43.46165" lon="6.43945">
        <ele>223.1</ele>
        <time>2021-09-08T14:59:41.000Z</time>
      </trkpt>
      <trkpt lat="43.46166" lon="6.43938">
        <ele>222.8</ele>
        <time>2021-09-08T14:59:46.000Z</time>
      </trkpt>
      <trkpt lat="43.46168" lon="6.43932">
        <ele>222.5</ele>
        <time>2021-09-08T14:59:52.000Z</time>
      </trkpt>
      <trkpt lat="43.4617" lon="6.43924">
        <ele>222.1</ele>
        <time>2021-09-08T14:59:57.000Z</time>
      </trkpt>
      <trkpt lat="43.46171" lon="6.43917">
        <ele>221.8</ele>
        <time>2021-09-08T15:00:02.000Z</time>
      </trkpt>
      <trkpt lat="43.46172" lon="6.43909">
        <ele>221.6</ele>
        <time>2021-09-08T15:00:06.000Z</time>
      </trkpt>
      <trkpt lat="43.46174" lon="6.43902">
        <ele>221.4</ele>
        <time>2021-09-08T15:00:10.000Z</time>
      </trkpt>
      <trkpt lat="43.46175" lon="6.43896">
        <ele>220.7</ele>
        <time>2021-09-08T15:00:15.000Z</time>
      </trkpt>
      <trkpt lat="43.46176" lon="6.43889">
        <ele>220.3</ele>
        <time>2021-09-08T15:00:19.000Z</time>
      </trkpt>
      <trkpt lat="43.46176" lon="6.43881">
        <ele>219.9</ele>
        <time>2021-09-08T15:00:24.000Z</time>
      </trkpt>
      <trkpt lat="43.46177" lon="6.43875">
        <ele>219.8</ele>
        <time>2021-09-08T15:00:28.000Z</time>
      </trkpt>
      <trkpt lat="43.46178" lon="6.43869">
        <ele>219.7</ele>
        <time>2021-09-08T15:00:32.000Z</time>
      </trkpt>
      <trkpt lat="43.46179" lon="6.43862">
        <ele>219.4</ele>
        <time>2021-09-08T15:00:36.000Z</time>
      </trkpt>
      <trkpt lat="43.46181" lon="6.43857">
        <ele>219</ele>
        <time>2021-09-08T15:00:40.000Z</time>
      </trkpt>
      <trkpt lat="43.46183" lon="6.4385">
        <ele>218.7</ele>
        <time>2021-09-08T15:00:44.000Z</time>
      </trkpt>
      <trkpt lat="43.46185" lon="6.43844">
        <ele>218.2</ele>
        <time>2021-09-08T15:00:48.900Z</time>
      </trkpt>
      <trkpt lat="43.46187" lon="6.43837">
        <ele>217.8</ele>
        <time>2021-09-08T15:00:53.000Z</time>
      </trkpt>
      <trkpt lat="43.46188" lon="6.43832">
        <ele>217.6</ele>
        <time>2021-09-08T15:00:57.000Z</time>
      </trkpt>
      <trkpt lat="43.4619" lon="6.43825">
        <ele>217.4</ele>
        <time>2021-09-08T15:01:01.000Z</time>
      </trkpt>
      <trkpt lat="43.46192" lon="6.43819">
        <ele>217.1</ele>
        <time>2021-09-08T15:01:06.000Z</time>
      </trkpt>
      <trkpt lat="43.46194" lon="6.43813">
        <ele>216.5</ele>
        <time>2021-09-08T15:01:14.000Z</time>
      </trkpt>
      <trkpt lat="43.46197" lon="6.43808">
        <ele>215.8</ele>
        <time>2021-09-08T15:01:26.000Z</time>
      </trkpt>
      <trkpt lat="43.46193" lon="6.43804">
        <ele>215.1</ele>
        <time>2021-09-08T15:03:11.000Z</time>
      </trkpt>
      <trkpt lat="43.46193" lon="6.43797">
        <ele>215</ele>
        <time>2021-09-08T15:04:48.000Z</time>
      </trkpt>
      <trkpt lat="43.46189" lon="6.43795">
        <ele>215</ele>
        <time>2021-09-08T15:05:05.000Z</time>
      </trkpt>
      <trkpt lat="43.46193" lon="6.43798">
        <ele>215</ele>
        <time>2021-09-08T15:05:53.000Z</time>
      </trkpt>
      <trkpt lat="43.46193" lon="6.43792">
        <ele>215.1</ele>
        <time>2021-09-08T15:06:57.000Z</time>
      </trkpt>
      <trkpt lat="43.4619" lon="6.43797">
        <ele>215.2</ele>
        <time>2021-09-08T15:07:22.000Z</time>
      </trkpt>
      <trkpt lat="43.46186" lon="6.43794">
        <ele>214.4</ele>
        <time>2021-09-08T15:07:35.000Z</time>
      </trkpt>
      <trkpt lat="43.46183" lon="6.43789">
        <ele>214</ele>
        <time>2021-09-08T15:07:40.000Z</time>
      </trkpt>
      <trkpt lat="43.46179" lon="6.43786">
        <ele>213.6</ele>
        <time>2021-09-08T15:07:44.000Z</time>
      </trkpt>
      <trkpt lat="43.46176" lon="6.4378">
        <ele>212.9</ele>
        <time>2021-09-08T15:07:49.000Z</time>
      </trkpt>
      <trkpt lat="43.46172" lon="6.43776">
        <ele>212.3</ele>
        <time>2021-09-08T15:07:54.000Z</time>
      </trkpt>
      <trkpt lat="43.46169" lon="6.4377">
        <ele>211.9</ele>
        <time>2021-09-08T15:07:59.000Z</time>
      </trkpt>
      <trkpt lat="43.46166" lon="6.43764">
        <ele>211.3</ele>
        <time>2021-09-08T15:08:05.000Z</time>
      </trkpt>
      <trkpt lat="43.46162" lon="6.43761">
        <ele>211</ele>
        <time>2021-09-08T15:08:09.000Z</time>
      </trkpt>
      <trkpt lat="43.46158" lon="6.43757">
        <ele>210.5</ele>
        <time>2021-09-08T15:08:15.000Z</time>
      </trkpt>
      <trkpt lat="43.46153" lon="6.43753">
        <ele>209.9</ele>
        <time>2021-09-08T15:08:20.000Z</time>
      </trkpt>
      <trkpt lat="43.4615" lon="6.43749">
        <ele>209.4</ele>
        <time>2021-09-08T15:08:24.000Z</time>
      </trkpt>
      <trkpt lat="43.46145" lon="6.43746">
        <ele>209.1</ele>
        <time>2021-09-08T15:08:28.000Z</time>
      </trkpt>
      <trkpt lat="43.46141" lon="6.43744">
        <ele>208.7</ele>
        <time>2021-09-08T15:08:32.000Z</time>
      </trkpt>
      <trkpt lat="43.46136" lon="6.43743">
        <ele>208.2</ele>
        <time>2021-09-08T15:08:38.000Z</time>
      </trkpt>
      <trkpt lat="43.46132" lon="6.43743">
        <ele>207.9</ele>
        <time>2021-09-08T15:08:41.000Z</time>
      </trkpt>
      <trkpt lat="43.46127" lon="6.43744">
        <ele>207.6</ele>
        <time>2021-09-08T15:08:44.000Z</time>
      </trkpt>
      <trkpt lat="43.46122" lon="6.43744">
        <ele>207.2</ele>
        <time>2021-09-08T15:08:48.000Z</time>
      </trkpt>
      <trkpt lat="43.46117" lon="6.43744">
        <ele>206.6</ele>
        <time>2021-09-08T15:08:52.000Z</time>
      </trkpt>
      <trkpt lat="43.46113" lon="6.43745">
        <ele>206.1</ele>
        <time>2021-09-08T15:08:56.000Z</time>
      </trkpt>
      <trkpt lat="43.46108" lon="6.43748">
        <ele>205.8</ele>
        <time>2021-09-08T15:09:00.000Z</time>
      </trkpt>
      <trkpt lat="43.46102" lon="6.43751">
        <ele>205.5</ele>
        <time>2021-09-08T15:09:04.000Z</time>
      </trkpt>
      <trkpt lat="43.46097" lon="6.43755">
        <ele>205.3</ele>
        <time>2021-09-08T15:09:07.000Z</time>
      </trkpt>
      <trkpt lat="43.46093" lon="6.43758">
        <ele>205.2</ele>
        <time>2021-09-08T15:09:10.000Z</time>
      </trkpt>
      <trkpt lat="43.4609" lon="6.43763">
        <ele>204.9</ele>
        <time>2021-09-08T15:09:15.000Z</time>
      </trkpt>
      <trkpt lat="43.46087" lon="6.43768">
        <ele>204.3</ele>
        <time>2021-09-08T15:09:21.000Z</time>
      </trkpt>
      <trkpt lat="43.46083" lon="6.43773">
        <ele>204</ele>
        <time>2021-09-08T15:09:25.000Z</time>
      </trkpt>
      <trkpt lat="43.46081" lon="6.43778">
        <ele>203.6</ele>
        <time>2021-09-08T15:09:29.000Z</time>
      </trkpt>
      <trkpt lat="43.46078" lon="6.43785">
        <ele>203.3</ele>
        <time>2021-09-08T15:09:33.000Z</time>
      </trkpt>
      <trkpt lat="43.46074" lon="6.43791">
        <ele>203</ele>
        <time>2021-09-08T15:09:37.000Z</time>
      </trkpt>
      <trkpt lat="43.46072" lon="6.43798">
        <ele>202.7</ele>
        <time>2021-09-08T15:09:42.000Z</time>
      </trkpt>
      <trkpt lat="43.46069" lon="6.43804">
        <ele>202.3</ele>
        <time>2021-09-08T15:09:46.000Z</time>
      </trkpt>
      <trkpt lat="43.46067" lon="6.4381">
        <ele>201.9</ele>
        <time>2021-09-08T15:09:50.000Z</time>
      </trkpt>
      <trkpt lat="43.46064" lon="6.43814">
        <ele>201.5</ele>
        <time>2021-09-08T15:09:54.000Z</time>
      </trkpt>
      <trkpt lat="43.4606" lon="6.43819">
        <ele>201.1</ele>
        <time>2021-09-08T15:09:58.000Z</time>
      </trkpt>
      <trkpt lat="43.46058" lon="6.43825">
        <ele>200.6</ele>
        <time>2021-09-08T15:10:02.000Z</time>
      </trkpt>
      <trkpt lat="43.46055" lon="6.43831">
        <ele>200.2</ele>
        <time>2021-09-08T15:10:07.000Z</time>
      </trkpt>
      <trkpt lat="43.46052" lon="6.43835">
        <ele>200</ele>
        <time>2021-09-08T15:10:11.000Z</time>
      </trkpt>
      <trkpt lat="43.4605" lon="6.43841">
        <ele>199.8</ele>
        <time>2021-09-08T15:10:15.000Z</time>
      </trkpt>
      <trkpt lat="43.46047" lon="6.43847">
        <ele>199.5</ele>
        <time>2021-09-08T15:10:19.000Z</time>
      </trkpt>
      <trkpt lat="43.46044" lon="6.43853">
        <ele>199.2</ele>
        <time>2021-09-08T15:10:23.000Z</time>
      </trkpt>
      <trkpt lat="43.46042" lon="6.4386">
        <ele>198.9</ele>
        <time>2021-09-08T15:10:27.000Z</time>
      </trkpt>
      <trkpt lat="43.46039" lon="6.43866">
        <ele>198.5</ele>
        <time>2021-09-08T15:10:31.000Z</time>
      </trkpt>
      <trkpt lat="43.46036" lon="6.43872">
        <ele>198.2</ele>
        <time>2021-09-08T15:10:34.000Z</time>
      </trkpt>
      <trkpt lat="43.46033" lon="6.43879">
        <ele>197.6</ele>
        <time>2021-09-08T15:10:38.000Z</time>
      </trkpt>
      <trkpt lat="43.4603" lon="6.43884">
        <ele>197.1</ele>
        <time>2021-09-08T15:10:42.000Z</time>
      </trkpt>
      <trkpt lat="43.46026" lon="6.43889">
        <ele>196.7</ele>
        <time>2021-09-08T15:10:47.000Z</time>
      </trkpt>
      <trkpt lat="43.46022" lon="6.43892">
        <ele>196.3</ele>
        <time>2021-09-08T15:10:50.000Z</time>
      </trkpt>
      <trkpt lat="43.46017" lon="6.43893">
        <ele>195.5</ele>
        <time>2021-09-08T15:10:56.000Z</time>
      </trkpt>
      <trkpt lat="43.46012" lon="6.43896">
        <ele>194.9</ele>
        <time>2021-09-08T15:11:01.000Z</time>
      </trkpt>
      <trkpt lat="43.46008" lon="6.439">
        <ele>194.5</ele>
        <time>2021-09-08T15:11:04.000Z</time>
      </trkpt>
      <trkpt lat="43.46004" lon="6.43903">
        <ele>193.9</ele>
        <time>2021-09-08T15:11:10.000Z</time>
      </trkpt>
      <trkpt lat="43.46001" lon="6.43908">
        <ele>193.4</ele>
        <time>2021-09-08T15:11:16.000Z</time>
      </trkpt>
      <trkpt lat="43.45998" lon="6.43914">
        <ele>193.1</ele>
        <time>2021-09-08T15:11:21.000Z</time>
      </trkpt>
      <trkpt lat="43.45996" lon="6.43921">
        <ele>193</ele>
        <time>2021-09-08T15:11:25.000Z</time>
      </trkpt>
      <trkpt lat="43.45994" lon="6.43927">
        <ele>192.9</ele>
        <time>2021-09-08T15:11:29.000Z</time>
      </trkpt>
      <trkpt lat="43.45992" lon="6.43933">
        <ele>192.8</ele>
        <time>2021-09-08T15:11:33.000Z</time>
      </trkpt>
      <trkpt lat="43.45991" lon="6.4394">
        <ele>192.8</ele>
        <time>2021-09-08T15:11:38.000Z</time>
      </trkpt>
      <trkpt lat="43.45989" lon="6.43947">
        <ele>192.5</ele>
        <time>2021-09-08T15:11:43.000Z</time>
      </trkpt>
      <trkpt lat="43.45986" lon="6.43953">
        <ele>192.2</ele>
        <time>2021-09-08T15:11:47.000Z</time>
      </trkpt>
      <trkpt lat="43.45983" lon="6.43959">
        <ele>192</ele>
        <time>2021-09-08T15:11:51.000Z</time>
      </trkpt>
      <trkpt lat="43.45981" lon="6.43966">
        <ele>191.6</ele>
        <time>2021-09-08T15:11:56.000Z</time>
      </trkpt>
      <trkpt lat="43.45979" lon="6.43973">
        <ele>191.3</ele>
        <time>2021-09-08T15:12:00.000Z</time>
      </trkpt>
      <trkpt lat="43.45978" lon="6.43979">
        <ele>191</ele>
        <time>2021-09-08T15:12:04.000Z</time>
      </trkpt>
      <trkpt lat="43.45975" lon="6.43986">
        <ele>190.4</ele>
        <time>2021-09-08T15:12:10.000Z</time>
      </trkpt>
      <trkpt lat="43.45974" lon="6.43993">
        <ele>189.6</ele>
        <time>2021-09-08T15:12:16.000Z</time>
      </trkpt>
      <trkpt lat="43.45972" lon="6.43999">
        <ele>189</ele>
        <time>2021-09-08T15:12:22.000Z</time>
      </trkpt>
      <trkpt lat="43.4597" lon="6.44005">
        <ele>188.4</ele>
        <time>2021-09-08T15:12:29.000Z</time>
      </trkpt>
      <trkpt lat="43.45968" lon="6.44011">
        <ele>187.9</ele>
        <time>2021-09-08T15:12:36.000Z</time>
      </trkpt>
      <trkpt lat="43.45968" lon="6.44017">
        <ele>187.6</ele>
        <time>2021-09-08T15:12:43.000Z</time>
      </trkpt>
      <trkpt lat="43.45967" lon="6.44024">
        <ele>187.3</ele>
        <time>2021-09-08T15:12:57.000Z</time>
      </trkpt>
      <trkpt lat="43.45971" lon="6.44026">
        <ele>187.1</ele>
        <time>2021-09-08T15:13:08.000Z</time>
      </trkpt>
      <trkpt lat="43.45969" lon="6.44032">
        <ele>186.8</ele>
        <time>2021-09-08T15:13:57.000Z</time>
      </trkpt>
      <trkpt lat="43.45966" lon="6.44037">
        <ele>186.8</ele>
        <time>2021-09-08T15:14:51.000Z</time>
      </trkpt>
      <trkpt lat="43.45961" lon="6.4404">
        <ele>187.1</ele>
        <time>2021-09-08T15:14:56.000Z</time>
      </trkpt>
      <trkpt lat="43.45956" lon="6.44044">
        <ele>187.3</ele>
        <time>2021-09-08T15:15:02.000Z</time>
      </trkpt>
      <trkpt lat="43.45952" lon="6.44046">
        <ele>187.5</ele>
        <time>2021-09-08T15:15:07.000Z</time>
      </trkpt>
      <trkpt lat="43.45947" lon="6.44049">
        <ele>187.7</ele>
        <time>2021-09-08T15:15:11.000Z</time>
      </trkpt>
      <trkpt lat="43.45943" lon="6.44052">
        <ele>188</ele>
        <time>2021-09-08T15:15:18.000Z</time>
      </trkpt>
      <trkpt lat="43.45939" lon="6.44056">
        <ele>188.2</ele>
        <time>2021-09-08T15:15:22.000Z</time>
      </trkpt>
      <trkpt lat="43.45934" lon="6.44061">
        <ele>188.4</ele>
        <time>2021-09-08T15:15:27.000Z</time>
      </trkpt>
      <trkpt lat="43.4593" lon="6.44063">
        <ele>188.6</ele>
        <time>2021-09-08T15:15:31.000Z</time>
      </trkpt>
      <trkpt lat="43.45926" lon="6.44066">
        <ele>188.7</ele>
        <time>2021-09-08T15:15:34.000Z</time>
      </trkpt>
      <trkpt lat="43.45921" lon="6.44069">
        <ele>188.9</ele>
        <time>2021-09-08T15:15:38.000Z</time>
      </trkpt>
      <trkpt lat="43.45917" lon="6.44072">
        <ele>189.4</ele>
        <time>2021-09-08T15:15:43.000Z</time>
      </trkpt>
      <trkpt lat="43.45912" lon="6.44074">
        <ele>189.7</ele>
        <time>2021-09-08T15:15:46.000Z</time>
      </trkpt>
      <trkpt lat="43.45908" lon="6.44077">
        <ele>189.9</ele>
        <time>2021-09-08T15:15:49.000Z</time>
      </trkpt>
      <trkpt lat="43.45903" lon="6.44079">
        <ele>190.6</ele>
        <time>2021-09-08T15:15:54.000Z</time>
      </trkpt>
      <trkpt lat="43.45898" lon="6.44081">
        <ele>190.9</ele>
        <time>2021-09-08T15:15:57.000Z</time>
      </trkpt>
      <trkpt lat="43.45893" lon="6.44082">
        <ele>191.3</ele>
        <time>2021-09-08T15:16:00.000Z</time>
      </trkpt>
      <trkpt lat="43.45888" lon="6.44084">
        <ele>191.7</ele>
        <time>2021-09-08T15:16:04.000Z</time>
      </trkpt>
      <trkpt lat="43.45884" lon="6.44085">
        <ele>192.1</ele>
        <time>2021-09-08T15:16:08.000Z</time>
      </trkpt>
      <trkpt lat="43.45879" lon="6.44087">
        <ele>192.4</ele>
        <time>2021-09-08T15:16:12.000Z</time>
      </trkpt>
      <trkpt lat="43.45874" lon="6.44089">
        <ele>192.8</ele>
        <time>2021-09-08T15:16:18.000Z</time>
      </trkpt>
      <trkpt lat="43.45868" lon="6.4409">
        <ele>193.2</ele>
        <time>2021-09-08T15:16:22.000Z</time>
      </trkpt>
      <trkpt lat="43.45862" lon="6.44091">
        <ele>193.6</ele>
        <time>2021-09-08T15:16:26.000Z</time>
      </trkpt>
      <trkpt lat="43.45858" lon="6.44092">
        <ele>193.8</ele>
        <time>2021-09-08T15:16:30.000Z</time>
      </trkpt>
      <trkpt lat="43.45853" lon="6.44093">
        <ele>194.1</ele>
        <time>2021-09-08T15:16:36.000Z</time>
      </trkpt>
      <trkpt lat="43.45848" lon="6.44095">
        <ele>194.4</ele>
        <time>2021-09-08T15:16:40.000Z</time>
      </trkpt>
      <trkpt lat="43.45843" lon="6.44095">
        <ele>194.7</ele>
        <time>2021-09-08T15:16:44.000Z</time>
      </trkpt>
      <trkpt lat="43.45839" lon="6.44097">
        <ele>195</ele>
        <time>2021-09-08T15:16:48.000Z</time>
      </trkpt>
      <trkpt lat="43.45833" lon="6.44098">
        <ele>195.4</ele>
        <time>2021-09-08T15:16:52.000Z</time>
      </trkpt>
      <trkpt lat="43.45829" lon="6.44099">
        <ele>195.9</ele>
        <time>2021-09-08T15:16:56.000Z</time>
      </trkpt>
      <trkpt lat="43.45823" lon="6.44099">
        <ele>196.4</ele>
        <time>2021-09-08T15:17:01.000Z</time>
      </trkpt>
      <trkpt lat="43.45818" lon="6.44099">
        <ele>197</ele>
        <time>2021-09-08T15:17:06.000Z</time>
      </trkpt>
      <trkpt lat="43.45813" lon="6.44098">
        <ele>197.6</ele>
        <time>2021-09-08T15:17:12.000Z</time>
      </trkpt>
      <trkpt lat="43.45808" lon="6.44099">
        <ele>198.2</ele>
        <time>2021-09-08T15:17:17.000Z</time>
      </trkpt>
      <trkpt lat="43.45803" lon="6.44099">
        <ele>198.7</ele>
        <time>2021-09-08T15:17:22.000Z</time>
      </trkpt>
      <trkpt lat="43.45798" lon="6.44099">
        <ele>199.3</ele>
        <time>2021-09-08T15:17:27.000Z</time>
      </trkpt>
      <trkpt lat="43.45794" lon="6.44097">
        <ele>199.8</ele>
        <time>2021-09-08T15:17:31.000Z</time>
      </trkpt>
      <trkpt lat="43.45789" lon="6.44095">
        <ele>200.4</ele>
        <time>2021-09-08T15:17:35.000Z</time>
      </trkpt>
      <trkpt lat="43.45785" lon="6.44093">
        <ele>201</ele>
        <time>2021-09-08T15:17:39.000Z</time>
      </trkpt>
      <trkpt lat="43.45781" lon="6.44089">
        <ele>201.4</ele>
        <time>2021-09-08T15:17:43.000Z</time>
      </trkpt>
      <trkpt lat="43.45777" lon="6.44085">
        <ele>202</ele>
        <time>2021-09-08T15:17:47.000Z</time>
      </trkpt>
      <trkpt lat="43.45774" lon="6.4408">
        <ele>202.6</ele>
        <time>2021-09-08T15:17:52.000Z</time>
      </trkpt>
      <trkpt lat="43.4577" lon="6.44075">
        <ele>203</ele>
        <time>2021-09-08T15:17:56.000Z</time>
      </trkpt>
      <trkpt lat="43.45767" lon="6.44069">
        <ele>203.7</ele>
        <time>2021-09-08T15:18:01.000Z</time>
      </trkpt>
      <trkpt lat="43.45765" lon="6.44063">
        <ele>204.4</ele>
        <time>2021-09-08T15:18:06.000Z</time>
      </trkpt>
      <trkpt lat="43.45762" lon="6.44056">
        <ele>205</ele>
        <time>2021-09-08T15:18:11.000Z</time>
      </trkpt>
      <trkpt lat="43.45759" lon="6.4405">
        <ele>205.6</ele>
        <time>2021-09-08T15:18:16.000Z</time>
      </trkpt>
      <trkpt lat="43.45757" lon="6.44044">
        <ele>206.4</ele>
        <time>2021-09-08T15:18:21.000Z</time>
      </trkpt>
      <trkpt lat="43.45754" lon="6.44039">
        <ele>207</ele>
        <time>2021-09-08T15:18:26.000Z</time>
      </trkpt>
      <trkpt lat="43.45752" lon="6.44033">
        <ele>207.4</ele>
        <time>2021-09-08T15:18:31.000Z</time>
      </trkpt>
      <trkpt lat="43.4575" lon="6.44027">
        <ele>208.2</ele>
        <time>2021-09-08T15:18:36.000Z</time>
      </trkpt>
      <trkpt lat="43.45748" lon="6.44021">
        <ele>208.9</ele>
        <time>2021-09-08T15:18:41.000Z</time>
      </trkpt>
      <trkpt lat="43.45746" lon="6.44014">
        <ele>209.6</ele>
        <time>2021-09-08T15:18:47.000Z</time>
      </trkpt>
      <trkpt lat="43.45745" lon="6.44007">
        <ele>210.4</ele>
        <time>2021-09-08T15:18:53.000Z</time>
      </trkpt>
      <trkpt lat="43.45744" lon="6.44">
        <ele>211.1</ele>
        <time>2021-09-08T15:18:59.000Z</time>
      </trkpt>
      <trkpt lat="43.45743" lon="6.43994">
        <ele>211.7</ele>
        <time>2021-09-08T15:19:04.000Z</time>
      </trkpt>
      <trkpt lat="43.45743" lon="6.43987">
        <ele>212.6</ele>
        <time>2021-09-08T15:19:10.000Z</time>
      </trkpt>
      <trkpt lat="43.45744" lon="6.4398">
        <ele>213.2</ele>
        <time>2021-09-08T15:19:15.000Z</time>
      </trkpt>
      <trkpt lat="43.45744" lon="6.43973">
        <ele>213.8</ele>
        <time>2021-09-08T15:19:21.000Z</time>
      </trkpt>
      <trkpt lat="43.45745" lon="6.43967">
        <ele>214.2</ele>
        <time>2021-09-08T15:19:26.000Z</time>
      </trkpt>
      <trkpt lat="43.45746" lon="6.43961">
        <ele>214.8</ele>
        <time>2021-09-08T15:19:31.000Z</time>
      </trkpt>
      <trkpt lat="43.45747" lon="6.43955">
        <ele>215.4</ele>
        <time>2021-09-08T15:19:36.000Z</time>
      </trkpt>
      <trkpt lat="43.45748" lon="6.43948">
        <ele>216</ele>
        <time>2021-09-08T15:19:41.000Z</time>
      </trkpt>
      <trkpt lat="43.45749" lon="6.43941">
        <ele>216.6</ele>
        <time>2021-09-08T15:19:47.000Z</time>
      </trkpt>
      <trkpt lat="43.45749" lon="6.43933">
        <ele>217.2</ele>
        <time>2021-09-08T15:19:53.000Z</time>
      </trkpt>
      <trkpt lat="43.45749" lon="6.43926">
        <ele>217.8</ele>
        <time>2021-09-08T15:19:59.000Z</time>
      </trkpt>
      <trkpt lat="43.45748" lon="6.43919">
        <ele>218.4</ele>
        <time>2021-09-08T15:20:05.000Z</time>
      </trkpt>
      <trkpt lat="43.45748" lon="6.43912">
        <ele>219.2</ele>
        <time>2021-09-08T15:20:10.000Z</time>
      </trkpt>
      <trkpt lat="43.45748" lon="6.43906">
        <ele>219.9</ele>
        <time>2021-09-08T15:20:15.000Z</time>
      </trkpt>
      <trkpt lat="43.45747" lon="6.43899">
        <ele>220.6</ele>
        <time>2021-09-08T15:20:20.000Z</time>
      </trkpt>
      <trkpt lat="43.45746" lon="6.43893">
        <ele>221.1</ele>
        <time>2021-09-08T15:20:25.000Z</time>
      </trkpt>
      <trkpt lat="43.45745" lon="6.43887">
        <ele>221.5</ele>
        <time>2021-09-08T15:20:30.000Z</time>
      </trkpt>
      <trkpt lat="43.45744" lon="6.43881">
        <ele>221.9</ele>
        <time>2021-09-08T15:20:35.000Z</time>
      </trkpt>
      <trkpt lat="43.45742" lon="6.43875">
        <ele>222.4</ele>
        <time>2021-09-08T15:20:40.000Z</time>
      </trkpt>
      <trkpt lat="43.45741" lon="6.43869">
        <ele>223</ele>
        <time>2021-09-08T15:20:45.000Z</time>
      </trkpt>
      <trkpt lat="43.45739" lon="6.43862">
        <ele>223.6</ele>
        <time>2021-09-08T15:20:51.000Z</time>
      </trkpt>
      <trkpt lat="43.45738" lon="6.43856">
        <ele>224.2</ele>
        <time>2021-09-08T15:20:57.000Z</time>
      </trkpt>
      <trkpt lat="43.45736" lon="6.43849">
        <ele>224.8</ele>
        <time>2021-09-08T15:21:03.000Z</time>
      </trkpt>
      <trkpt lat="43.45735" lon="6.43843">
        <ele>225.5</ele>
        <time>2021-09-08T15:21:09.000Z</time>
      </trkpt>
      <trkpt lat="43.45733" lon="6.43836">
        <ele>226.1</ele>
        <time>2021-09-08T15:21:15.000Z</time>
      </trkpt>
      <trkpt lat="43.45731" lon="6.4383">
        <ele>226.7</ele>
        <time>2021-09-08T15:21:20.000Z</time>
      </trkpt>
      <trkpt lat="43.45729" lon="6.43825">
        <ele>227.2</ele>
        <time>2021-09-08T15:21:25.000Z</time>
      </trkpt>
      <trkpt lat="43.45727" lon="6.43819">
        <ele>227.8</ele>
        <time>2021-09-08T15:21:30.000Z</time>
      </trkpt>
      <trkpt lat="43.45724" lon="6.43814">
        <ele>228.5</ele>
        <time>2021-09-08T15:21:35.000Z</time>
      </trkpt>
      <trkpt lat="43.45721" lon="6.4381">
        <ele>229.1</ele>
        <time>2021-09-08T15:21:40.000Z</time>
      </trkpt>
      <trkpt lat="43.45717" lon="6.43804">
        <ele>229.8</ele>
        <time>2021-09-08T15:21:46.000Z</time>
      </trkpt>
      <trkpt lat="43.45714" lon="6.43799">
        <ele>230.7</ele>
        <time>2021-09-08T15:21:52.000Z</time>
      </trkpt>
      <trkpt lat="43.45711" lon="6.43794">
        <ele>231.4</ele>
        <time>2021-09-08T15:21:58.000Z</time>
      </trkpt>
      <trkpt lat="43.45708" lon="6.43789">
        <ele>232.1</ele>
        <time>2021-09-08T15:22:04.000Z</time>
      </trkpt>
      <trkpt lat="43.45705" lon="6.43784">
        <ele>232.8</ele>
        <time>2021-09-08T15:22:10.000Z</time>
      </trkpt>
      <trkpt lat="43.45702" lon="6.43778">
        <ele>233.6</ele>
        <time>2021-09-08T15:22:16.000Z</time>
      </trkpt>
      <trkpt lat="43.45699" lon="6.43772">
        <ele>234.3</ele>
        <time>2021-09-08T15:22:22.000Z</time>
      </trkpt>
      <trkpt lat="43.45696" lon="6.43768">
        <ele>234.9</ele>
        <time>2021-09-08T15:22:27.000Z</time>
      </trkpt>
      <trkpt lat="43.45693" lon="6.43763">
        <ele>235.5</ele>
        <time>2021-09-08T15:22:32.000Z</time>
      </trkpt>
      <trkpt lat="43.4569" lon="6.43758">
        <ele>236.3</ele>
        <time>2021-09-08T15:22:38.000Z</time>
      </trkpt>
      <trkpt lat="43.45686" lon="6.43753">
        <ele>237.2</ele>
        <time>2021-09-08T15:22:45.000Z</time>
      </trkpt>
      <trkpt lat="43.45682" lon="6.43749">
        <ele>237.8</ele>
        <time>2021-09-08T15:22:51.000Z</time>
      </trkpt>
      <trkpt lat="43.45678" lon="6.43745">
        <ele>238.6</ele>
        <time>2021-09-08T15:22:57.000Z</time>
      </trkpt>
      <trkpt lat="43.45673" lon="6.43742">
        <ele>239.3</ele>
        <time>2021-09-08T15:23:02.000Z</time>
      </trkpt>
      <trkpt lat="43.45669" lon="6.43739">
        <ele>239.8</ele>
        <time>2021-09-08T15:23:07.000Z</time>
      </trkpt>
      <trkpt lat="43.45665" lon="6.43736">
        <ele>240.5</ele>
        <time>2021-09-08T15:23:12.000Z</time>
      </trkpt>
      <trkpt lat="43.4566" lon="6.43734">
        <ele>241.2</ele>
        <time>2021-09-08T15:23:17.000Z</time>
      </trkpt>
      <trkpt lat="43.45655" lon="6.43731">
        <ele>241.8</ele>
        <time>2021-09-08T15:23:23.000Z</time>
      </trkpt>
      <trkpt lat="43.4565" lon="6.43729">
        <ele>242.4</ele>
        <time>2021-09-08T15:23:28.000Z</time>
      </trkpt>
      <trkpt lat="43.45645" lon="6.43727">
        <ele>242.9</ele>
        <time>2021-09-08T15:23:33.000Z</time>
      </trkpt>
      <trkpt lat="43.4564" lon="6.43725">
        <ele>243.7</ele>
        <time>2021-09-08T15:23:39.000Z</time>
      </trkpt>
      <trkpt lat="43.45635" lon="6.43725">
        <ele>244.4</ele>
        <time>2021-09-08T15:23:44.000Z</time>
      </trkpt>
      <trkpt lat="43.4563" lon="6.43724">
        <ele>244.9</ele>
        <time>2021-09-08T15:23:48.000Z</time>
      </trkpt>
      <trkpt lat="43.45625" lon="6.43724">
        <ele>245.4</ele>
        <time>2021-09-08T15:23:53.000Z</time>
      </trkpt>
      <trkpt lat="43.4562" lon="6.43724">
        <ele>245.7</ele>
        <time>2021-09-08T15:23:58.000Z</time>
      </trkpt>
      <trkpt lat="43.45616" lon="6.43723">
        <ele>246.1</ele>
        <time>2021-09-08T15:24:04.000Z</time>
      </trkpt>
      <trkpt lat="43.45611" lon="6.43724">
        <ele>246.6</ele>
        <time>2021-09-08T15:24:09.000Z</time>
      </trkpt>
      <trkpt lat="43.45605" lon="6.43724">
        <ele>247.4</ele>
        <time>2021-09-08T15:24:15.000Z</time>
      </trkpt>
      <trkpt lat="43.456" lon="6.43725">
        <ele>248.2</ele>
        <time>2021-09-08T15:24:21.000Z</time>
      </trkpt>
      <trkpt lat="43.45595" lon="6.43725">
        <ele>249.3</ele>
        <time>2021-09-08T15:24:28.000Z</time>
      </trkpt>
      <trkpt lat="43.4559" lon="6.43728">
        <ele>250.2</ele>
        <time>2021-09-08T15:24:35.000Z</time>
      </trkpt>
      <trkpt lat="43.45586" lon="6.43729">
        <ele>250.7</ele>
        <time>2021-09-08T15:24:41.000Z</time>
      </trkpt>
      <trkpt lat="43.45581" lon="6.4373">
        <ele>251.2</ele>
        <time>2021-09-08T15:24:47.000Z</time>
      </trkpt>
      <trkpt lat="43.45576" lon="6.4373">
        <ele>251.8</ele>
        <time>2021-09-08T15:24:53.000Z</time>
      </trkpt>
      <trkpt lat="43.45571" lon="6.43732">
        <ele>252.4</ele>
        <time>2021-09-08T15:24:59.000Z</time>
      </trkpt>
      <trkpt lat="43.45566" lon="6.43734">
        <ele>253</ele>
        <time>2021-09-08T15:25:05.000Z</time>
      </trkpt>
      <trkpt lat="43.45562" lon="6.43737">
        <ele>253.6</ele>
        <time>2021-09-08T15:25:11.000Z</time>
      </trkpt>
      <trkpt lat="43.45557" lon="6.4374">
        <ele>254.3</ele>
        <time>2021-09-08T15:25:17.000Z</time>
      </trkpt>
      <trkpt lat="43.45552" lon="6.43743">
        <ele>255</ele>
        <time>2021-09-08T15:25:23.000Z</time>
      </trkpt>
      <trkpt lat="43.45548" lon="6.43745">
        <ele>255.5</ele>
        <time>2021-09-08T15:25:28.000Z</time>
      </trkpt>
      <trkpt lat="43.45543" lon="6.43747">
        <ele>256.1</ele>
        <time>2021-09-08T15:25:33.000Z</time>
      </trkpt>
      <trkpt lat="43.45538" lon="6.4375">
        <ele>256.8</ele>
        <time>2021-09-08T15:25:39.000Z</time>
      </trkpt>
      <trkpt lat="43.45533" lon="6.43752">
        <ele>257.3</ele>
        <time>2021-09-08T15:25:45.000Z</time>
      </trkpt>
      <trkpt lat="43.45529" lon="6.43754">
        <ele>257.7</ele>
        <time>2021-09-08T15:25:50.000Z</time>
      </trkpt>
      <trkpt lat="43.45524" lon="6.43757">
        <ele>258.3</ele>
        <time>2021-09-08T15:25:56.000Z</time>
      </trkpt>
      <trkpt lat="43.4552" lon="6.4376">
        <ele>258.8</ele>
        <time>2021-09-08T15:26:02.000Z</time>
      </trkpt>
      <trkpt lat="43.45516" lon="6.43763">
        <ele>259.4</ele>
        <time>2021-09-08T15:26:08.000Z</time>
      </trkpt>
      <trkpt lat="43.45513" lon="6.43768">
        <ele>259.9</ele>
        <time>2021-09-08T15:26:14.000Z</time>
      </trkpt>
      <trkpt lat="43.4551" lon="6.43772">
        <ele>260.3</ele>
        <time>2021-09-08T15:26:21.000Z</time>
      </trkpt>
      <trkpt lat="43.45506" lon="6.43777">
        <ele>260.8</ele>
        <time>2021-09-08T15:26:28.000Z</time>
      </trkpt>
      <trkpt lat="43.45502" lon="6.4378">
        <ele>261.4</ele>
        <time>2021-09-08T15:26:34.000Z</time>
      </trkpt>
      <trkpt lat="43.45498" lon="6.43784">
        <ele>262.1</ele>
        <time>2021-09-08T15:26:41.000Z</time>
      </trkpt>
      <trkpt lat="43.455" lon="6.43779">
        <ele>263.3</ele>
        <time>2021-09-08T15:27:18.000Z</time>
      </trkpt>
      <trkpt lat="43.45496" lon="6.43778">
        <ele>263.4</ele>
        <time>2021-09-08T15:27:39.000Z</time>
      </trkpt>
      <trkpt lat="43.45498" lon="6.43783">
        <ele>263.5</ele>
        <time>2021-09-08T15:28:25.000Z</time>
      </trkpt>
      <trkpt lat="43.45496" lon="6.43788">
        <ele>263.3</ele>
        <time>2021-09-08T15:28:33.000Z</time>
      </trkpt>
      <trkpt lat="43.45493" lon="6.43793">
        <ele>263.2</ele>
        <time>2021-09-08T15:28:41.000Z</time>
      </trkpt>
      <trkpt lat="43.45492" lon="6.43799">
        <ele>263.1</ele>
        <time>2021-09-08T15:28:54.000Z</time>
      </trkpt>
      <trkpt lat="43.45496" lon="6.43797">
        <ele>262.8</ele>
        <time>2021-09-08T15:29:28.000Z</time>
      </trkpt>
      <trkpt lat="43.45499" lon="6.43791">
        <ele>262.8</ele>
        <time>2021-09-08T15:29:37.000Z</time>
      </trkpt>
      <trkpt lat="43.45497" lon="6.43786">
        <ele>262.8</ele>
        <time>2021-09-08T15:30:16.000Z</time>
      </trkpt>
      <trkpt lat="43.45497" lon="6.43779">
        <ele>262.7</ele>
        <time>2021-09-08T15:31:20.000Z</time>
      </trkpt>
      <trkpt lat="43.45501" lon="6.43777">
        <ele>262.9</ele>
        <time>2021-09-08T15:32:39.000Z</time>
      </trkpt>
      <trkpt lat="43.45504" lon="6.43773">
        <ele>262.9</ele>
        <time>2021-09-08T15:33:29.000Z</time>
      </trkpt>
      <trkpt lat="43.45509" lon="6.43771">
        <ele>262.6</ele>
        <time>2021-09-08T15:33:42.000Z</time>
      </trkpt>
      <trkpt lat="43.45513" lon="6.43768">
        <ele>262.4</ele>
        <time>2021-09-08T15:33:48.000Z</time>
      </trkpt>
      <trkpt lat="43.45517" lon="6.43764">
        <ele>262.2</ele>
        <time>2021-09-08T15:33:53.000Z</time>
      </trkpt>
      <trkpt lat="43.45521" lon="6.4376">
        <ele>261.9</ele>
        <time>2021-09-08T15:33:57.000Z</time>
      </trkpt>
      <trkpt lat="43.45524" lon="6.43754">
        <ele>261.5</ele>
        <time>2021-09-08T15:34:01.000Z</time>
      </trkpt>
      <trkpt lat="43.45527" lon="6.43748">
        <ele>261.1</ele>
        <time>2021-09-08T15:34:06.000Z</time>
      </trkpt>
      <trkpt lat="43.45531" lon="6.43744">
        <ele>260.8</ele>
        <time>2021-09-08T15:34:10.000Z</time>
      </trkpt>
      <trkpt lat="43.45534" lon="6.4374">
        <ele>260.6</ele>
        <time>2021-09-08T15:34:14.000Z</time>
      </trkpt>
      <trkpt lat="43.45539" lon="6.43736">
        <ele>260.2</ele>
        <time>2021-09-08T15:34:19.000Z</time>
      </trkpt>
      <trkpt lat="43.45543" lon="6.43731">
        <ele>259.7</ele>
        <time>2021-09-08T15:34:24.000Z</time>
      </trkpt>
      <trkpt lat="43.45546" lon="6.43726">
        <ele>259.4</ele>
        <time>2021-09-08T15:34:30.000Z</time>
      </trkpt>
      <trkpt lat="43.45547" lon="6.43719">
        <ele>259.4</ele>
        <time>2021-09-08T15:34:35.000Z</time>
      </trkpt>
      <trkpt lat="43.45548" lon="6.43712">
        <ele>259.5</ele>
        <time>2021-09-08T15:34:43.000Z</time>
      </trkpt>
      <trkpt lat="43.45547" lon="6.43705">
        <ele>259.5</ele>
        <time>2021-09-08T15:34:50.000Z</time>
      </trkpt>
      <trkpt lat="43.45547" lon="6.43698">
        <ele>259.6</ele>
        <time>2021-09-08T15:34:59.000Z</time>
      </trkpt>
      <trkpt lat="43.45545" lon="6.43692">
        <ele>259.6</ele>
        <time>2021-09-08T15:35:09.000Z</time>
      </trkpt>
      <trkpt lat="43.45542" lon="6.43687">
        <ele>259.6</ele>
        <time>2021-09-08T15:35:15.000Z</time>
      </trkpt>
      <trkpt lat="43.45538" lon="6.43682">
        <ele>259.6</ele>
        <time>2021-09-08T15:35:22.000Z</time>
      </trkpt>
      <trkpt lat="43.45538" lon="6.43676">
        <ele>259.3</ele>
        <time>2021-09-08T15:35:56.000Z</time>
      </trkpt>
      <trkpt lat="43.45541" lon="6.43672">
        <ele>259</ele>
        <time>2021-09-08T15:39:19.000Z</time>
      </trkpt>
      <trkpt lat="43.45546" lon="6.4367">
        <ele>258.9</ele>
        <time>2021-09-08T15:39:27.000Z</time>
      </trkpt>
      <trkpt lat="43.45551" lon="6.43671">
        <ele>258.8</ele>
        <time>2021-09-08T15:39:38.000Z</time>
      </trkpt>
      <trkpt lat="43.45555" lon="6.43673">
        <ele>258.8</ele>
        <time>2021-09-08T15:39:51.000Z</time>
      </trkpt>
      <trkpt lat="43.4556" lon="6.43673">
        <ele>258.7</ele>
        <time>2021-09-08T15:40:08.000Z</time>
      </trkpt>
      <trkpt lat="43.45563" lon="6.43668">
        <ele>258.4</ele>
        <time>2021-09-08T15:40:23.000Z</time>
      </trkpt>
      <trkpt lat="43.45564" lon="6.43662">
        <ele>258</ele>
        <time>2021-09-08T15:40:32.000Z</time>
      </trkpt>
      <trkpt lat="43.45567" lon="6.43656">
        <ele>257.7</ele>
        <time>2021-09-08T15:40:39.000Z</time>
      </trkpt>
      <trkpt lat="43.45567" lon="6.4365">
        <ele>257.4</ele>
        <time>2021-09-08T15:40:49.000Z</time>
      </trkpt>
      <trkpt lat="43.45565" lon="6.43644">
        <ele>256.6</ele>
        <time>2021-09-08T15:40:56.000Z</time>
      </trkpt>
      <trkpt lat="43.45564" lon="6.43636">
        <ele>255.9</ele>
        <time>2021-09-08T15:41:03.000Z</time>
      </trkpt>
      <trkpt lat="43.45564" lon="6.43629">
        <ele>255.3</ele>
        <time>2021-09-08T15:41:09.000Z</time>
      </trkpt>
      <trkpt lat="43.45563" lon="6.43623">
        <ele>254.9</ele>
        <time>2021-09-08T15:41:12.000Z</time>
      </trkpt>
      <trkpt lat="43.45563" lon="6.43615">
        <ele>254.5</ele>
        <time>2021-09-08T15:41:17.000Z</time>
      </trkpt>
      <trkpt lat="43.45561" lon="6.43609">
        <ele>254.1</ele>
        <time>2021-09-08T15:41:22.000Z</time>
      </trkpt>
      <trkpt lat="43.45559" lon="6.43603">
        <ele>253.7</ele>
        <time>2021-09-08T15:41:28.000Z</time>
      </trkpt>
      <trkpt lat="43.45556" lon="6.43597">
        <ele>253.4</ele>
        <time>2021-09-08T15:41:34.000Z</time>
      </trkpt>
      <trkpt lat="43.45552" lon="6.43592">
        <ele>253</ele>
        <time>2021-09-08T15:41:40.000Z</time>
      </trkpt>
      <trkpt lat="43.45549" lon="6.43586">
        <ele>252.7</ele>
        <time>2021-09-08T15:41:46.000Z</time>
      </trkpt>
      <trkpt lat="43.45547" lon="6.43581">
        <ele>252.3</ele>
        <time>2021-09-08T15:41:51.000Z</time>
      </trkpt>
      <trkpt lat="43.45543" lon="6.43576">
        <ele>251.8</ele>
        <time>2021-09-08T15:41:57.000Z</time>
      </trkpt>
      <trkpt lat="43.4554" lon="6.43572">
        <ele>251.3</ele>
        <time>2021-09-08T15:42:03.000Z</time>
      </trkpt>
      <trkpt lat="43.45539" lon="6.43565">
        <ele>250.7</ele>
        <time>2021-09-08T15:42:10.000Z</time>
      </trkpt>
      <trkpt lat="43.45544" lon="6.43563">
        <ele>250.1</ele>
        <time>2021-09-08T15:42:17.000Z</time>
      </trkpt>
      <trkpt lat="43.45548" lon="6.43562">
        <ele>249.7</ele>
        <time>2021-09-08T15:42:24.000Z</time>
      </trkpt>
      <trkpt lat="43.45553" lon="6.43565">
        <ele>249.4</ele>
        <time>2021-09-08T15:42:31.000Z</time>
      </trkpt>
      <trkpt lat="43.45558" lon="6.43567">
        <ele>249.3</ele>
        <time>2021-09-08T15:42:37.000Z</time>
      </trkpt>
      <trkpt lat="43.45562" lon="6.43569">
        <ele>249.4</ele>
        <time>2021-09-08T15:42:43.000Z</time>
      </trkpt>
      <trkpt lat="43.45566" lon="6.43572">
        <ele>249.4</ele>
        <time>2021-09-08T15:42:49.000Z</time>
      </trkpt>
      <trkpt lat="43.45571" lon="6.43576">
        <ele>249.6</ele>
        <time>2021-09-08T15:42:55.000Z</time>
      </trkpt>
      <trkpt lat="43.45575" lon="6.43581">
        <ele>249.8</ele>
        <time>2021-09-08T15:43:00.000Z</time>
      </trkpt>
      <trkpt lat="43.45578" lon="6.43585">
        <ele>250.2</ele>
        <time>2021-09-08T15:43:10.000Z</time>
      </trkpt>
      <trkpt lat="43.4558" lon="6.43591">
        <ele>250.4</ele>
        <time>2021-09-08T15:43:21.000Z</time>
      </trkpt>
      <trkpt lat="43.45584" lon="6.43595">
        <ele>250.4</ele>
        <time>2021-09-08T15:43:55.000Z</time>
      </trkpt>
      <trkpt lat="43.45588" lon="6.43595">
        <ele>250.7</ele>
        <time>2021-09-08T15:44:38.000Z</time>
      </trkpt>
      <trkpt lat="43.45584" lon="6.43594">
        <ele>250.5</ele>
        <time>2021-09-08T15:45:06.000Z</time>
      </trkpt>
      <trkpt lat="43.45585" lon="6.43588">
        <ele>250.4</ele>
        <time>2021-09-08T15:46:40.000Z</time>
      </trkpt>
      <trkpt lat="43.45583" lon="6.43581">
        <ele>250.1</ele>
        <time>2021-09-08T15:46:47.000Z</time>
      </trkpt>
      <trkpt lat="43.45581" lon="6.43576">
        <ele>249.9</ele>
        <time>2021-09-08T15:46:52.000Z</time>
      </trkpt>
      <trkpt lat="43.45577" lon="6.43572">
        <ele>249.4</ele>
        <time>2021-09-08T15:46:56.000Z</time>
      </trkpt>
      <trkpt lat="43.45575" lon="6.43566">
        <ele>248.8</ele>
        <time>2021-09-08T15:47:03.000Z</time>
      </trkpt>
      <trkpt lat="43.45572" lon="6.4356">
        <ele>248.3</ele>
        <time>2021-09-08T15:47:09.000Z</time>
      </trkpt>
      <trkpt lat="43.45569" lon="6.43554">
        <ele>247.7</ele>
        <time>2021-09-08T15:47:14.000Z</time>
      </trkpt>
      <trkpt lat="43.45566" lon="6.43549">
        <ele>247</ele>
        <time>2021-09-08T15:47:20.000Z</time>
      </trkpt>
      <trkpt lat="43.45564" lon="6.43543">
        <ele>246.2</ele>
        <time>2021-09-08T15:47:27.000Z</time>
      </trkpt>
      <trkpt lat="43.45561" lon="6.43538">
        <ele>245.2</ele>
        <time>2021-09-08T15:47:33.000Z</time>
      </trkpt>
      <trkpt lat="43.45556" lon="6.43533">
        <ele>244.4</ele>
        <time>2021-09-08T15:47:38.000Z</time>
      </trkpt>
      <trkpt lat="43.45552" lon="6.43529">
        <ele>243.7</ele>
        <time>2021-09-08T15:47:43.000Z</time>
      </trkpt>
      <trkpt lat="43.45547" lon="6.43529">
        <ele>243.2</ele>
        <time>2021-09-08T15:47:47.000Z</time>
      </trkpt>
      <trkpt lat="43.45542" lon="6.43528">
        <ele>242.6</ele>
        <time>2021-09-08T15:47:53.000Z</time>
      </trkpt>
      <trkpt lat="43.45539" lon="6.43523">
        <ele>242.2</ele>
        <time>2021-09-08T15:48:00.000Z</time>
      </trkpt>
      <trkpt lat="43.45538" lon="6.43517">
        <ele>241.7</ele>
        <time>2021-09-08T15:48:08.000Z</time>
      </trkpt>
      <trkpt lat="43.45536" lon="6.43511">
        <ele>240.7</ele>
        <time>2021-09-08T15:48:16.000Z</time>
      </trkpt>
      <trkpt lat="43.45534" lon="6.43505">
        <ele>239.1</ele>
        <time>2021-09-08T15:48:26.000Z</time>
      </trkpt>
      <trkpt lat="43.45535" lon="6.43499">
        <ele>235.3</ele>
        <time>2021-09-08T15:48:42.000Z</time>
      </trkpt>
      <trkpt lat="43.45535" lon="6.43492">
        <ele>233.8</ele>
        <time>2021-09-08T15:48:48.000Z</time>
      </trkpt>
      <trkpt lat="43.45536" lon="6.43486">
        <ele>232.2</ele>
        <time>2021-09-08T15:48:55.000Z</time>
      </trkpt>
      <trkpt lat="43.45534" lon="6.4348">
        <ele>230.1</ele>
        <time>2021-09-08T15:49:05.000Z</time>
      </trkpt>
      <trkpt lat="43.4553" lon="6.43476">
        <ele>228.7</ele>
        <time>2021-09-08T15:49:12.000Z</time>
      </trkpt>
      <trkpt lat="43.45526" lon="6.43472">
        <ele>227.8</ele>
        <time>2021-09-08T15:49:18.000Z</time>
      </trkpt>
      <trkpt lat="43.45522" lon="6.43469">
        <ele>227.1</ele>
        <time>2021-09-08T15:49:24.000Z</time>
      </trkpt>
      <trkpt lat="43.45517" lon="6.43466">
        <ele>225.2</ele>
        <time>2021-09-08T15:49:34.000Z</time>
      </trkpt>
      <trkpt lat="43.45512" lon="6.43464">
        <ele>224.1</ele>
        <time>2021-09-08T15:49:40.000Z</time>
      </trkpt>
      <trkpt lat="43.45507" lon="6.43463">
        <ele>223.1</ele>
        <time>2021-09-08T15:49:45.000Z</time>
      </trkpt>
      <trkpt lat="43.45502" lon="6.43461">
        <ele>221.7</ele>
        <time>2021-09-08T15:49:53.000Z</time>
      </trkpt>
      <trkpt lat="43.45503" lon="6.43454">
        <ele>219.2</ele>
        <time>2021-09-08T15:50:10.000Z</time>
      </trkpt>
      <trkpt lat="43.45499" lon="6.43452">
        <ele>217.5</ele>
        <time>2021-09-08T15:50:20.000Z</time>
      </trkpt>
      <trkpt lat="43.45495" lon="6.43448">
        <ele>215</ele>
        <time>2021-09-08T15:50:34.000Z</time>
      </trkpt>
      <trkpt lat="43.45491" lon="6.43445">
        <ele>213.1</ele>
        <time>2021-09-08T15:50:43.000Z</time>
      </trkpt>
      <trkpt lat="43.45488" lon="6.4344">
        <ele>211.1</ele>
        <time>2021-09-08T15:50:53.000Z</time>
      </trkpt>
      <trkpt lat="43.45483" lon="6.4344">
        <ele>207.9</ele>
        <time>2021-09-08T15:51:09.000Z</time>
      </trkpt>
      <trkpt lat="43.45483" lon="6.43434">
        <ele>205.4</ele>
        <time>2021-09-08T15:51:23.000Z</time>
      </trkpt>
      <trkpt lat="43.45481" lon="6.43427">
        <ele>202.8</ele>
        <time>2021-09-08T15:51:40.000Z</time>
      </trkpt>
      <trkpt lat="43.45477" lon="6.43426">
        <ele>200.7</ele>
        <time>2021-09-08T15:51:52.000Z</time>
      </trkpt>
      <trkpt lat="43.45472" lon="6.43423">
        <ele>200</ele>
        <time>2021-09-08T15:51:59.000Z</time>
      </trkpt>
      <trkpt lat="43.45467" lon="6.43427">
        <ele>199.5</ele>
        <time>2021-09-08T15:52:04.000Z</time>
      </trkpt>
      <trkpt lat="43.45462" lon="6.43427">
        <ele>199.2</ele>
        <time>2021-09-08T15:52:07.000Z</time>
      </trkpt>
      <trkpt lat="43.45457" lon="6.4343">
        <ele>198.8</ele>
        <time>2021-09-08T15:52:11.000Z</time>
      </trkpt>
      <trkpt lat="43.45453" lon="6.43434">
        <ele>198.6</ele>
        <time>2021-09-08T15:52:14.000Z</time>
      </trkpt>
      <trkpt lat="43.45448" lon="6.43438">
        <ele>198.4</ele>
        <time>2021-09-08T15:52:18.000Z</time>
      </trkpt>
      <trkpt lat="43.45445" lon="6.43443">
        <ele>198.3</ele>
        <time>2021-09-08T15:52:22.000Z</time>
      </trkpt>
      <trkpt lat="43.45441" lon="6.43447">
        <ele>198.3</ele>
        <time>2021-09-08T15:52:27.000Z</time>
      </trkpt>
      <trkpt lat="43.45436" lon="6.43449">
        <ele>198.1</ele>
        <time>2021-09-08T15:52:37.000Z</time>
      </trkpt>
      <trkpt lat="43.45431" lon="6.43451">
        <ele>197.2</ele>
        <time>2021-09-08T15:52:47.000Z</time>
      </trkpt>
      <trkpt lat="43.45426" lon="6.43451">
        <ele>195.7</ele>
        <time>2021-09-08T15:52:58.000Z</time>
      </trkpt>
      <trkpt lat="43.45421" lon="6.43452">
        <ele>194.9</ele>
        <time>2021-09-08T15:53:03.000Z</time>
      </trkpt>
      <trkpt lat="43.45415" lon="6.43454">
        <ele>194.2</ele>
        <time>2021-09-08T15:53:07.000Z</time>
      </trkpt>
      <trkpt lat="43.45411" lon="6.43456">
        <ele>193.6</ele>
        <time>2021-09-08T15:53:13.000Z</time>
      </trkpt>
      <trkpt lat="43.45407" lon="6.43454">
        <ele>192.1</ele>
        <time>2021-09-08T15:53:25.000Z</time>
      </trkpt>
      <trkpt lat="43.45402" lon="6.43453">
        <ele>190.5</ele>
        <time>2021-09-08T15:53:34.000Z</time>
      </trkpt>
      <trkpt lat="43.45398" lon="6.4345">
        <ele>189</ele>
        <time>2021-09-08T15:53:43.000Z</time>
      </trkpt>
      <trkpt lat="43.45399" lon="6.43444">
        <ele>187.6</ele>
        <time>2021-09-08T15:53:55.000Z</time>
      </trkpt>
      <trkpt lat="43.45401" lon="6.43437">
        <ele>187</ele>
        <time>2021-09-08T15:54:00.000Z</time>
      </trkpt>
      <trkpt lat="43.45405" lon="6.43432">
        <ele>186.5</ele>
        <time>2021-09-08T15:54:05.000Z</time>
      </trkpt>
      <trkpt lat="43.45406" lon="6.43426">
        <ele>185.8</ele>
        <time>2021-09-08T15:54:14.000Z</time>
      </trkpt>
      <trkpt lat="43.45408" lon="6.43419">
        <ele>185</ele>
        <time>2021-09-08T15:54:25.000Z</time>
      </trkpt>
      <trkpt lat="43.45405" lon="6.43414">
        <ele>183.8</ele>
        <time>2021-09-08T15:54:38.000Z</time>
      </trkpt>
      <trkpt lat="43.45401" lon="6.43417">
        <ele>182.1</ele>
        <time>2021-09-08T15:54:48.000Z</time>
      </trkpt>
      <trkpt lat="43.45397" lon="6.43419">
        <ele>181</ele>
        <time>2021-09-08T15:54:54.000Z</time>
      </trkpt>
      <trkpt lat="43.45392" lon="6.43422">
        <ele>179.9</ele>
        <time>2021-09-08T15:55:00.000Z</time>
      </trkpt>
      <trkpt lat="43.45387" lon="6.43423">
        <ele>179.6</ele>
        <time>2021-09-08T15:55:03.000Z</time>
      </trkpt>
      <trkpt lat="43.45382" lon="6.43427">
        <ele>179.3</ele>
        <time>2021-09-08T15:55:06.000Z</time>
      </trkpt>
      <trkpt lat="43.45378" lon="6.43429">
        <ele>178.9</ele>
        <time>2021-09-08T15:55:10.000Z</time>
      </trkpt>
      <trkpt lat="43.45373" lon="6.43432">
        <ele>178.6</ele>
        <time>2021-09-08T15:55:15.000Z</time>
      </trkpt>
      <trkpt lat="43.45368" lon="6.43435">
        <ele>178.5</ele>
        <time>2021-09-08T15:55:20.000Z</time>
      </trkpt>
      <trkpt lat="43.45363" lon="6.43437">
        <ele>178.5</ele>
        <time>2021-09-08T15:55:25.000Z</time>
      </trkpt>
      <trkpt lat="43.45358" lon="6.43439">
        <ele>178.4</ele>
        <time>2021-09-08T15:55:30.000Z</time>
      </trkpt>
      <trkpt lat="43.45354" lon="6.4344">
        <ele>178.4</ele>
        <time>2021-09-08T15:55:39.000Z</time>
      </trkpt>
      <trkpt lat="43.45349" lon="6.43442">
        <ele>178</ele>
        <time>2021-09-08T15:55:46.000Z</time>
      </trkpt>
      <trkpt lat="43.45345" lon="6.43439">
        <ele>177.4</ele>
        <time>2021-09-08T15:55:54.000Z</time>
      </trkpt>
      <trkpt lat="43.4534" lon="6.43437">
        <ele>177.1</ele>
        <time>2021-09-08T15:56:02.000Z</time>
      </trkpt>
      <trkpt lat="43.45335" lon="6.43436">
        <ele>176.8</ele>
        <time>2021-09-08T15:56:11.000Z</time>
      </trkpt>
      <trkpt lat="43.4533" lon="6.43435">
        <ele>176.7</ele>
        <time>2021-09-08T15:56:15.000Z</time>
      </trkpt>
      <trkpt lat="43.45326" lon="6.43432">
        <ele>176.4</ele>
        <time>2021-09-08T15:56:23.000Z</time>
      </trkpt>
      <trkpt lat="43.45322" lon="6.43428">
        <ele>175.9</ele>
        <time>2021-09-08T15:56:46.000Z</time>
      </trkpt>
      <trkpt lat="43.45323" lon="6.43422">
        <ele>176</ele>
        <time>2021-09-08T15:57:44.000Z</time>
      </trkpt>
      <trkpt lat="43.45322" lon="6.43415">
        <ele>176</ele>
        <time>2021-09-08T15:58:42.000Z</time>
      </trkpt>
      <trkpt lat="43.45325" lon="6.43421">
        <ele>176</ele>
        <time>2021-09-08T15:59:03.000Z</time>
      </trkpt>
      <trkpt lat="43.45325" lon="6.43425">
        <ele>176.1</ele>
        <time>2021-09-08T15:59:10.000Z</time>
      </trkpt>
    </trkseg>
  </trk>
</gpx>